[[{"header":{"parameterUnit":"m.s-1","parameterCategory":1,"la1":30.6,"la2":28.766,"lo1":-90.7593,"lo2":-88.6598,"dx":0.0162,"dy":0.0183,"nx":116,"ny":114,"refTime":"2022-12-05T06:00:00:Z","depth":0,"parameterNumber":2,"parameterNumberName":"U-component_of_WINDS"},"data":[0.0,0.0,0.0,0.0,0.0,0.0,0.0,0.0,0.0,0.0,0.0,0.0,0.0,0.0,0.0,0.0,0.0,0.0,0.0,0.0,0.0,0.0,0.0,0.0,0.0,0.0,0.0,0.0,0.0,0.0,0.0,0.0,0.0,0.0,0.0,0.0,0.0,0.0,0.0,0.0,0.0,0.0,0.0,0.0,0.0,0.0,0.0,0.0,0.0,0.0,0.0,0.0,0.0,0.0,0.0,0.0,0.0,0.0,0.0,0.0,0.0,0.0,0.0,0.0,0.0,0.0,0.0,0.0,0.0,0.0,0.0,0.0,0.0,0.0,0.0,0.0,0.0,0.0,0.0,0.0,0.0,0.0,0.0,0.0,0.0,0.0,0.0,0.0,0.0,0.0,0.0,0.0,0.0,0.0,0.0,0.0,0.0,0.0,0.0,0.0,0.0,0.0,0.0,0.0,0.0,0.0,0.0,0.0,0.0,0.0,0.0,0.0,0.0,0.0,0.0,0.0,0.0,0.0,0.0,0.0,0.0,0.0,0.0,0.0,0.0,0.0,0.0,0.0,0.0,0.0,0.0,0.0,0.0,0.0,0.0,0.0,0.0,0.0,0.0,0.0,0.0,0.0,0.0,0.0,0.0,0.0,0.0,0.0,0.0,0.0,0.0,0.0,0.0,0.0,0.0,0.0,0.0,0.0,0.0,0.0,0.0,0.0,0.0,0.0,0.0,0.0,0.0,0.0,0.0,0.0,0.0,0.0,0.0,0.0,0.0,0.0,0.0,0.0,0.0,0.0,0.0,0.0,0.0,0.0,0.0,0.0,0.0,0.0,0.0,0.0,0.0,0.0,0.0,0.0,0.0,0.0,0.0,0.0,0.0,0.0,0.0,0.0,0.0,0.0,0.0,0.0,0.0,0.0,0.0,0.0,0.0,0.0,0.0,0.0,0.0,0.0,0.0,0.0,0.0,0.0,0.0,0.0,0.0,0.0,0.0,0.0,0.0,0.0,0.0,0.0,0.0,0.0,0.0,0.0,0.0,0.0,0.0,0.0,0.0,0.0,0.0,0.0,0.0,0.0,0.0,0.0,0.0,0.0,0.0,0.0,0.0,0.0,0.0,0.0,0.0,0.0,0.0,0.0,0.0,0.0,0.0,0.0,0.0,0.0,0.0,0.0,0.0,0.0,0.0,0.0,0.0,0.0,0.0,0.0,0.0,0.0,0.0,0.0,0.0,0.0,0.0,0.0,0.0,0.0,0.0,0.0,0.0,0.0,0.0,0.0,0.0,0.0,0.0,0.0,0.0,0.0,0.0,0.0,0.0,0.0,0.0,0.0,0.0,0.0,0.0,0.0,0.0,0.0,0.0,0.0,0.0,0.0,0.0,0.0,0.0,0.0,0.0,0.0,0.0,0.0,0.0,0.0,0.0,0.0,0.0,0.0,0.0,0.0,0.0,0.0,0.0,0.0,0.0,0.0,0.0,0.0,0.0,0.0,0.0,0.0,0.0,0.0,0.0,0.0,0.0,0.0,0.0,0.0,0.0,0.0,0.0,0.0,0.0,0.0,0.0,0.0,0.0,0.0,0.0,0.0,0.0,0.0,0.0,0.0,0.0,0.0,0.0,0.0,0.0,0.0,0.0,0.0,0.0,0.0,0.0,0.0,0.0,0.0,0.0,0.0,0.0,0.0,0.0,0.0,0.0,0.0,0.0,0.0,0.0,0.0,0.0,0.0,0.0,0.0,0.0,0.0,0.0,0.0,0.0,0.0,0.0,0.0,0.0,0.0,0.0,0.0,0.0,0.0,0.0,0.0,0.0,0.0,0.0,0.0,0.0,0.0,0.0,0.0,0.0,0.0,0.0,0.0,0.0,0.0,0.0,0.0,0.0,0.0,0.0,0.0,0.0,0.0,0.0,0.0,0.0,0.0,0.0,0.0,0.0,0.0,0.0,0.0,0.0,0.0,0.0,0.0,0.0,0.0,0.0,0.0,0.0,0.0,0.0,0.0,0.0,0.0,0.0,0.0,0.0,0.0,0.0,0.0,0.0,0.0,0.0,0.0,0.0,0.0,0.0,0.0,0.0,0.0,0.0,0.0,0.0,0.0,0.0,0.0,0.0,0.0,0.0,0.0,0.0,0.0,0.0,0.0,0.0,0.0,0.0,0.0,0.0,0.0,0.0,0.0,0.0,0.0,0.0,0.0,0.0,0.0,0.0,0.0,0.0,0.0,0.0,0.0,0.0,0.0,0.0,0.0,0.0,0.0,0.0,0.0,0.0,0.0,0.0,0.0,0.0,0.0,0.0,0.0,0.0,0.0,0.0,0.0,0.0,0.0,0.0,0.0,0.0,0.0,0.0,0.0,0.0,0.0,0.0,0.0,0.0,0.0,0.0,0.0,0.0,0.0,0.0,0.0,0.0,0.0,0.0,0.0,0.0,0.0,0.0,0.0,0.0,0.0,0.0,0.0,0.0,0.0,0.0,0.0,0.0,0.0,0.0,0.0,0.0,0.0,0.0,0.0,0.0,0.0,0.0,0.0,0.0,0.0,0.0,0.0,0.0,0.0,0.0,0.0,0.0,0.0,0.0,0.0,0.0,0.0,0.0,0.0,0.0,0.0,0.0,0.0,0.0,0.0,0.0,0.0,0.0,0.0,0.0,0.0,0.0,0.0,0.0,0.0,0.0,0.0,0.0,0.0,0.0,0.0,0.0,0.0,0.0,0.0,0.0,0.0,0.0,0.0,0.0,0.0,0.0,0.0,0.0,0.0,0.0,0.0,0.0,0.0,0.0,0.0,0.0,0.0,0.0,0.0,0.0,0.0,0.0,0.0,0.0,0.0,0.0,0.0,0.0,0.0,0.0,0.0,0.0,0.0,0.0,0.0,0.0,0.0,0.0,0.0,0.0,0.0,0.0,0.0,0.0,0.0,0.0,0.0,0.0,0.0,0.0,0.0,0.0,0.0,0.0,0.0,0.0,0.0,0.0,0.0,0.0,0.0,0.0,0.0,0.0,0.0,0.0,0.0,0.0,0.0,0.0,0.0,0.0,0.0,0.0,0.0,0.0,0.0,0.0,0.0,0.0,0.0,0.0,0.0,0.0,0.0,0.0,0.0,0.0,0.0,0.0,0.0,0.0,0.0,0.0,0.0,0.0,0.0,0.0,0.0,0.0,0.0,0.0,0.0,0.0,0.0,0.0,0.0,0.0,0.0,0.0,0.0,0.0,0.0,0.0,0.0,0.0,0.0,0.0,0.0,0.0,0.0,0.0,0.0,0.0,0.0,0.0,0.0,0.0,0.0,0.0,0.0,0.0,0.0,0.0,0.0,0.0,0.0,0.0,0.0,0.0,0.0,0.0,0.0,0.0,0.0,0.0,0.0,0.0,0.0,0.0,0.0,0.0,0.0,0.0,0.0,0.0,0.0,0.0,0.0,0.0,0.0,0.0,0.0,0.0,0.0,0.0,0.0,0.0,0.0,0.0,0.0,0.0,0.0,0.0,0.0,0.0,0.0,0.0,0.0,0.0,0.0,0.0,0.0,0.0,0.0,0.0,0.0,0.0,0.0,0.0,0.0,0.0,0.0,0.0,0.0,0.0,0.0,0.0,0.0,0.0,0.0,0.0,0.0,0.0,0.0,0.0,0.0,0.0,0.0,0.0,0.0,0.0,0.0,0.0,0.0,0.0,0.0,0.0,0.0,0.0,0.0,0.0,0.0,0.0,0.0,0.0,0.0,0.0,0.0,0.0,0.0,0.0,0.0,0.0,0.0,0.0,0.0,0.0,0.0,0.0,0.0,0.0,0.0,0.0,0.0,0.0,0.0,0.0,0.0,0.0,0.0,0.0,0.0,0.0,0.0,0.0,0.0,0.0,0.0,0.0,0.0,0.0,0.0,0.0,0.0,0.0,0.0,0.0,0.0,0.0,0.0,0.0,0.0,0.0,0.0,0.0,0.0,0.0,0.0,0.0,0.0,0.0,0.0,0.0,0.0,0.0,0.0,0.0,0.0,0.0,0.0,0.0,0.0,0.0,0.0,0.0,0.0,0.0,0.0,0.0,0.0,0.0,0.0,0.0,0.0,0.0,0.0,0.0,0.0,0.0,0.0,0.0,0.0,0.0,0.0,0.0,0.0,0.0,0.0,0.0,0.0,0.0,0.0,0.0,0.0,0.0,0.0,0.0,0.0,0.0,0.0,0.0,0.0,0.0,0.0,0.0,0.0,0.0,0.0,0.0,0.0,0.0,0.0,0.0,0.0,0.0,0.0,0.0,0.0,0.0,0.0,0.0,0.0,0.0,0.0,0.0,0.0,0.0,0.0,0.0,0.0,0.0,0.0,0.0,0.0,0.0,0.0,0.0,0.0,0.0,0.0,0.0,0.0,0.0,0.0,0.0,0.0,0.0,0.0,0.0,0.0,0.0,0.0,0.0,0.0,0.0,0.0,0.0,0.0,0.0,0.0,0.0,0.0,0.0,0.0,0.0,0.0,0.0,0.0,0.0,0.0,0.0,0.0,0.0,0.0,0.0,0.0,0.0,0.0,0.0,0.0,0.0,0.0,0.0,0.0,0.0,0.0,0.0,0.0,0.0,0.0,0.0,0.0,0.0,0.0,0.0,0.0,0.0,0.0,0.0,0.0,0.0,0.0,0.0,0.0,0.0,0.0,0.0,0.0,0.0,0.0,0.0,0.0,0.0,0.0,0.0,0.0,0.0,0.0,0.0,0.0,0.0,0.0,0.0,0.0,0.0,0.0,0.0,0.0,0.0,0.0,0.0,0.0,0.0,0.0,0.0,0.0,0.0,0.0,0.0,0.0,0.0,0.0,0.0,0.0,0.0,0.0,0.0,0.0,0.0,0.0,0.0,0.0,0.0,0.0,0.0,0.0,0.0,0.0,0.0,0.0,0.0,0.0,0.0,0.0,0.0,0.0,0.0,0.0,0.0,0.0,0.0,0.0,0.0,0.0,0.0,0.0,0.0,0.0,0.0,0.0,0.0,0.0,0.0,0.0,0.0,0.0,0.0,0.0,0.0,0.0,0.0,0.0,0.0,0.0,0.0,0.0,0.0,0.0,0.0,0.0,0.0,0.0,0.0,0.0,0.0,0.0,0.0,0.0,0.0,0.0,0.0,0.0,0.0,0.0,0.0,0.0,0.0,0.0,0.0,0.0,0.0,0.0,0.0,0.0,0.0,0.0,0.0,0.0,0.0,0.0,0.0,0.0,0.0,0.0,0.0,0.0,0.0,0.0,0.0,0.0,0.0,0.0,0.0,0.0,0.0,0.0,0.0,0.0,0.0,0.0,0.0,0.0,0.0,0.0,0.0,0.0,0.0,0.0,0.0,0.0,0.0,0.0,0.0,0.0,0.0,0.0,0.0,0.0,0.0,0.0,0.0,0.0,0.0,0.0,0.0,0.0,0.0,0.0,0.0,0.0,0.0,0.0,0.0,0.0,0.0,0.0,0.0,0.0,0.0,0.0,0.0,0.0,0.0,0.0,0.0,0.0,0.0,0.0,0.0,0.0,0.0,0.0,0.0,0.0,0.0,0.0,0.0,0.0,0.0,0.0,0.0,0.0,0.0,0.0,0.0,0.0,0.0,0.0,0.0,0.0,0.0,0.0,0.0,0.0,0.0,0.0,0.0,0.0,0.0,0.0,0.0,0.0,0.0,0.0,0.0,0.0,0.0,0.0,0.0,0.0,0.0,0.0,0.0,0.0,0.0,0.0,0.0,0.0,0.0,0.0,0.0,0.0,0.0,0.0,0.0,0.0,0.0,0.0,0.0,0.0,0.0,0.0,0.0,0.0,0.0,0.0,0.0,0.0,0.0,0.0,0.0,0.0,0.0,0.0,0.0,0.0,0.0,0.0,0.0,0.0,0.0,0.0,0.0,0.0,0.0,0.0,0.0,0.0,0.0,0.0,0.0,0.0,0.0,0.0,0.0,0.0,0.0,0.0,0.0,0.0,0.0,0.0,0.0,0.0,0.0,0.0,0.0,0.0,0.0,0.0,0.0,0.0,0.0,0.0,0.0,0.0,0.0,0.0,0.0,0.0,0.0,0.0,0.0,0.0,0.0,0.0,0.0,0.0,0.0,0.0,0.0,0.0,-2.5139,-2.3323,0.0,0.0,0.0,0.0,0.0,0.0,0.0,0.0,0.0,0.0,0.0,0.0,0.0,0.0,0.0,0.0,0.0,0.0,0.0,0.0,0.0,0.0,0.0,-1.2988,-1.3131,-1.3478,-1.3194,0.0,0.0,0.0,0.0,0.0,0.0,0.0,0.0,0.0,-1.4999,-1.6089,-1.7429,-1.934,-2.1712,-2.0621,-1.9577,-1.8566,0.0,0.0,0.0,0.0,0.0,0.0,0.0,0.0,0.0,0.0,0.0,0.0,0.0,0.0,0.0,0.0,0.0,0.0,0.0,0.0,0.0,0.0,0.0,0.0,0.0,0.0,0.0,0.0,0.0,0.0,0.0,0.0,0.0,0.0,0.0,0.0,0.0,0.0,0.0,0.0,0.0,0.0,0.0,0.0,0.0,0.0,0.0,0.0,0.0,0.0,0.0,0.0,0.0,0.0,0.0,0.0,0.0,0.0,0.0,0.0,0.0,0.0,0.0,0.0,0.0,0.0,0.0,0.0,0.0,0.0,-2.7908,-2.6538,0.0,0.0,0.0,0.0,0.0,0.0,0.0,0.0,0.0,0.0,0.0,0.0,0.0,0.0,0.0,0.0,0.0,0.0,0.0,0.0,0.0,-1.2931,-1.3621,-1.3805,-1.411,-1.4722,-1.4221,-1.3932,-1.4031,-1.3415,0.0,0.0,0.0,0.0,-1.4237,-1.5915,-1.7273,-1.8236,-2.0573,-2.2961,-2.5365,-2.5476,-2.4242,-2.1805,-1.9846,0.0,0.0,0.0,0.0,0.0,0.0,0.0,0.0,0.0,0.0,0.0,0.0,0.0,0.0,0.0,0.0,0.0,0.0,0.0,0.0,0.0,0.0,0.0,0.0,0.0,0.0,0.0,0.0,0.0,0.0,0.0,0.0,0.0,0.0,0.0,0.0,0.0,0.0,0.0,0.0,0.0,0.0,0.0,0.0,0.0,0.0,0.0,0.0,0.0,0.0,0.0,0.0,0.0,0.0,0.0,0.0,0.0,0.0,0.0,0.0,0.0,0.0,0.0,-2.9774,-2.9882,-2.9964,-2.955,-2.9971,-3.0988,-3.0364,-2.9624,-2.8682,-2.7813,0.0,0.0,0.0,0.0,0.0,0.0,0.0,0.0,0.0,0.0,0.0,0.0,0.0,0.0,0.0,0.0,0.0,0.0,0.0,-1.3652,-1.4379,-1.4975,-1.5355,-1.545,-1.5371,-1.5564,-1.6152,-1.5564,0.0,0.0,0.0,-1.6483,-1.7131,-1.7415,-1.8488,-2.0383,-2.3702,-2.5835,-2.6846,-2.7415,-2.7178,-2.6198,-2.4717,-2.367,-2.2909,0.0,0.0,0.0,0.0,0.0,0.0,0.0,0.0,0.0,0.0,0.0,0.0,0.0,0.0,0.0,0.0,0.0,0.0,0.0,0.0,0.0,0.0,0.0,0.0,0.0,0.0,0.0,0.0,0.0,0.0,0.0,0.0,0.0,0.0,0.0,0.0,0.0,0.0,0.0,0.0,0.0,-2.2253,-2.1884,0.0,0.0,0.0,0.0,0.0,0.0,0.0,0.0,0.0,0.0,0.0,0.0,0.0,-2.7841,-2.9149,-2.9312,-2.9672,-3.0296,-3.0812,-3.1327,-3.1879,-3.2314,-3.2847,-3.3406,-3.2847,0.0,-2.942,-2.9781,0.0,0.0,0.0,0.0,0.0,0.0,0.0,0.0,0.0,0.0,0.0,0.0,0.0,0.0,0.0,0.0,0.0,0.0,0.0,0.0,0.0,-1.7632,-1.8593,-1.9776,-1.9522,-1.9266,-1.9201,-1.8035,0.0,0.0,-1.7778,-1.8125,-1.8852,-2.0383,-2.2422,-2.4902,-2.6814,-2.8309,-2.9414,-3.0117,-3.0496,-3.0528,-2.9106,-2.7225,-2.4914,-2.2548,0.0,0.0,0.0,0.0,0.0,0.0,0.0,0.0,0.0,0.0,0.0,0.0,0.0,0.0,0.0,0.0,0.0,0.0,0.0,0.0,0.0,0.0,0.0,0.0,0.0,0.0,0.0,0.0,0.0,0.0,0.0,0.0,0.0,0.0,0.0,0.0,0.0,0.0,0.0,-2.1599,-2.2591,-2.3689,-2.4069,-2.4204,0.0,0.0,0.0,0.0,0.0,0.0,0.0,0.0,0.0,-2.8668,-2.8695,-2.9442,-3.101,-3.1023,-3.1463,-3.2363,-3.262,-3.3091,-3.3661,-3.3593,-3.384,-3.4368,-3.3786,-3.2969,-3.1951,-3.1572,-3.0893,-3.0147,0.0,0.0,0.0,0.0,-2.9157,-2.9007,0.0,0.0,0.0,0.0,0.0,0.0,0.0,0.0,0.0,0.0,0.0,0.0,-1.913,-2.0431,-2.181,-2.3349,-2.3136,-2.2701,-2.2208,-2.1004,-2.0304,-2.0304,-2.0478,-2.0747,-2.111,-2.3496,-2.5835,-2.8094,-2.8963,-2.9998,-3.1198,-3.176,-3.2266,-3.2724,-3.1681,-2.9746,-2.7194,-2.5108,-2.4507,-2.4725,0.0,0.0,0.0,0.0,0.0,0.0,0.0,0.0,0.0,0.0,0.0,0.0,0.0,0.0,0.0,0.0,0.0,0.0,0.0,0.0,0.0,0.0,0.0,0.0,0.0,0.0,0.0,0.0,0.0,0.0,0.0,0.0,0.0,0.0,0.0,0.0,0.0,-2.3114,-2.3757,-2.5697,-2.5928,-2.6036,0.0,0.0,0.0,0.0,0.0,0.0,-2.7515,-2.8492,-2.9401,-3.0181,-3.0208,-3.1029,-3.2847,-3.2861,-3.3376,-3.4355,-3.4355,-3.468,-3.5236,-3.4951,-3.5154,-3.5669,-3.5087,-3.4734,-3.4477,-3.3186,-3.2277,-3.1789,-3.2259,-3.2259,-3.1938,-3.1789,-3.1653,-3.1558,0.0,0.0,0.0,0.0,0.0,0.0,0.0,0.0,0.0,0.0,0.0,-1.9462,-2.091,-2.2868,-2.4134,-2.423,-2.4633,-2.4831,-2.4799,-2.4736,-2.4669,-2.4669,-2.5282,-2.5345,-2.4752,-2.6182,-2.732,-2.8094,-2.9477,-3.0496,-3.1198,-3.1255,-3.1261,-3.1293,-3.1214,-3.1088,-3.0788,-2.8711,-2.7857,-2.7636,-2.4839,0.0,0.0,0.0,0.0,0.0,0.0,0.0,0.0,0.0,0.0,0.0,0.0,0.0,0.0,0.0,0.0,0.0,0.0,0.0,0.0,0.0,0.0,0.0,0.0,0.0,0.0,0.0,0.0,0.0,0.0,0.0,0.0,0.0,0.0,0.0,0.0,0.0,0.0,-2.8329,-2.841,0.0,0.0,0.0,0.0,-2.9285,-2.9862,-2.9971,-2.9407,-2.9971,-3.0853,-3.2042,-3.2083,-3.2901,-3.4639,-3.4666,-3.4978,-3.5628,-3.5628,-3.594,-3.6537,-3.7052,-3.7634,-3.8206,-3.7567,-3.697,-3.6334,-3.4545,-3.3512,-3.3006,-3.3047,-3.2368,-3.1477,-3.2612,-3.2653,-3.2291,0.0,0.0,0.0,-1.2505,-1.2862,-1.3226,-1.3463,-1.4648,-1.5757,-1.6486,-1.9219,-2.1584,-2.2802,-2.5104,-2.686,-2.7576,-2.7907,-2.7901,-2.7467,-2.7273,-2.719,-2.719,-2.6883,-2.7004,-2.7636,-2.8119,-2.894,-3.0101,-3.1074,-3.1675,-3.1928,-3.2345,-3.2566,-3.2534,-3.2092,-3.1912,-3.1801,-3.0157,-2.9461,-2.9264,-2.7367,-2.5234,0.0,0.0,0.0,0.0,0.0,0.0,0.0,0.0,0.0,0.0,0.0,0.0,0.0,0.0,0.0,0.0,0.0,0.0,0.0,0.0,0.0,0.0,0.0,0.0,0.0,0.0,0.0,0.0,0.0,0.0,0.0,0.0,0.0,0.0,0.0,0.0,0.0,-2.8478,-2.8926,0.0,-3.0323,-3.0215,-3.0079,-3.0079,-3.0988,-3.145,-3.1254,-3.2155,-3.285,-3.3271,-3.3688,-3.438,-3.5358,-3.5778,-3.628,-3.6848,-3.6848,-3.7147,-3.7786,-3.8003,-3.8423,-3.8952,-3.8355,-3.7975,-3.7691,-3.6632,-3.5412,-3.4231,-3.4624,-3.4516,-3.419,-3.4611,-3.4869,-3.5031,0.0,0.0,0.0,-1.2532,-1.3072,-1.3573,-1.3826,-1.5425,-1.6968,-1.8017,-2.0943,-2.3506,-2.5061,-2.7388,-2.9043,-2.9563,-3.0106,-3.0022,-2.9103,-2.9028,-2.8889,-2.865,-2.8082,-2.8404,-2.9777,-2.9588,-3.0164,-3.1571,-3.2307,-3.275,-3.2987,-3.3672,-3.4004,-3.3988,-3.3541,-3.3209,-3.2908,-3.1754,-3.0954,-3.0433,-2.9264,-2.7541,-2.5577,0.0,0.0,0.0,0.0,0.0,0.0,0.0,0.0,0.0,0.0,0.0,0.0,0.0,0.0,0.0,0.0,0.0,0.0,0.0,0.0,0.0,0.0,0.0,0.0,0.0,0.0,0.0,0.0,0.0,0.0,0.0,0.0,0.0,0.0,-2.7056,-2.7786,-2.8763,-2.9428,-3.0188,-3.1205,-3.1124,-3.1178,-3.1536,-3.2521,-3.2983,-3.2779,-3.3867,-3.4504,-3.4504,-3.5073,-3.5683,-3.632,-3.7121,-3.7718,-3.8095,-3.8502,-3.8908,-3.9332,-3.9536,-3.9848,-4.0187,-3.9794,-3.9673,-3.9736,-3.9118,-3.827,-3.7211,-3.6566,-3.6334,-3.6334,-3.6334,-3.677,-3.7277,0.0,0.0,-1.2601,-1.2601,-1.3124,-1.3779,-1.4537,-1.5817,-1.7781,-2.0862,-2.3062,-2.5223,-2.7551,-2.9626,-3.0593,-2.9858,-3.0881,-3.095,-2.9557,-2.9934,-2.9903,-2.9209,-2.9193,-2.9825,-3.1167,-3.0575,-3.0947,-3.2323,-3.2993,-3.3672,-3.4336,-3.5063,-3.5394,-3.5394,-3.5394,-3.4984,-3.4273,-3.3625,-3.2534,-3.1223,-3.0496,-2.9769,-2.8877,0.0,0.0,0.0,0.0,0.0,0.0,0.0,0.0,0.0,0.0,0.0,0.0,0.0,0.0,0.0,0.0,0.0,0.0,0.0,0.0,0.0,0.0,0.0,0.0,0.0,0.0,0.0,0.0,0.0,0.0,0.0,0.0,0.0,-2.9392,-2.9041,-2.8891,-2.9549,-3.0127,-3.1151,-3.2989,-3.2612,-3.2711,-3.3826,-3.4477,-3.4572,-3.4002,-3.5087,-3.5778,-3.5778,-3.6347,-3.6958,-3.754,-3.8735,-3.9346,-3.9373,-4.0553,-4.1123,-4.1137,-4.1734,-4.2005,-4.2005,-4.2052,-4.2246,-4.2503,-4.19,-4.191,-4.1971,-3.8838,-3.7597,-3.7597,-3.757,-3.8117,-3.8873,-1.2495,-1.2565,-1.2522,-1.2522,-1.3515,-1.4695,-1.5867,-1.7348,-1.9375,-2.2258,-2.4162,-2.5902,-2.762,-2.9189,-2.9954,-2.9605,-3.0026,-2.9826,-2.8772,-2.9786,-3.0482,-3.0638,-3.1128,-3.1349,-3.1198,-3.1523,-3.2149,-3.3024,-3.3688,-3.4383,-3.5094,-3.53,-3.5394,-3.5394,-3.5394,-3.5284,-3.5047,-3.432,-3.3514,-3.2629,-3.1413,-3.0188,-2.9098,0.0,0.0,0.0,0.0,0.0,0.0,0.0,0.0,0.0,0.0,0.0,0.0,0.0,0.0,0.0,0.0,0.0,0.0,0.0,0.0,0.0,0.0,0.0,0.0,0.0,0.0,0.0,0.0,0.0,0.0,0.0,-2.8822,-2.9524,-2.8969,-2.9104,-3.0035,-3.2089,-3.1962,-3.2463,-3.4437,-3.3916,-3.3555,-3.388,-3.4856,-3.5358,-3.5195,-3.6333,-3.6997,-3.6997,-3.7609,-3.8206,-3.8817,-3.9563,-4.0173,-4.0621,-4.096,-4.1123,-4.1137,-4.1734,-4.2005,-4.2052,-4.2703,-4.3086,-4.3181,-4.3313,-4.3429,-4.3265,-4.1056,-4.0177,-4.012,-3.9636,-3.9912,-4.0519,-1.2217,-1.2396,-1.2647,-1.2939,-1.389,-1.5058,-1.6404,-1.7978,-2.0267,-2.3781,-2.5028,-2.6529,-2.9011,-2.9968,-3.026,-2.9836,-3.0085,-2.9911,-2.9032,-2.9856,-3.0625,-3.1191,-3.1602,-3.1902,-3.2092,-3.2487,-3.3209,-3.4178,-3.4857,-3.541,-3.5837,-3.6137,-3.6263,-3.6263,-3.6263,-3.6105,-3.5789,-3.5363,-3.4794,-3.4051,-3.2661,-3.1428,-3.0417,-3.0243,-2.9461,-2.8363,-2.8158,-2.7668,-2.7036,-2.6609,0.0,0.0,0.0,0.0,0.0,0.0,0.0,0.0,0.0,0.0,0.0,0.0,0.0,0.0,0.0,0.0,0.0,0.0,0.0,0.0,0.0,0.0,0.0,0.0,-3.0439,-3.0993,-3.1012,-3.1335,-3.1878,-3.2806,-3.3245,-3.385,-3.4917,-3.4569,-3.4382,-3.4639,-3.556,-3.609,-3.609,-3.7473,-3.8447,-3.8847,-3.9674,-4.0294,-4.0639,-4.1245,-4.1512,-4.1489,-4.1734,-4.1856,-4.1869,-4.2222,-4.2371,-4.2419,-4.3389,-4.3778,-4.3842,-4.4909,-4.5328,-4.5123,0.0,0.0,0.0,0.0,-4.1726,-4.159,-1.2169,-1.2417,-1.2983,-1.371,-1.4285,-1.513,-1.6636,-1.8115,-2.0681,-2.5245,-2.5707,-2.7062,-3.08,-3.1194,-3.091,-3.0195,-3.0607,-3.0635,-3.0041,-3.0145,-3.0552,-3.1327,-3.1413,-3.206,-3.3388,-3.3419,-3.4099,-3.5505,-3.6093,-3.644,-3.6535,-3.718,-3.751,-3.751,-3.751,-3.7133,-3.6519,-3.644,-3.6045,-3.5394,-3.4067,-3.3087,-3.226,-3.0852,-3.0362,-3.0267,-2.9034,-2.8189,-2.7683,-2.7683,0.0,0.0,0.0,0.0,0.0,0.0,0.0,0.0,0.0,0.0,0.0,0.0,0.0,0.0,0.0,0.0,0.0,0.0,0.0,0.0,0.0,0.0,0.0,0.0,-3.1826,-3.2604,-3.418,-3.4737,-3.4441,-3.2949,-3.4255,-3.526,-3.5169,-3.508,-3.5326,-3.6032,-3.6566,-3.6921,-3.7113,-3.8585,0.0,0.0,0.0,-4.2622,-4.2763,-4.3209,-4.3041,-4.2242,-4.2677,-4.2887,-4.2887,-4.3018,-4.3067,-4.3115,-4.4186,-4.4624,-4.4762,-4.6608,-4.7377,-4.7156,-4.5193,-4.4292,-4.4187,-4.44,-4.3515,-4.2386,-1.4011,-1.3838,-1.3935,-1.4626,-1.475,-1.5603,-1.8159,-1.8979,-2.1103,-2.6108,-2.6167,-2.7008,-3.0306,-3.0509,-3.0272,-2.9913,-3.0512,-3.1013,-3.1245,-3.0593,-3.0854,-3.2348,-3.2726,-3.3277,-3.4083,-3.4099,-3.4794,-3.6203,-3.6329,-3.6706,-3.7275,-3.7447,-3.751,-3.751,-3.751,-3.7431,-3.7243,-3.6629,-3.6329,-3.6124,-3.5315,-3.4225,-3.2945,-3.1555,-3.1365,-3.1849,-3.158,-3.1406,-3.1295,-3.1295,-3.0133,-2.8783,-2.9232,-2.8047,0.0,0.0,0.0,0.0,0.0,0.0,0.0,0.0,0.0,0.0,0.0,0.0,0.0,0.0,0.0,0.0,0.0,0.0,0.0,-3.1521,-3.3789,-3.5267,-3.4503,-3.6761,-3.7951,-3.6425,-3.598,-3.6264,-3.7381,-3.6894,-3.7046,-3.8408,-3.8404,-3.8846,-4.0156,-4.0308,-4.1014,-4.252,-4.278,-4.3401,-4.4427,-4.3738,-4.356,-4.3878,-4.3191,0.0,-4.2935,-4.3681,-4.4045,-4.4139,-4.5884,-4.6652,-4.674,-4.7861,-4.8355,-4.8221,-4.7287,-4.6229,-4.5309,-4.5345,-4.4832,-4.4135,-1.5833,-1.5286,-1.4951,-1.5624,-1.5698,-1.6308,-1.8254,-1.9023,-2.0889,-2.5108,-2.5428,-2.6442,-2.9469,-2.9799,-2.9842,-2.993,-3.0535,-3.1033,-3.138,-3.0736,-3.1133,-3.2924,-3.3198,-3.3783,-3.4826,-3.5173,-3.5884,-3.6959,-3.6959,-3.7133,-3.751,-3.751,-3.751,-3.751,-3.751,-3.751,-3.7478,-3.7101,-3.6959,-3.6864,-3.5805,-3.4968,-3.4194,-3.2787,-3.2266,-3.2244,-3.1896,-3.1744,-3.1744,-3.1744,-3.1049,-3.0156,-3.018,-2.9492,-2.8426,0.0,0.0,0.0,0.0,0.0,0.0,0.0,0.0,0.0,0.0,0.0,0.0,0.0,0.0,-3.1012,-3.1351,0.0,-3.3573,-3.3938,-3.5416,-3.6609,-3.6914,-3.8412,-3.8933,-3.7375,-3.747,-3.7789,-3.8072,-3.8078,-3.8371,-3.915,-3.9618,-4.0383,-4.152,-4.2006,-4.2997,-4.4588,-4.4927,-4.5399,-4.6048,-4.5551,-4.5221,-4.5052,-4.4559,-4.434,-4.4387,-4.4823,-4.5038,-4.513,-4.6564,-4.6929,-4.6579,-4.7505,-4.8172,-4.8573,-4.8235,-4.7496,-4.6557,-4.6219,-4.5664,-4.5033,-1.7168,-1.6636,-1.6227,-1.6707,-1.6648,-1.6937,-1.8073,-1.8966,-2.0601,-2.3675,-2.442,-2.5643,-2.8237,-2.8936,-2.9428,-2.9983,-3.0427,-3.0824,-3.1125,-3.0927,-3.1478,-3.2974,-3.3382,-3.4074,-3.5157,-3.5995,-3.6769,-3.751,-3.751,-3.751,-3.751,-3.751,-3.751,-3.751,-3.751,-3.751,-3.751,-3.751,-3.751,-3.7399,-3.6105,-3.5505,-3.5252,-3.3972,-3.3072,-3.2418,-3.1823,-3.1523,-3.1397,-3.1255,-3.1103,-3.0939,-3.0512,-3.0385,-3.0164,-2.9027,-2.8695,0.0,0.0,0.0,0.0,0.0,0.0,0.0,0.0,-3.09,-3.0865,-3.1823,-3.2473,-3.29,-3.2967,-3.4058,-3.529,-3.6492,-3.6907,-3.7646,-3.9259,-3.9598,-3.9234,-3.7999,-3.8689,-3.9096,-3.8589,-3.9086,-3.9601,-4.0026,-4.0974,-4.1913,-4.2762,-4.3661,-4.4898,-4.6512,-4.7039,-4.7327,-4.7463,-4.7291,-4.6842,-4.6092,-4.5869,-4.5779,-4.5824,-4.6003,-4.6092,-4.6137,-4.706,-4.7016,-4.6403,-4.7161,-4.7904,-4.862,-4.862,-4.8281,-4.7711,-4.7034,-4.628,-4.5511,-1.7168,-1.778,-1.8084,-1.7868,-1.7184,-1.7162,-1.8598,-1.94,-2.0676,-2.3024,-2.3767,-2.4712,-2.6349,-2.7711,-2.8876,-2.9762,-2.9874,-3.0208,-3.0891,-3.1512,-3.1925,-3.2143,-3.3697,-3.4515,-3.4399,-3.5726,-3.6769,-3.751,-3.751,-3.751,-3.751,-3.751,-3.751,-3.751,-3.751,-3.751,-3.751,-3.751,-3.751,-3.7431,-3.6627,-3.5947,-3.53,-3.4494,-3.3767,-3.3182,-3.3087,-3.2677,-3.2086,-3.1428,-3.0796,-3.041,-3.0923,-3.1097,-3.1065,-3.0882,-3.0835,-3.0433,-2.841,-2.8363,-2.9147,-3.0349,-3.1181,-3.1862,0.0,-3.3053,-3.3446,-3.3463,-3.3981,-3.4589,-3.5059,-3.5753,-3.6507,-3.7261,-3.84,-3.9262,-3.9493,-3.9997,-4.0297,-4.0159,-3.9647,-3.9523,-4.0099,-4.0218,-4.1054,-4.2974,-4.3072,-4.3702,-4.5146,-4.5182,-4.5834,-4.741,-4.7502,-4.784,-4.8438,-4.7634,-4.7161,-4.7016,-4.6181,-4.5779,-4.5824,-4.6667,-4.7016,-4.7118,-4.8046,-4.8396,-4.8297,-4.8396,-4.8537,-4.862,-4.862,-4.8558,-4.8419,-4.7742,-4.668,-4.5572,-1.7168,-1.7949,-1.8455,-1.8328,-1.7989,-1.7897,-1.8312,-1.8983,-1.9803,-2.0858,-2.163,-2.2596,-2.3967,-2.6531,-2.8329,-2.8722,-2.9794,-3.0386,-3.0273,-3.0959,-3.1737,-3.2562,-3.3304,-3.3979,-3.4531,-3.5109,-3.5693,-3.6263,-3.6861,-3.7038,-3.6864,-3.7465,-3.7655,-3.751,-3.751,-3.751,-3.7478,-3.7038,-3.6864,-3.6769,-3.5631,-3.4999,-3.4636,-3.3556,-3.2971,-3.2718,-3.2718,-3.2276,0.0,-3.1293,-3.1018,-3.0828,-3.1103,-3.1198,-3.1103,-3.0733,-3.0891,-3.1112,-3.0678,-3.0757,-3.1167,-3.211,-3.2851,-3.3365,-3.356,-3.4144,-3.4588,-3.4317,-3.5127,-3.5904,-3.6045,-3.6953,-3.7892,-3.8554,-3.9121,-3.9628,-4.0013,-4.032,-4.0659,-4.1109,-4.0842,-4.0771,-4.106,-4.1812,-4.2814,-4.4079,-4.4465,-4.5266,-4.6711,-4.6681,-4.7099,-4.8173,-4.8189,-4.8327,-4.862,-4.8214,-4.7988,-4.7988,-4.7634,-4.742,-4.7463,-4.7819,-4.7988,-4.8046,-4.8438,-4.862,-4.862,-4.862,-4.862,-4.862,-4.862,-4.862,-4.8543,-4.785,-4.7004,-4.6126,-1.7168,-1.7949,-1.8495,-1.8495,-1.8495,-1.8426,-1.817,-1.8719,-1.9222,-1.9352,-2.002,-2.105,-2.2521,-2.5196,-2.6866,-2.6831,-2.9065,-2.9973,-2.8804,-3.0206,-3.1427,-3.2203,-3.2975,-3.3678,-3.422,-3.475,-3.5159,-3.5518,-3.6166,-3.6365,-3.6153,-3.6858,-3.7112,-3.6941,-3.6941,-3.6941,-3.6893,-3.6358,-3.6108,-3.5982,-3.4589,-3.402,-3.3893,-3.2734,-3.2165,-3.2023,-3.2228,-3.1959,-3.1507,-3.1507,-3.1381,-3.1255,-3.1444,-3.1365,-3.116,-3.0868,-3.1112,-3.1697,-3.2608,-3.2845,-3.2971,-3.3451,-3.4072,-3.4549,-3.4467,-3.4989,-3.5423,-3.5147,-3.6148,-3.7095,-3.7157,-3.8097,-3.9082,-3.9745,-3.9868,-4.0004,-4.0462,-4.0674,-4.1016,-4.154,-4.1925,-4.2217,-4.2402,-4.3162,-4.3963,-4.4825,-4.548,-4.6372,-4.7542,-4.7788,-4.8112,-4.8604,-4.862,-4.862,-4.862,-4.862,-4.862,-4.862,-4.862,-4.862,-4.862,-4.862,-4.862,-4.862,-4.862,-4.862,-4.862,-4.862,-4.862,-4.862,-4.862,-4.862,-4.8558,-4.8065,-4.7342,-4.6526,-1.7168,-1.7949,-1.8495,-1.8495,-1.8495,-1.8495,-1.8485,-1.8948,-1.9302,-1.9297,-1.9661,-2.0679,-2.2674,-2.3636,-2.4034,-2.385,-2.7264,-2.8454,-2.6178,-2.9506,-3.1193,-3.032,-3.2959,-3.3999,-3.3072,-3.4824,-3.5762,-3.5794,-3.5578,-3.5454,-3.5426,-3.547,-3.5486,-3.5458,-3.5458,-3.5458,-3.5442,-3.5426,-3.5426,-3.53,-3.3893,-3.3324,-3.3245,-3.256,-3.1864,-3.1334,-3.2054,-3.2276,-3.226,-3.226,-3.1776,-3.1334,-3.2054,-3.1776,-3.1349,-3.2038,-3.2244,-3.256,-3.3862,-3.4225,-3.4225,-3.4257,-3.4699,-3.521,-3.5335,-3.5799,-3.6171,-3.6173,-3.7122,-3.8169,-3.8792,-3.9363,-3.9977,-4.0659,-4.0768,-4.0699,-4.0524,-4.1124,-4.1571,-4.1601,-4.2761,-4.3809,-4.4471,-4.3978,-4.4163,-4.5464,-4.6188,-4.6865,-4.7573,-4.8235,-4.8589,-4.862,-4.862,-4.862,-4.862,-4.862,-4.862,-4.862,-4.862,-4.862,-4.862,-4.862,-4.862,-4.862,-4.862,-4.862,-4.862,-4.862,-4.862,-4.862,-4.862,-4.862,-4.862,-4.8589,-4.7742,-4.6603,-1.651,-1.7607,-1.8495,-1.8495,-1.8495,-1.8495,-1.8495,-1.8646,-1.8711,-1.8596,-1.8915,0.0,0.0,0.0,0.0,0.0,-2.5086,-2.6451,-2.679,-2.8774,-3.0305,-3.1094,-3.2061,-3.2557,-3.2539,-3.2682,-3.2837,-3.3013,-3.3588,-3.37,-3.3367,-3.4473,-3.4636,-3.4036,-3.4462,-3.4415,-3.3972,-3.3541,-3.3335,-3.3272,-3.2297,-3.2203,-3.2671,-3.2892,-3.2519,-3.2086,0.0,-3.2724,-3.1634,-3.2133,-3.2133,-3.2054,-3.2724,-3.2787,-3.2645,-3.2882,-3.2945,-3.3151,-3.4051,-3.4288,-3.4415,-3.4905,-3.5524,-3.6017,-3.6045,-3.6582,-3.7013,-3.6894,-3.7918,-3.8889,-3.8965,-3.9897,-4.0686,-4.0802,-4.0799,-4.09,-4.1205,-4.1447,-4.1925,-4.2802,-4.3331,-4.4055,-4.518,-4.5049,-4.5464,-4.6819,-4.7142,-4.7558,-4.8235,-4.8496,-4.862,-4.862,-4.862,-4.862,-4.862,-4.862,-4.862,-4.862,-4.862,-4.862,-4.862,-4.862,-4.862,-4.862,-4.862,-4.862,-4.862,-4.862,-4.862,-4.862,-4.862,-4.862,-4.862,-4.862,-4.7758,-4.6603,-1.6598,-1.7625,-1.8495,-1.8495,-1.8495,0.0,0.0,0.0,0.0,0.0,0.0,0.0,0.0,0.0,0.0,0.0,0.0,-2.4807,-2.5674,-2.7448,-2.9061,-3.039,-3.0936,-3.1483,-3.2038,-3.1745,-3.1801,-3.2248,-3.2538,-3.2595,-3.246,-3.3265,-3.3252,-3.2582,-3.3008,-3.2961,-3.2519,-3.2076,-3.2212,-3.256,-3.1334,-3.1413,-3.2291,-3.2228,-3.1928,0.0,-3.2787,-3.2503,-3.1697,-3.2434,-3.2497,-3.2418,-3.3087,-3.3309,-3.3356,-3.3593,-3.3846,-3.413,-3.4573,-3.5047,-3.5473,-3.5695,-3.6279,-3.6801,-3.6801,-3.7148,-3.7464,-3.7329,-3.8355,-3.9266,-3.9187,-4.0078,-4.095,-4.1299,-4.1158,-4.1261,-4.2065,-4.2314,-4.2741,-4.359,-4.3861,-4.4502,-4.5818,-4.5957,-4.6403,-4.7527,-4.7604,-4.7896,-4.8573,-4.862,-4.862,-4.862,-4.862,-4.862,-4.862,-4.862,-4.862,-4.862,-4.862,-4.862,-4.862,-4.862,-4.862,-4.862,-4.862,-4.862,-4.862,-4.862,-4.862,-4.862,-4.862,-4.862,-4.862,-4.862,-4.7758,-4.6603,-1.7299,-1.7949,-1.8495,0.0,0.0,0.0,0.0,0.0,0.0,0.0,0.0,0.0,0.0,0.0,0.0,0.0,0.0,0.0,-2.294,-2.5558,-2.7481,-2.8243,-2.9582,-3.0621,-3.1366,-3.1808,-3.2417,-3.3186,-3.2227,-3.2039,-3.2552,-3.187,-3.1405,-3.1137,-3.1144,-3.1144,-3.1097,-3.1112,-3.1871,-3.2914,-3.0916,-3.0916,-3.1991,-3.0694,-3.0188,-3.0251,-3.0954,-3.1602,-3.2244,-3.2945,-3.2771,-3.2418,-3.3119,-3.3356,-3.3482,-3.4194,-3.4873,-3.541,-3.5473,-3.6453,-3.7275,-3.6614,-3.6975,-3.7494,-3.7462,-3.7478,-3.7494,-3.7462,-3.8416,-3.9314,-3.9471,-3.9944,-4.0742,-4.2124,-4.1778,-4.1742,-4.2962,-4.3526,-4.3867,-4.3861,-4.4331,-4.5141,-4.6465,-4.6619,-4.6927,-4.7604,-4.765,-4.7942,-4.8573,-4.862,-4.862,-4.862,-4.862,-4.862,-4.862,-4.862,-4.862,-4.862,-4.862,-4.862,-4.862,-4.862,-4.862,-4.862,-4.862,-4.862,-4.862,-4.862,-4.862,-4.862,-4.862,-4.862,-4.862,-4.862,-4.7773,-4.665,0.0,0.0,0.0,0.0,0.0,0.0,0.0,0.0,0.0,0.0,0.0,0.0,0.0,0.0,0.0,0.0,0.0,0.0,-2.2807,-2.4116,-2.5425,-2.67,-2.7096,-2.7644,-2.8376,-2.8516,-2.9107,-3.0205,-2.9945,-3.0071,-3.0545,-3.0909,-3.0735,-3.0174,-3.0535,-3.0393,-2.9922,-2.9729,-2.984,-3.0077,-2.9042,-2.9153,-2.9943,-3.0141,-2.9848,-2.9525,-3.0756,-3.0646,-3.0093,-3.1334,-3.1981,-3.2497,-3.3699,-3.4036,-3.4273,-3.5521,-3.5647,-3.5616,-3.6688,-3.6832,-3.6785,-3.7117,-3.7368,-3.7368,-3.6817,-3.7101,-3.7322,-3.6801,-3.7752,-3.8872,-3.9408,-4.0071,-4.078,-4.1464,-4.14,-4.1502,-4.2066,-4.2709,-4.3221,-4.3636,-4.4656,-4.5664,-4.6511,-4.705,-4.7635,-4.8312,-4.8358,-4.8435,-4.8604,-4.862,-4.862,-4.862,-4.862,-4.862,-4.862,-4.862,-4.862,-4.862,-4.862,-4.862,-4.862,-4.862,-4.862,-4.862,-4.862,-4.862,-4.862,-4.862,-4.862,-4.862,-4.862,-4.862,-4.862,-4.862,-4.8081,-4.7357,0.0,0.0,0.0,0.0,0.0,0.0,0.0,0.0,0.0,0.0,0.0,0.0,0.0,0.0,0.0,0.0,0.0,0.0,0.0,-2.2627,-2.3681,-2.483,-2.5725,-2.6551,-2.7265,-2.7613,-2.8119,-2.879,-2.879,-2.8886,-2.9035,-2.9436,-2.9356,-2.8898,-2.915,-2.9052,-2.8705,-2.8552,-2.8771,0.0,0.0,-2.8326,-2.9051,-2.8553,-2.83,-2.8277,-2.8758,-2.8988,-2.9367,-3.1097,-3.1959,-3.2481,-3.3514,-3.4051,-3.4446,-3.5252,-3.5868,-3.6406,-3.6896,-3.6959,-3.6975,-3.7415,-3.751,-3.7399,-3.6975,-3.7196,-3.7275,-3.6535,-3.7291,-3.827,-3.895,-3.9155,-3.9819,-4.1629,-4.1628,-4.1669,-4.2396,-4.3359,-4.3956,-4.3867,-4.5038,-4.6121,-4.6803,-4.7499,-4.8196,-4.8862,-4.8744,-4.862,-4.862,-4.862,-4.862,-4.862,-4.862,-4.862,-4.862,-4.862,-4.862,-4.862,-4.862,-4.862,-4.862,-4.862,-4.862,-4.862,-4.862,-4.862,-4.862,-4.862,-4.862,-4.862,-4.862,-4.862,-4.862,-4.862,-4.8189,-4.7604,0.0,0.0,0.0,0.0,0.0,0.0,0.0,0.0,0.0,-2.1533,-2.1112,-2.055,-1.9917,-1.9691,0.0,0.0,0.0,0.0,0.0,0.0,-2.2135,-2.2771,-2.4463,-2.5793,-2.6589,-2.7236,-2.7732,-2.8111,-2.8111,-2.8048,-2.7919,-2.8001,-2.7898,-2.7648,-2.7705,-2.7737,-2.7737,-2.7595,-2.8115,-2.8904,-2.7513,-2.7561,-2.8243,0.0,-2.6013,-2.6483,-2.6024,-2.7251,-2.9398,-3.1374,-3.2149,-3.2418,-3.3087,-3.3751,-3.4304,-3.4415,-3.5849,-3.7227,-3.6677,-3.7006,-3.751,-3.751,-3.7431,-3.7338,-3.7338,-3.7304,-3.7038,-3.6393,-3.6785,-3.7447,-3.8112,-3.7828,-3.8538,-4.1636,-4.1746,-4.1838,-4.2975,-4.4338,-4.5003,-4.4414,-4.5516,-4.6608,-4.7294,-4.8012,-4.8667,-4.9269,-4.8908,-4.8661,-4.8661,-4.862,-4.862,-4.862,-4.862,-4.862,-4.862,-4.862,-4.862,-4.862,-4.862,-4.862,-4.862,-4.862,-4.862,-4.862,-4.862,-4.862,-4.862,-4.862,-4.862,-4.862,-4.862,-4.862,-4.862,-4.862,-4.825,-4.7742,0.0,0.0,0.0,0.0,0.0,0.0,0.0,0.0,0.0,0.0,-2.2798,-2.0743,0.0,0.0,0.0,0.0,0.0,0.0,0.0,0.0,0.0,-2.0722,-2.1044,-2.1798,-2.2971,-2.3138,-2.4313,-2.6566,-2.6566,-2.6864,-2.7425,-2.8053,-2.7984,-2.7401,-2.7784,-2.7951,-2.7878,-2.6949,-2.6752,-2.6949,-2.5381,-2.4869,-2.4942,-2.3968,0.0,0.0,-2.4796,-2.6862,-2.9256,-3.0212,-3.1343,-3.2418,-3.3087,-3.3751,-3.4415,-3.5015,-3.5868,-3.6706,-3.718,-3.7415,-3.751,-3.751,-3.7038,-3.6582,-3.6582,-3.6169,-3.5726,-3.56,-3.5663,-3.5963,-3.6629,-3.7164,-3.7859,-3.9044,-4.0103,-4.0986,-4.1574,-4.2877,-4.4078,-4.4913,-4.6202,-4.7325,-4.8043,-4.8714,-4.9191,-4.93,-4.9047,-4.8955,-4.8955,-4.8718,-4.862,-4.862,-4.862,-4.862,-4.862,-4.862,-4.862,-4.862,-4.862,-4.862,-4.862,-4.862,-4.862,-4.862,-4.862,-4.862,-4.862,-4.862,-4.862,-4.862,-4.862,-4.862,-4.862,-4.862,-4.8543,-4.8435,0.0,0.0,0.0,0.0,0.0,0.0,0.0,-2.5208,-2.6037,-2.9211,-2.7631,-2.545,-2.3413,-2.247,-2.133,0.0,0.0,0.0,0.0,0.0,0.0,0.0,0.0,0.0,-2.1623,-2.2015,-2.2666,-2.3603,0.0,-2.4046,-2.4046,-2.468,-2.4779,-2.4448,-2.466,-2.4774,-2.4757,-2.4541,-2.4523,-2.4634,-2.4167,-2.3967,-2.3851,0.0,0.0,0.0,-2.4479,-2.6702,-2.9064,-2.9911,-3.1038,-3.2237,-3.3039,-3.3751,-3.4431,-3.5173,-3.6137,-3.7054,-3.7415,-3.751,-3.7415,-3.7022,-3.6959,-3.6785,-3.6058,-3.611,-3.6043,-3.5051,-3.5056,-3.5372,-3.5814,-3.5853,-3.6406,-3.8223,-3.9076,-3.9819,-4.0681,-4.2399,-4.3752,-4.4199,-4.6231,-4.7697,-4.8043,-4.9001,-4.9597,-4.9597,-4.9331,-4.9103,-4.8996,-4.8759,-4.862,-4.862,-4.862,-4.862,-4.862,-4.862,-4.862,-4.862,-4.862,-4.862,-4.862,-4.862,-4.862,-4.862,-4.862,-4.862,-4.862,-4.862,-4.862,-4.862,-4.862,-4.862,-4.862,-4.862,-4.862,-4.862,0.0,0.0,0.0,0.0,0.0,0.0,0.0,-2.7912,-2.8739,-3.2616,-3.2441,-3.072,-2.749,-2.5314,-2.3019,0.0,0.0,0.0,0.0,0.0,0.0,0.0,0.0,0.0,-2.0786,0.0,0.0,-2.1198,-2.1663,0.0,0.0,0.0,0.0,0.0,-2.1744,-2.1812,-2.1831,-2.2078,-2.2403,0.0,0.0,-2.3209,-2.3292,0.0,0.0,0.0,0.0,-2.6643,-2.8935,-2.9818,-3.0909,-3.2023,-3.2768,-3.3483,-3.4268,-3.5249,-3.6349,-3.7291,-3.7462,-3.737,-3.7148,-3.6753,-3.6722,-3.6637,-3.5943,-3.616,-3.612,-3.4675,-3.4533,-3.4668,-3.4643,-3.4338,-3.4857,-3.7227,-3.8002,-3.8762,-4.0163,-4.2169,-4.3592,-4.3859,-4.6287,-4.7956,-4.8098,-4.9205,-4.9876,-4.9876,-4.9517,-4.921,-4.8939,-4.8718,-4.862,-4.862,-4.862,-4.862,-4.862,-4.862,-4.862,-4.862,-4.862,-4.862,-4.862,-4.862,-4.862,-4.862,-4.862,-4.862,-4.862,-4.862,-4.862,-4.862,-4.862,-4.862,-4.862,-4.862,-4.862,-4.862,0.0,0.0,0.0,0.0,0.0,0.0,0.0,-2.893,-3.1143,-3.4985,-3.4846,-3.3969,-3.288,-2.9474,-2.5788,0.0,0.0,0.0,0.0,0.0,0.0,0.0,0.0,0.0,0.0,0.0,0.0,-2.1198,-2.127,0.0,0.0,0.0,0.0,0.0,0.0,-2.1812,-2.1748,-2.0889,0.0,0.0,0.0,0.0,0.0,0.0,0.0,0.0,0.0,-2.6643,-2.8913,-2.9588,-3.0768,-3.1916,-3.1998,-3.2652,-3.3747,-3.5519,-3.625,-3.6629,-3.7336,-3.7006,-3.6629,-3.7243,-3.5979,-3.5011,-3.6656,-3.5667,-3.4444,-3.4619,-3.3884,-3.3,-3.2337,-3.2857,-3.3672,-3.4541,-3.6311,-3.8286,-4.0277,-4.1857,-4.3485,-4.536,-4.6961,-4.813,-4.8731,-4.9473,-4.9876,-4.9876,-4.9517,-4.9113,-4.8661,-4.862,-4.862,-4.862,-4.862,-4.862,-4.862,-4.862,-4.862,-4.862,-4.862,-4.862,-4.862,-4.862,-4.862,-4.862,-4.862,-4.862,-4.862,-4.862,-4.862,-4.862,-4.862,-4.862,-4.862,-4.862,-4.862,-4.862,0.0,0.0,0.0,0.0,0.0,0.0,-2.8893,-2.9141,-3.0703,-3.6443,-3.6127,-3.4898,-3.3635,-3.1703,-2.8596,-2.3799,0.0,0.0,0.0,0.0,0.0,0.0,0.0,0.0,0.0,0.0,-1.9787,-2.0304,-2.0625,0.0,0.0,0.0,0.0,0.0,0.0,-1.9926,-1.9521,-1.9682,0.0,0.0,0.0,0.0,0.0,0.0,0.0,0.0,0.0,0.0,-2.7988,-2.89,-3.0177,-3.1639,-3.2995,-3.3169,-3.3097,-3.412,-3.5283,-3.6281,-3.6598,-3.6234,-3.5843,-3.6002,-3.57,-3.5369,-3.5334,-3.512,-3.4655,-3.3588,-3.2934,-3.2227,-3.1339,-3.1839,-3.2672,-3.3567,-3.5126,-3.7085,-3.9582,-4.1146,-4.2805,-4.4907,-4.6771,-4.8004,-4.8272,-4.9284,-4.9836,-4.9717,-4.9557,-4.9275,-4.8857,-4.8702,-4.862,-4.862,-4.862,-4.862,-4.862,-4.862,-4.862,-4.862,-4.862,-4.862,-4.862,-4.862,-4.862,-4.862,-4.862,-4.862,-4.862,-4.862,-4.862,-4.862,-4.862,-4.862,-4.862,-4.862,-4.862,-4.862,0.0,0.0,0.0,0.0,0.0,-2.2957,-2.9209,-2.9351,-3.0756,-3.6355,-3.6549,-3.5653,-3.4319,-3.2493,-2.9825,-2.5995,-2.2903,0.0,0.0,0.0,0.0,0.0,0.0,0.0,0.0,0.0,-1.9802,-2.004,-2.0393,-2.0581,0.0,0.0,-2.0285,-1.9522,0.0,0.0,0.0,0.0,0.0,0.0,0.0,0.0,0.0,0.0,0.0,0.0,0.0,0.0,0.0,0.0,0.0,-3.1086,-3.2861,-3.3004,-3.2746,-3.3925,-3.4952,-3.5802,-3.6292,-3.5991,-3.5562,-3.5689,-3.5717,-3.5515,-3.4693,-3.4688,-3.4358,-3.2634,-3.1903,-3.1338,-3.0614,-3.1037,-3.1847,-3.2997,-3.4444,-3.6216,-3.857,-4.0277,-4.1999,-4.388,-4.5981,-4.7435,-4.7861,-4.9126,-4.9836,-4.9677,-4.9637,-4.9452,-4.9103,-4.8841,-4.8661,-4.862,-4.862,-4.862,-4.862,-4.862,-4.862,-4.862,-4.862,-4.862,-4.862,-4.862,-4.862,-4.862,-4.862,-4.862,-4.862,-4.862,-4.862,-4.862,-4.862,-4.862,-4.862,-4.862,-4.862,-4.862,0.0,0.0,0.0,0.0,0.0,0.0,-2.7048,-2.9685,-3.2019,-3.4407,-3.6059,-3.6671,-3.5845,-3.1686,-2.8912,-2.886,-2.4642,0.0,0.0,0.0,0.0,0.0,0.0,0.0,0.0,0.0,-2.0058,-2.0789,-2.0778,-2.0796,-2.0813,-2.1411,-2.1258,-2.0518,0.0,0.0,0.0,0.0,0.0,0.0,0.0,0.0,0.0,0.0,0.0,0.0,0.0,0.0,0.0,0.0,0.0,0.0,0.0,-3.1681,-3.2865,-3.574,-3.5689,-3.5078,-3.674,-3.6548,-3.61,-3.6951,-3.5985,-3.4944,-3.5385,-3.4356,-3.3015,-3.2034,-3.0865,-3.0019,-3.0019,-3.0387,-3.1177,-3.2676,-3.4308,-3.5913,-3.7336,-3.9297,-4.113,-4.2537,-4.4559,-4.6376,-4.7767,-4.9126,-4.9876,-4.9876,-4.9717,-4.9517,-4.9316,-4.9103,-4.8857,-4.862,-4.862,-4.862,-4.862,-4.862,-4.862,-4.862,-4.862,-4.862,-4.862,-4.862,-4.862,-4.862,-4.862,-4.862,-4.862,-4.862,-4.862,-4.862,-4.862,-4.862,-4.862,-4.862,-4.862,-4.862,0.0,0.0,0.0,0.0,0.0,0.0,0.0,-2.6012,-2.7505,-3.0352,-3.0668,-3.1159,-3.2511,-2.9913,-2.7877,-2.737,-2.3571,0.0,0.0,0.0,0.0,0.0,0.0,0.0,0.0,-2.0725,-2.1902,-2.3197,-2.3711,-2.4471,-2.5507,-2.5711,-2.5092,-2.385,-2.3519,-2.222,0.0,0.0,0.0,0.0,0.0,0.0,-2.2985,0.0,0.0,0.0,0.0,0.0,0.0,0.0,0.0,0.0,0.0,0.0,0.0,-3.4319,-3.4699,-3.4717,-3.5799,-3.5632,-3.5304,-3.5961,-3.5325,-3.4555,-3.471,-3.3478,-3.2044,-3.123,-2.9901,-2.8989,-2.9211,-3.0151,-3.1485,-3.3241,-3.4832,-3.6568,-3.8525,-3.9846,-4.1288,-4.3169,-4.5488,-4.741,-4.8478,-4.9276,-4.9757,-4.9876,-4.9836,-4.9677,-4.9316,-4.925,-4.9006,-4.8604,-4.862,-4.862,-4.862,-4.862,-4.862,-4.862,-4.862,-4.862,-4.862,-4.862,-4.862,-4.862,-4.862,-4.862,-4.862,-4.862,-4.862,-4.862,-4.862,-4.862,-4.862,-4.862,-4.862,-4.862,0.0,0.0,0.0,0.0,0.0,0.0,0.0,-2.3766,-2.4976,-2.6911,-2.7473,-2.8263,-2.972,-2.7821,-2.624,-2.577,-2.2447,0.0,0.0,0.0,0.0,0.0,0.0,0.0,-2.0111,-2.1627,-2.3465,-2.5573,-2.6349,-2.7368,-2.8614,-2.8877,-2.8035,-2.6244,-2.5489,-2.4185,0.0,0.0,0.0,0.0,0.0,0.0,-2.31,0.0,0.0,0.0,0.0,0.0,0.0,0.0,0.0,0.0,0.0,0.0,0.0,0.0,-3.3739,-3.4087,-3.5238,-3.5256,-3.506,-3.5459,-3.4919,-3.4112,-3.355,-3.2368,-3.1093,-3.0041,-2.8851,-2.8319,-2.9379,-3.0349,-3.1655,-3.3712,-3.5193,-3.6686,-3.8347,-3.9507,-4.0972,-4.3074,-4.5903,-4.7734,-4.7968,-4.9048,-4.9717,-4.9757,-4.9852,-4.9757,-4.9437,-4.9396,-4.9194,-4.8759,-4.8661,-4.862,-4.862,-4.862,-4.862,-4.862,-4.862,-4.862,-4.862,-4.862,-4.862,-4.862,-4.862,-4.862,0.0,-4.862,-4.862,-4.862,-4.862,-4.862,-4.862,-4.862,-4.862,-4.862,0.0,0.0,0.0,0.0,0.0,0.0,0.0,-2.2694,-2.4058,-2.4058,-2.5889,-2.7227,-2.728,-2.5345,-2.4058,-2.4058,0.0,0.0,0.0,0.0,0.0,0.0,0.0,0.0,-2.1035,-2.2452,-2.4717,-2.7877,-2.8614,-2.9457,-3.0353,-3.1089,-3.0229,-2.7999,-2.721,-2.6283,0.0,0.0,0.0,0.0,-2.2829,-2.2842,0.0,0.0,0.0,0.0,0.0,0.0,0.0,0.0,0.0,0.0,0.0,0.0,0.0,0.0,0.0,0.0,0.0,-3.522,-3.5318,-3.5508,-3.4861,-3.3783,-3.2369,-3.142,0.0,-2.9023,-2.8127,-2.8265,-3.0472,-3.1069,-3.1965,-3.424,-3.5473,-3.6448,-3.7274,-3.874,-4.0498,-4.2584,-4.5823,-4.7549,-4.6667,-4.856,-4.9797,-4.9597,-4.9797,-4.9797,-4.9597,-4.9597,-4.9412,-4.8996,-4.8759,-4.862,-4.862,-4.862,-4.862,-4.862,-4.862,-4.862,-4.862,-4.862,-4.862,-4.862,-4.862,-4.862,-4.862,-4.862,-4.862,-4.862,-4.862,-4.862,-4.862,-4.862,-4.862,-4.862,0.0,0.0,0.0,0.0,0.0,0.0,0.0,0.0,0.0,0.0,-2.2078,-2.2657,-2.3272,-2.2306,-2.1633,0.0,0.0,0.0,0.0,0.0,0.0,0.0,0.0,0.0,-2.3443,-2.3834,-2.5836,-2.9544,-2.9737,-3.0809,-3.2722,-3.3512,-3.295,-3.123,-2.9878,-2.7526,0.0,0.0,0.0,0.0,-2.3033,-2.299,0.0,0.0,0.0,0.0,-2.6272,-2.7326,0.0,0.0,0.0,0.0,0.0,0.0,0.0,0.0,-3.0731,-3.1316,-3.1721,0.0,-3.6056,-3.6101,-3.5528,-3.4835,0.0,-3.3352,-3.2283,-3.1921,-3.1265,-3.1076,-3.2179,-3.293,-3.4126,-3.6393,-3.6745,-3.7347,-3.9227,-4.0903,-4.2521,-4.4053,-4.6229,-4.7516,-4.7305,-4.8726,-4.9637,-4.9597,-4.9797,-4.9797,-4.9597,-4.9437,-4.925,-4.8996,-4.8759,-4.862,-4.862,-4.862,-4.862,-4.862,-4.862,-4.862,-4.862,-4.862,-4.862,-4.862,-4.862,-4.862,-4.862,-4.862,-4.862,-4.862,-4.862,-4.862,-4.862,-4.862,-4.862,-4.862,0.0,0.0,0.0,0.0,0.0,0.0,0.0,0.0,0.0,0.0,0.0,-2.0842,-2.0936,-2.0567,0.0,0.0,0.0,0.0,0.0,0.0,0.0,0.0,0.0,-2.2768,-2.4765,-2.5872,-2.7964,-3.1159,-3.1861,-3.302,-3.4564,-3.5004,-3.4389,-3.2809,-3.0949,-2.8122,0.0,0.0,0.0,-2.3107,-2.3107,0.0,0.0,0.0,0.0,0.0,-2.6109,-2.7113,0.0,-2.8391,-2.8481,-2.8504,0.0,0.0,0.0,0.0,-2.9541,-3.0231,-3.0593,-3.2679,-3.4731,-3.4731,-3.4714,-3.4594,-3.4231,-3.3507,-3.28,-3.2472,-3.2076,-3.2145,-3.3248,-3.3859,-3.4928,-3.7141,-3.7484,-3.828,-4.054,-4.2172,-4.3437,-4.4164,-4.6281,-4.7491,-4.7085,-4.8592,-4.9597,-4.9597,-4.9677,-4.9757,-4.9717,-4.9557,-4.9372,-4.9144,-4.8898,-4.8718,-4.862,-4.862,-4.862,-4.862,-4.862,-4.862,-4.862,-4.862,-4.862,-4.862,-4.862,-4.862,-4.862,-4.862,-4.862,-4.862,-4.862,-4.862,-4.862,-4.862,-4.862,-4.862,0.0,0.0,0.0,0.0,0.0,0.0,0.0,0.0,0.0,0.0,0.0,0.0,0.0,0.0,0.0,0.0,0.0,0.0,0.0,0.0,0.0,0.0,-2.2522,-2.412,-2.591,-2.8122,-3.0404,-3.2757,-3.4284,-3.5425,-3.6143,-3.6038,-3.5039,-3.3248,-3.1072,-2.8421,0.0,0.0,-2.4524,-2.3107,-2.3107,0.0,0.0,0.0,0.0,0.0,0.0,0.0,0.0,-2.901,-2.9119,-2.8759,-2.9208,0.0,0.0,0.0,0.0,0.0,-3.0265,-3.1679,-3.2904,-3.2904,-3.3662,-3.4214,-3.3421,-3.3335,-3.3248,-3.261,-3.249,-3.285,-3.41,-3.4597,-3.5438,-3.7406,-3.8343,-3.9433,-4.1196,-4.2663,-4.3576,-4.3671,-4.6013,-4.7296,-4.6589,-4.8294,-4.9487,-4.9557,-4.9557,-4.9637,-4.9797,-4.9613,-4.9437,-4.925,-4.9062,-4.8816,-4.862,-4.862,-4.862,-4.862,-4.862,-4.862,-4.862,-4.862,-4.862,-4.862,-4.862,-4.862,-4.862,-4.862,-4.862,-4.862,-4.862,-4.862,-4.862,-4.862,-4.8687,-4.8811,0.0,0.0,0.0,0.0,0.0,0.0,0.0,0.0,0.0,0.0,0.0,0.0,0.0,0.0,0.0,0.0,0.0,0.0,0.0,0.0,0.0,-2.2651,-2.3628,-2.545,-2.8298,-2.9983,-3.1984,-3.4355,-3.5901,-3.7005,-3.7742,-3.711,-3.5303,-3.2493,-3.0843,-2.8737,-2.637,-2.57,-2.4524,-2.3107,-2.3107,0.0,0.0,0.0,0.0,0.0,0.0,0.0,0.0,-2.7774,-2.8596,-2.9312,-2.8135,0.0,0.0,0.0,0.0,0.0,-2.9317,-3.1265,-3.2904,-3.2904,-3.4438,-3.5766,-3.5007,-3.5335,-3.5749,-3.5628,-3.5611,-3.5576,-3.5397,-3.6275,-3.7396,-3.8584,-4.0468,-4.152,-4.0833,-4.1968,-4.3058,-4.3624,-4.5144,-4.6239,-4.6495,-4.7886,-4.8921,-4.9309,-4.9356,-4.9356,-4.9396,-4.9184,-4.9078,-4.9037,-4.88,-4.862,-4.862,-4.862,-4.862,-4.862,-4.862,-4.862,-4.862,-4.862,-4.862,-4.862,-4.862,-4.862,-4.862,-4.862,-4.862,-4.862,-4.862,-4.862,-4.862,-4.862,-4.9081,-4.9725,0.0,0.0,0.0,0.0,0.0,0.0,0.0,0.0,0.0,0.0,0.0,0.0,0.0,0.0,0.0,0.0,0.0,0.0,0.0,0.0,0.0,-2.4212,-2.5489,-2.7013,-2.886,-3.1246,-3.2967,-3.4056,-3.6426,-3.7777,-3.8076,-3.69,-3.4934,-3.2335,-3.0791,-2.9263,-2.7736,-2.6104,-2.4769,-2.3699,0.0,0.0,0.0,0.0,0.0,0.0,0.0,0.0,0.0,0.0,-2.8228,-2.8947,-2.8303,0.0,0.0,0.0,0.0,0.0,-2.9213,-3.1162,-3.2904,-3.2904,-3.4938,-3.6853,-3.6529,-3.637,-3.6301,-3.6301,-3.6646,-3.6874,-3.6661,-3.7244,-3.8087,-3.9127,-4.041,-4.1415,-4.1688,-4.2284,-4.3074,-4.4132,-4.4828,-4.5597,-4.6581,-4.7161,-4.7722,-4.8349,-4.8622,-4.8745,-4.8745,-4.8916,-4.8996,-4.8996,-4.8759,-4.862,-4.862,-4.862,-4.862,-4.862,-4.862,-4.862,-4.862,-4.862,-4.862,-4.862,-4.9081,-4.9056,-4.8646,-4.9574,-4.9414,-4.8687,-4.9614,-4.9694,-4.9284,-4.9284,-4.9244,-4.9244,0.0,0.0,0.0,0.0,0.0,0.0,0.0,0.0,0.0,0.0,0.0,0.0,0.0,0.0,0.0,0.0,0.0,0.0,0.0,0.0,-2.2095,-2.5015,-2.6964,-2.8614,-2.9948,-3.3003,-3.4671,-3.4846,-3.7777,-3.8743,-3.783,-3.6792,-3.5021,-3.2581,-3.1054,-2.993,-2.9018,-2.649,-2.4963,-2.4221,0.0,0.0,0.0,0.0,0.0,0.0,0.0,0.0,0.0,0.0,0.0,0.0,0.0,0.0,0.0,-2.8001,-2.8229,-2.9092,-2.9834,-3.1696,-3.3524,-3.3886,-3.5611,-3.7236,-3.7236,-3.6732,-3.6353,-3.6542,-3.6904,-3.7279,-3.7514,-3.8125,-3.8865,-3.9782,-4.0353,-4.1031,-4.2067,-4.2331,-4.2821,-4.3848,-4.4132,-4.478,-4.6171,-4.627,-4.663,-4.7509,-4.7864,-4.8003,-4.7964,-4.8302,-4.8475,-4.8434,-4.824,-4.8142,-4.8142,-4.8142,-4.8296,-4.862,-4.862,-4.862,-4.862,-4.862,-4.862,-4.8661,-4.9325,-4.9203,-4.8687,-4.9994,-4.9757,-4.8728,-5.0033,-5.0283,-4.9908,-5.0104,-4.9892,-4.9574,0.0,0.0,0.0,0.0,0.0,0.0,0.0,0.0,0.0,0.0,0.0,0.0,0.0,0.0,0.0,0.0,0.0,0.0,0.0,0.0,-2.1879,-2.4256,-2.7227,-3.0176,-3.3108,-3.6197,-3.8146,-3.8863,-4.1306,-4.0621,-3.7095,-3.7672,-3.632,-3.3354,-3.1826,-3.0703,-2.9809,-2.6718,-2.4963,-2.4221,-2.3418,0.0,0.0,0.0,0.0,0.0,0.0,0.0,0.0,0.0,0.0,0.0,0.0,0.0,-2.9603,-2.8687,-2.9419,-3.0714,-3.142,-3.33,-3.537,-3.6822,-3.6766,-3.6387,-3.6387,-3.6335,-3.6508,-3.7271,-3.6853,-3.6672,-3.7619,-3.9135,-4.0431,-4.1076,-4.1324,-4.1255,-4.0816,-4.1288,-4.1699,-4.181,-4.241,-4.3358,-4.4733,-4.5295,-4.6127,-4.7392,-4.7379,-4.7177,-4.7021,-4.7028,-4.698,-4.6782,-4.6742,-4.6742,-4.6742,-4.6742,-4.7373,-4.862,-4.862,-4.862,-4.862,-4.862,-4.862,-4.862,-4.8661,-4.8661,-4.862,-4.8728,-4.8728,-4.8604,-4.8728,-4.9244,-4.9986,-5.0729,-5.1459,-5.204,0.0,0.0,0.0,0.0,0.0,0.0,0.0,0.0,0.0,0.0,0.0,0.0,0.0,0.0,0.0,0.0,0.0,0.0,0.0,-1.9935,-2.2043,-2.4857,-2.7016,-2.9825,-3.3424,-3.6531,-3.8477,-3.9284,-4.1165,-4.0551,-3.7672,-3.7496,-3.6022,-3.3424,-3.1897,-3.1036,-3.058,-2.7473,-2.57,-2.491,-2.415,-2.3558,0.0,0.0,0.0,0.0,0.0,0.0,0.0,0.0,-2.5943,-2.697,-2.7267,-2.8165,-2.8942,-2.8064,-2.9194,-3.0851,-3.1593,-3.3455,-3.5559,-3.7116,-3.7288,-3.7064,-3.7064,-3.7387,-3.7818,-3.8134,-3.8301,-3.8734,-3.9721,-4.0458,-4.1003,-4.136,-4.1474,-4.1415,-4.1244,-4.143,-4.1762,-4.222,-4.211,-4.271,-4.4543,-4.4504,-4.4885,-4.6175,-4.657,-4.6615,-4.6323,-4.6671,-4.6825,-4.6603,-4.6603,-4.6603,-4.6603,-4.6603,-4.685,-4.7357,-4.7357,-4.7357,-4.7357,-4.7357,-4.7588,-4.8029,-4.8509,-4.8983,-4.9486,-5.0515,-5.0615,-5.019,-5.0691,-5.1086,-5.1438,-5.1733,-5.1733,-5.1533,0.0,0.0,0.0,0.0,0.0,0.0,0.0,0.0,0.0,0.0,0.0,0.0,0.0,0.0,0.0,0.0,0.0,0.0,-1.8864,-2.0321,-2.257,-2.5647,-2.7508,-3.0159,-3.3792,-3.6654,-3.8477,-3.9284,-4.0604,-3.9919,-3.7354,-3.6865,-3.5636,-3.3792,-3.2002,-3.1335,-3.1352,-2.8017,-2.6142,-2.5349,-2.4589,-2.3834,0.0,0.0,0.0,0.0,0.0,0.0,0.0,0.0,-2.4971,-2.5981,-2.6944,-2.7759,-2.8364,-2.8476,-2.992,-3.156,-3.2025,-3.38,-3.5852,-3.7185,-3.7512,-3.7564,-3.7806,-3.8254,-3.8663,-3.8888,-3.9922,-4.093,-4.1375,-4.1885,-4.2307,-4.243,-4.192,-4.1605,-4.1901,-4.1737,-4.1778,-4.2284,-4.1889,-4.2331,-4.4211,-4.3974,-4.424,-4.5478,-4.5976,-4.6041,-4.5701,-4.6059,-4.6191,-4.5957,-4.5957,-4.5957,-4.5957,-4.6214,-4.633,-4.633,-4.653,-4.6664,-4.6603,-4.6849,-4.7176,-4.7665,-4.8462,-4.9076,-4.963,-5.0737,-5.0883,-5.0427,-5.0972,-5.1347,-5.156,-5.156,-5.1402,-5.1119,0.0,0.0,0.0,0.0,0.0,0.0,0.0,0.0,0.0,0.0,0.0,0.0,0.0,0.0,0.0,0.0,0.0,0.0,-1.9644,-2.1147,-2.3377,-2.6441,-2.8842,-3.151,-3.4582,-3.69,-3.8459,-3.9284,-4.0095,-3.8866,-3.5792,-3.5792,-3.5425,-3.4582,-3.2248,-3.1651,-3.2125,-2.8248,-2.6142,-2.5349,-2.4607,-2.3821,-2.3107,0.0,0.0,0.0,0.0,0.0,0.0,0.0,-2.4291,-2.4835,-2.7894,-2.829,-2.8023,-3.0244,-3.1949,-3.3068,-3.294,-3.4576,-3.649,-3.7305,-3.7512,-3.7719,-3.8444,-3.8612,-3.8819,-3.9577,-4.1585,-4.2965,-4.2171,-4.3423,-4.4569,-4.4502,-4.2844,-4.179,-4.2519,-4.2029,-4.1621,-4.1621,-4.1621,-4.2175,-4.3564,-4.3722,-4.4306,-4.5697,-4.5625,-4.5442,-4.522,-4.5039,-4.4836,-4.461,-4.461,-4.461,-4.461,-4.5348,-4.5697,-4.5733,-4.6464,-4.6737,-4.6612,-4.7347,-4.7675,-4.7751,-4.848,-4.8788,-4.8824,-4.8828,-4.8828,-4.8824,-4.8824,-4.9325,-5.0003,-5.0003,-5.051,-5.1185,0.0,0.0,0.0,0.0,0.0,0.0,0.0,0.0,0.0,0.0,0.0,0.0,0.0,0.0,0.0,0.0,0.0,0.0,-1.9644,-2.1147,-2.2886,-2.4888,-2.7192,-2.9369,-3.1423,-3.4249,-3.6882,-3.9284,-4.0095,-3.8623,-3.5056,-3.6127,-3.5653,-3.3792,-3.2599,-3.1861,-3.137,-2.8561,-2.6613,-2.5437,-2.5788,-2.4787,-2.316,0.0,0.0,0.0,0.0,0.0,0.0,0.0,0.0,0.0,-2.5981,-2.6962,-2.7951,-2.9682,-3.1585,-3.3211,-3.3675,-3.5448,-3.7202,-3.7443,-3.8267,-3.9094,-3.9319,-3.9802,-4.0601,-4.1895,-4.2723,-4.3293,-4.3569,-4.4044,-4.4426,-4.4501,-4.3989,-4.3531,-4.3287,-4.3061,-4.2939,-4.2939,-4.2939,-4.3129,-4.3588,-4.4513,-4.5293,-4.5761,-4.6536,-4.6898,-4.6675,-4.604,-4.5821,-4.6147,-4.5624,-4.5624,-4.6147,-4.6359,-4.6464,-4.6464,-4.6708,-4.6794,-4.6733,-4.6984,-4.7312,-4.7794,-4.801,-4.8692,-4.9676,-5.0241,-5.0493,-5.051,-5.051,-5.0643,-5.0858,-5.0858,-5.1006,-5.1185,0.0,0.0,0.0,0.0,0.0,0.0,0.0,0.0,0.0,0.0,-1.828,-1.8144,0.0,0.0,0.0,0.0,0.0,0.0,-2.0174,-2.141,-2.2864,-2.466,-2.663,-2.8596,-3.051,-3.2967,-3.5127,-3.7005,-3.8093,-3.7268,-3.4741,-3.5952,-3.5776,-3.4389,-3.3652,-3.2862,-3.1967,-2.965,-2.7754,-2.6367,-2.6841,-2.5823,-2.4072,0.0,0.0,0.0,0.0,0.0,0.0,0.0,0.0,0.0,-2.4963,-2.6009,-2.7195,-2.9579,-3.1655,-3.3353,-3.4332,-3.6018,-3.7512,-3.7512,-3.8185,-3.906,-3.9957,-4.0567,-4.1257,-4.2465,-4.3207,-4.3776,-4.4225,-4.4811,-4.5146,-4.4889,-4.4659,-4.4344,-4.3939,-4.366,-4.3512,-4.3512,-4.3512,-4.363,-4.3938,-4.4757,-4.5511,-4.6127,-4.675,-4.7062,-4.6963,-4.6617,-4.6408,-4.6442,-4.6234,-4.6359,-4.6793,-4.7085,-4.7254,-4.7254,-4.7522,-4.7671,-4.7671,-4.7355,-4.7449,-4.7858,-4.8146,-4.8779,-4.9642,-5.0129,-5.0338,-5.0338,-5.0338,-5.0338,-5.0338,-5.0338,-5.0338,-5.0338,0.0,0.0,0.0,0.0,0.0,0.0,0.0,0.0,0.0,-1.7101,-1.6952,-1.6833,0.0,0.0,0.0,-1.763,-1.7759,-1.8715,-2.0876,-2.1754,-2.3147,-2.5248,-2.6785,-2.8631,-3.0826,-3.2318,-3.3161,-3.3301,-3.5056,-3.546,-3.46,-3.5547,-3.5862,-3.5547,-3.4969,-3.4179,-3.316,-3.0915,-2.9018,-2.749,-2.7631,-2.6683,-2.5208,-2.5349,0.0,0.0,0.0,0.0,0.0,0.0,0.0,0.0,-2.4489,-2.5243,-2.6027,-2.9738,-3.195,-3.3494,-3.4864,-3.6391,-3.7581,-3.7426,-3.7512,-3.8185,-4.0394,-4.0912,-4.1153,-4.2033,-4.3276,-4.4242,-4.438,-4.5544,-4.6242,-4.5518,-4.4934,-4.4586,-4.4586,-4.4071,-4.366,-4.366,-4.366,-4.3896,-4.452,-4.4713,-4.5277,-4.6492,-4.6546,-4.6498,-4.6498,-4.6766,-4.6682,-4.611,-4.6497,-4.6819,-4.6983,-4.7589,-4.7933,-4.8032,-4.8688,-4.9001,-4.897,-4.8306,-4.7982,-4.8032,-4.8719,-4.9001,-4.9001,-4.9001,-4.9001,-4.9001,-4.9001,-4.9001,-4.9001,-4.9001,-4.9001,-4.9001,0.0,0.0,0.0,0.0,0.0,0.0,0.0,0.0,-1.6547,-1.7173,-1.7125,-1.7028,-1.6958,-1.6844,0.0,-1.6855,-1.7444,-1.854,-2.0281,-2.1524,-2.2979,-2.4704,-2.6108,-2.735,-2.8421,-2.9404,-3.0475,-3.1686,-3.5074,-3.5723,-3.381,-3.6389,-3.632,-3.4003,-3.4477,-3.3564,-3.1581,-2.9878,-2.7894,-2.5998,-2.721,-2.6051,-2.3721,-2.4945,-2.444,0.0,0.0,0.0,0.0,0.0,0.0,0.0,-2.3067,-2.4032,-2.5296,-2.9146,-3.1655,-3.3532,-3.5042,-3.6859,-3.806,-3.6853,-3.7456,-3.8824,-4.0515,-4.0912,-4.1447,-4.3414,-4.3603,-4.3793,-4.4958,-4.5414,-4.5604,-4.5432,-4.5274,-4.5194,-4.5194,-4.5069,-4.4988,-4.4988,-4.4988,-4.4875,-4.4552,-4.5524,-4.6084,-4.585,-4.6704,-4.7253,-4.7253,-4.6653,-4.6689,-4.7622,-4.6631,-4.6886,-4.8513,-4.8102,-4.8195,-4.8767,-4.8923,-4.9001,-4.9001,-4.8829,-4.875,-4.875,-4.894,-4.9001,-4.9001,-4.9001,-4.9001,-4.9001,-4.9001,-4.9001,-4.9001,-4.9001,-4.9001,-4.9001,0.0,0.0,0.0,0.0,0.0,0.0,0.0,0.0,-1.5634,-1.6061,-1.6033,-1.5985,-1.5953,-1.5879,0.0,0.0,-1.6658,-1.7866,-2.0197,-2.0997,-2.2389,-2.465,-2.542,-2.61,-2.6776,-2.7554,-2.8646,-3.0088,-3.2511,-3.3441,-3.302,-3.5372,-3.5407,-3.3547,-3.4723,-3.4216,-3.243,-3.0731,-2.8966,-2.7341,-2.7598,-2.6297,-2.4283,-2.5103,-2.444,-2.3002,-2.2271,0.0,0.0,0.0,0.0,0.0,0.0,0.0,-2.4476,-2.8307,-3.0696,-3.2575,-3.4797,-3.6426,-3.7473,-3.7404,-3.8008,-3.8991,-4.0549,-4.0912,-4.1343,-4.2896,-4.3207,-4.3655,-4.5121,-4.5397,-4.5397,-4.5397,-4.5397,-4.5397,-4.5397,-4.5397,-4.5397,-4.5397,-4.5397,-4.5291,-4.4961,-4.5598,-4.6048,-4.6071,-4.6604,-4.6927,-4.6927,-4.6736,-4.6781,-4.7041,-4.6634,-4.7083,-4.8477,-4.8075,-4.8291,-4.9001,-4.9001,-4.9001,-4.9001,-4.9001,-4.9001,-4.9001,-4.9001,-4.9001,-4.9001,-4.9001,-4.9001,-4.9001,-4.9001,-4.9001,-4.9001,-4.9001,-4.9001,-4.9001,0.0,0.0,0.0,0.0,0.0,0.0,0.0,0.0,0.0,-1.4799,-1.4799,-1.4799,-1.4799,-1.4799,-1.506,0.0,0.0,0.0,-1.9753,-2.0293,-2.1698,-2.4375,-2.4357,-2.4635,-2.542,-2.6045,-2.7028,-2.8414,-2.9208,-3.0376,-3.1894,-3.3793,-3.4126,-3.3178,-3.4862,-3.4871,-3.3512,-3.1937,-3.0479,-2.9126,-2.8467,-2.7074,-2.5437,-2.5754,-2.4879,-2.3383,-2.2547,0.0,0.0,0.0,0.0,0.0,0.0,0.0,-2.3522,-2.7113,-2.942,-3.1411,-3.4363,-3.5838,-3.6839,-3.8099,-3.8491,-3.8979,-4.0377,-4.0808,-4.1119,-4.1861,-4.2534,-4.3465,-4.4958,-4.5207,-4.5242,-4.538,-4.5397,-4.5397,-4.5397,-4.5397,-4.5397,-4.5397,-4.5397,-4.5397,-4.5397,-4.5397,-4.5673,-4.6355,-4.622,-4.6131,-4.6131,-4.6565,-4.6584,-4.6119,-4.6442,-4.7017,-4.7872,-4.7753,-4.8088,-4.8815,-4.8951,-4.9001,-4.9001,-4.9001,-4.9001,-4.9001,-4.9001,-4.9001,-4.9001,-4.9001,-4.9001,-4.9001,-4.9001,-4.9001,-4.9001,-4.9001,-4.9001,-4.9001,0.0,0.0,0.0,0.0,0.0,0.0,0.0,0.0,0.0,0.0,-1.4799,-1.4799,-1.4799,-1.4799,-1.4846,-1.4953,-1.5582,-1.6465,-1.7566,0.0,0.0,-2.2744,-2.2141,-2.2465,-2.3948,-2.4093,-2.491,-2.6483,-2.7288,-2.8349,-2.9692,-3.3107,-3.3547,-3.1598,-3.3845,-3.3776,-3.1992,-3.1731,-3.0371,-2.846,-2.9654,-2.8241,-2.5569,-2.7134,-2.6636,-2.4936,-2.3726,-2.322,-2.2816,-2.0766,-2.0125,0.0,0.0,0.0,-2.2222,-2.5232,-2.8099,-3.0907,-3.3823,-3.6018,-3.7534,-3.762,-3.8134,-3.8819,-3.9664,-4.0411,-4.1119,-4.1861,-4.2102,-4.2637,-4.4173,-4.4449,-4.4647,-4.5294,-4.5397,-4.5397,-4.5397,-4.5397,-4.5397,-4.5397,-4.5397,-4.5397,-4.5397,-4.5397,-4.5432,-4.5552,-4.5429,-4.5358,-4.5358,-4.5326,-4.5776,-4.6816,-4.5694,-4.6011,-4.7872,-4.7276,-4.7327,-4.8041,-4.8697,-4.9001,-4.9001,-4.9001,-4.9001,-4.9001,-4.9001,-4.9001,-4.9001,-4.9001,-4.9001,-4.9001,-4.9001,-4.9001,-4.9001,-4.9001,-4.9001,-4.9001,0.0,0.0,0.0,0.0,0.0,0.0,0.0,0.0,0.0,0.0,0.0,-1.4799,-1.4799,-1.479,-1.4799,-1.4789,-1.5117,-1.5857,-1.713,-1.9369,-2.0928,-2.1521,-2.164,-2.1962,-2.2572,-2.3009,-2.3749,-2.4761,-2.5561,-2.6928,-2.8865,-3.1193,-3.1907,-3.1246,-3.2434,-3.282,-3.2535,-3.1636,-3.0789,-3.0051,-2.9924,-2.8941,-2.755,-2.778,-2.7613,-2.7148,-2.6401,-2.5266,-2.4009,-2.3231,-2.1788,-2.0381,-2.0879,0.0,0.0,0.0,-2.6058,-2.7927,-3.2439,-3.4985,-3.6655,-3.7828,-3.8065,-3.8306,-3.9439,-3.9957,-4.044,-4.1222,-4.1395,-4.1861,-4.3396,-4.3672,-4.3793,-4.4113,-4.4509,-4.4785,-4.4785,-4.5147,-4.5397,-4.5397,-4.5397,-4.5397,-4.5397,-4.5397,-4.5371,-4.53,-4.5167,-4.5059,-4.4978,-4.4913,-4.5137,-4.5631,-4.5105,-4.5603,-4.7276,-4.6955,-4.7378,-4.8528,-4.8849,-4.9001,-4.9001,-4.9001,-4.9001,-4.9001,-4.9001,-4.9001,-4.9001,-4.9001,-4.9001,-4.9001,-4.9001,-4.9001,-4.9001,-4.9001,-4.9001,-4.9001,0.0,0.0,0.0,0.0,0.0,0.0,0.0,0.0,0.0,0.0,0.0,-1.4799,-1.4799,0.0,0.0,0.0,-1.4799,-1.5397,-1.6806,-1.8764,-1.9985,-2.018,-2.0964,-2.1414,-2.1479,-2.2058,-2.2768,-2.3561,-2.4392,-2.6092,-2.8627,-2.9699,-3.0711,-3.1624,-3.2028,-3.2504,-3.2958,-3.2028,-3.1636,-3.162,-3.0928,-3.0246,-2.9619,-2.9321,-2.9464,-2.9751,-2.9015,-2.7741,-2.6312,-2.5528,-2.3681,-2.1642,-2.15,-2.1111,0.0,0.0,0.0,-2.645,-3.1289,-3.3865,-3.56,-3.7318,-3.7638,-3.781,-3.8893,-3.9284,-3.9629,-4.0446,-4.0601,-4.1015,-4.2378,-4.2775,-4.2965,-4.3172,-4.3655,-4.4018,-4.4018,-4.4492,-4.4854,-4.4854,-4.4854,-4.4854,-4.4854,-4.4854,-4.4785,-4.4706,-4.4504,-4.4387,-4.4279,-4.4385,-4.4506,-4.4598,-4.4709,-4.5422,-4.6786,-4.6989,-4.7733,-4.9001,-4.9001,-4.9001,-4.9001,-4.9001,-4.9001,-4.9001,-4.9001,-4.9001,-4.9001,-4.9001,-4.9001,-4.9001,-4.9001,-4.9001,-4.9001,-4.9001,-4.9001,-4.9001,0.0,0.0,0.0,0.0,0.0,0.0,0.0,0.0,0.0,0.0,0.0,-1.4799,-1.4799,-1.4799,-1.4799,-1.4799,-1.4799,-1.516,-1.6015,-1.6886,-1.7739,-1.849,-1.9295,0.0,-2.0838,-2.0886,-2.1659,-2.3225,-2.4102,-2.6021,-2.8899,-2.9391,-3.0736,-3.2745,-3.3528,-3.3273,-3.2327,-3.3264,-3.3072,-3.2272,-3.3542,-3.2781,-3.1077,-3.2668,-3.316,-3.2717,-3.0864,-3.0728,-3.0751,-2.6405,-2.5147,-2.4882,-2.1803,-2.1331,-2.1887,0.0,0.0,0.0,-3.0867,-3.3175,-3.5008,-3.5372,-3.6534,-3.7603,-3.762,-3.8168,-3.887,-3.9612,-3.975,-4.0008,-4.086,-4.1602,-4.2327,-4.3086,-4.3224,-4.3258,-4.3258,-4.3293,-4.331,-4.331,-4.331,-4.331,-4.331,-4.331,-4.331,-4.331,-4.2997,-4.2817,-4.28,-4.3216,-4.3809,-4.4581,-4.4615,-4.5326,-4.6786,-4.7496,-4.824,-4.9001,-4.9001,-4.9001,-4.9001,-4.9001,-4.9001,-4.9001,-4.9001,-4.9001,-4.9001,-4.9001,-4.9001,-4.9001,-4.9001,-4.9001,-4.9001,-4.9001,-4.9001,-4.9001,0.0,0.0,0.0,0.0,0.0,0.0,0.0,0.0,0.0,0.0,0.0,0.0,0.0,-1.5292,-1.5634,-1.5634,-1.5634,-1.5512,-1.5257,-1.598,-1.6562,-1.6849,-1.7633,-1.8435,-1.9234,-1.9801,-2.0602,-2.1663,-2.3055,-2.4789,-2.6873,-2.8388,-2.9802,-3.1093,-3.173,-3.2072,-3.214,-3.2402,-3.2588,-3.2851,-3.4401,-3.4496,-3.384,-3.4565,-3.4722,-3.4472,-3.3854,-3.3212,-3.2375,-3.0668,-2.8833,-2.6851,-2.464,-2.3044,-2.1845,-2.1106,-2.3475,-2.6759,-2.8792,-3.1115,-3.3407,-3.5234,-3.6064,-3.6629,-3.7386,-3.7746,-3.8254,-3.9439,-3.9698,-3.9939,-4.0756,-4.1119,-4.1395,-4.1688,-4.212,-4.243,-4.243,-4.2879,-4.3189,-4.3189,-4.3189,-4.3189,-4.3189,-4.3189,-4.3164,-4.3029,-4.2885,-4.2757,-4.2567,-4.2717,-4.2908,-4.3125,-4.3115,-4.3853,-4.5376,-4.6126,-4.7107,-4.8308,-4.8308,-4.8545,-4.9001,-4.9001,-4.9001,-4.9035,-4.9492,-4.9712,-4.9729,-5.0219,-5.0135,-4.9712,-4.9712,-4.9424,-4.9001,-4.9001,-4.8714,-4.8308,0.0,0.0,0.0,0.0,0.0,0.0,0.0,0.0,0.0,-1.6436,0.0,0.0,0.0,0.0,-1.6503,-1.6503,-1.5996,-1.5536,-1.5258,-1.5726,-1.6009,-1.5994,-1.6767,-1.7446,-1.7988,-1.8591,-1.9393,-2.0434,-2.1548,-2.3191,-2.5335,-2.6893,-2.8221,-2.9307,-2.9677,-3.0562,-3.1829,-3.18,-3.2368,-3.3377,-3.4677,-3.5421,-3.5799,-3.611,-3.6361,-3.6469,-3.6053,-3.5451,-3.4758,-3.3931,-3.2103,-2.9768,-2.7613,-2.4668,-2.1861,-2.1205,-2.2298,-2.4223,-2.6561,-2.8794,-3.1124,-3.3874,-3.5225,-3.6098,-3.6835,-3.7307,-3.7901,-3.91,-3.9129,-3.9267,-4.0325,-4.0515,-4.0601,-4.086,-4.1309,-4.1636,-4.1636,-4.2102,-4.243,-4.243,-4.243,-4.243,-4.243,-4.243,-4.2364,-4.223,-4.2198,-4.2055,-4.1844,-4.2031,-4.2164,-4.2313,-4.2794,-4.342,-4.4181,-4.5432,-4.6312,-4.6802,-4.731,-4.7665,-4.7902,-4.8156,-4.8257,-4.8308,-4.9035,-4.9644,-5.0152,-5.0913,-5.093,-5.0473,-5.0473,-5.0016,-4.934,-4.9086,-4.8545,-4.7855,0.0,0.0,0.0,0.0,0.0,0.0,0.0,0.0,-1.885,-1.9688,0.0,0.0,0.0,0.0,0.0,-1.7374,-1.5887,-1.5273,-1.6057,-1.6022,-1.5958,-1.5958,-1.6703,-1.7153,-1.7191,-1.7274,-1.8091,-1.9704,-1.9718,-2.1323,-2.4395,-2.4966,-2.6067,-2.7567,-2.7621,-2.8952,-3.1201,-3.1605,-3.2532,-3.3844,-3.4562,-3.5615,-3.679,-3.7483,-3.8205,-3.8672,-3.7262,-3.7457,-3.8026,-3.5834,-3.4705,-3.3658,-3.0418,-2.6043,-2.2089,-2.2015,-2.1439,-2.1459,0.0,0.0,0.0,-3.1113,-3.3935,-3.5951,-3.582,-3.6771,-3.7854,-3.8449,-3.8013,-3.7978,-3.9388,-3.9681,-3.9939,-4.0722,-4.0877,-4.0912,-4.0912,-4.0912,-4.0912,-4.0912,-4.0912,-4.0912,-4.0912,-4.0912,-4.0912,-4.0912,-4.0793,-4.0648,-4.051,-4.1043,-4.163,-4.2228,-4.3701,-4.4096,-4.3341,-4.5534,-4.594,-4.4632,-4.6041,-4.638,-4.5771,-4.6464,-4.6786,-4.6836,-4.7597,-4.8714,-5.0084,-5.0845,-5.1133,-5.1083,-5.1083,-5.0659,-4.9915,-4.9204,-4.8477,-4.772,0.0,0.0,0.0,0.0,0.0,-1.7911,-1.8136,-1.8881,-1.9519,0.0,0.0,0.0,-1.9444,-2.0327,-2.042,-1.9219,-1.8675,-1.7755,-1.6208,-1.5493,-1.5122,-1.5122,-1.5342,-1.6025,-1.7255,-1.7296,-1.809,-1.9705,-2.0291,-2.0991,-2.1853,-2.3161,-2.4016,-2.4487,-2.5717,-2.6948,-2.8236,-3.0126,-3.1823,-3.3414,-3.5589,-3.6705,-3.7171,-3.8166,-3.8331,-3.8024,-3.7962,-3.7758,-3.75,-3.7193,-3.6226,-3.4469,-3.0604,-2.7222,-2.4315,-2.2524,-2.1848,-2.1962,-2.3377,0.0,0.0,0.0,0.0,0.0,-3.5111,-3.6337,-3.7396,-3.8084,-3.8265,-3.8427,-3.8819,-3.9336,-3.9595,-3.9307,-4.017,-4.0912,-4.0912,-4.0912,-4.0912,-4.0912,-4.0912,-4.0912,-4.0912,-4.0912,-4.0912,-4.0912,-4.0864,-4.0728,-4.051,-4.0475,-4.0527,-4.0705,-4.1128,-4.1474,-4.1813,-4.2439,-4.3369,-4.4615,-4.5021,-4.5652,-4.6498,-4.6701,-4.6786,-4.6836,-4.7597,-4.8125,-4.8578,-4.9306,-4.9306,-4.8801,-4.8801,-4.8376,-4.7682,-4.7479,-4.6938,-4.6295,0.0,0.0,-1.6302,-1.6658,-1.8388,-1.9807,-2.0085,-2.1457,-2.2449,0.0,0.0,0.0,-2.1884,-2.2417,-2.2398,-2.1422,-2.0408,-1.9182,-1.7742,-1.6836,-1.6042,-1.5372,-1.5334,-1.5788,-1.6742,-1.6434,-1.7055,-1.8659,-1.912,-1.9511,-1.9831,-2.1459,-2.2197,-2.2274,-2.3925,-2.5308,-2.6553,-2.9043,-3.1422,-3.3646,-3.5261,-3.6522,-3.7603,-3.8606,-3.8474,-3.7865,-3.8477,-3.8608,-3.8579,-3.8846,-3.7856,-3.59,-3.2481,-2.9248,-2.6293,-2.4166,-2.2802,-2.2182,-2.298,-2.4185,-2.5755,-2.8127,0.0,0.0,-3.4307,-3.567,-3.6886,-3.806,-3.8222,-3.8151,-3.8151,-3.8732,-3.8991,-3.8249,-3.9152,-3.9945,-3.9945,-4.0221,-4.0411,-4.0411,-4.0705,-4.0912,-4.0912,-4.0912,-4.0912,-4.0912,-4.0912,-4.0776,-4.0493,-4.0313,-4.0163,-4.0096,-4.0417,-4.0612,-4.073,-4.166,-4.2489,-4.3183,-4.4158,-4.4857,-4.5399,-4.572,-4.5872,-4.5918,-4.6346,-4.6532,-4.6566,-4.6989,-4.7648,-4.8376,-4.8376,-4.7919,-4.7225,-4.6904,-4.6329,-4.5669,0.0,0.0,-1.6857,-1.7723,-2.0062,-2.2076,-2.2871,-2.4898,-2.6342,0.0,-2.6271,-2.5973,-2.5188,-2.4557,-2.4114,-2.3926,-2.1722,-2.027,-2.0083,-1.9094,-1.7817,-1.6296,-1.6221,-1.6206,-1.6122,-1.5533,-1.5916,-1.7334,-1.7428,-1.7789,-1.8416,-1.9955,-2.0678,-2.0734,-2.2442,-2.4084,-2.5726,-2.8217,-3.1236,-3.4346,-3.4439,-3.5906,-3.8098,-3.8822,-3.8711,-3.8265,-3.899,-3.9677,-4.0248,-4.0155,-3.9133,-3.7503,-3.52,-3.1838,-2.843,-2.6628,-2.4426,-2.2664,-2.3203,-2.3832,-2.4732,-2.6349,-2.8828,0.0,-3.3201,-3.4654,-3.6103,-3.7669,-3.7594,-3.7209,-3.7122,-3.7776,-3.8139,-3.7525,-3.8039,-3.8558,-3.8599,-3.9232,-3.9664,-3.9577,-4.0377,-4.086,-4.0791,-4.0774,-4.0808,-4.0894,-4.0888,-4.0776,-4.0517,-4.0387,-4.0238,-4.0138,-4.0756,-4.0747,-4.0113,-4.2049,-4.2472,-4.1356,-4.3396,-4.4045,-4.3572,-4.4265,-4.4615,-4.4615,-4.4615,-4.4615,-4.4615,-4.4615,-4.6172,-4.8511,-4.8511,-4.8122,-4.7432,-4.6802,-4.6143,-4.5483,-1.5186,-1.6914,-1.8654,-1.9477,-2.2259,-2.4908,-2.6438,-2.7045,-2.7535,-2.8089,-2.8029,-2.7872,-2.7703,-2.8162,-2.7945,-2.6604,-2.4801,-2.3179,-2.191,-1.9732,-1.8074,-1.7114,-1.7069,-1.7034,-1.6978,-1.7506,-1.7911,-1.8168,-1.882,-1.885,-1.8334,-1.9355,-1.9838,-1.9924,-2.2182,-2.3768,-2.489,-2.7315,-3.1013,-3.5306,-3.5943,-3.7281,-3.8878,-3.9045,-3.9435,-3.9918,-4.01,-3.9788,-3.925,-3.8599,-3.8172,-3.7689,-3.6569,-3.4736,-3.2444,-2.9527,-2.7371,-2.5699,-2.4565,-2.3851,-2.3842,-2.5513,-2.7322,0.0,-3.0796,-3.2625,-3.4042,-3.4289,-3.4992,-3.5367,-3.4712,-3.572,-3.6739,-3.6898,-3.7609,-3.8237,-3.8535,-3.9232,-3.9474,-3.8888,-4.0066,-4.0653,-3.9991,-3.9922,-4.0198,-4.086,-4.0793,-4.0721,-4.0673,-4.0429,-4.0305,-4.0263,-4.0299,-4.0248,-4.0096,-4.0536,-4.1187,-4.2083,-4.2523,-4.3301,-4.435,-4.453,-4.4615,-4.4615,-4.4615,-4.4615,-4.4615,-4.4615,-4.4953,-4.5478,-4.5478,-4.5376,-4.5241,-4.5089,-4.4953,-4.4801,-1.542,-1.7612,-1.991,-2.0747,-2.4032,-2.6818,-2.7621,-2.8795,-2.9704,-3.0016,-3.0983,-3.1477,-3.108,-3.096,-3.0246,-2.8594,-2.7271,-2.5863,-2.4246,-2.253,-2.0852,-1.9232,-1.8763,-1.8333,-1.7855,-1.7461,-1.7431,-1.7807,-1.7807,-1.7795,-1.7771,-1.862,-2.0083,-2.2083,-2.2858,-2.4808,-2.7668,-2.9694,-3.2462,-3.551,-3.5473,-3.6909,-3.9101,-3.9101,-3.9361,-3.9807,-4.0248,-4.0118,-3.9751,-3.9751,-3.9194,-3.8358,-3.7541,-3.6458,-3.4897,-3.2035,-3.0326,-2.8802,-2.6358,-2.5383,-2.5058,-2.5086,-2.5708,0.0,0.0,-2.9399,-3.0223,-3.1531,-3.2606,-3.3192,-3.2818,-3.4046,-3.5171,-3.5367,-3.5905,-3.6359,-3.6577,-3.807,-3.9008,-3.8629,-3.9267,-3.96,-3.9181,-3.9146,-3.9279,-3.9629,-3.9954,-4.0083,-3.9956,-3.9817,-3.9889,-4.0196,-4.0138,-4.0096,-4.0096,-4.084,-4.1585,-4.2303,-4.3091,-4.3853,-4.4615,-4.4615,-4.4615,-4.4615,-4.4615,-4.4615,-4.4615,-4.4615,-4.4615,-4.4615,-4.4615,-4.4615,-4.4615,-4.4615,-4.4615,-4.4615,-1.5711,-1.8043,-2.0667,-2.1543,-2.519,-2.8085,-2.8299,-3.0224,-3.1647,-3.1685,-3.3565,-3.4642,-3.3997,-3.3269,-3.2311,-3.1016,-3.0105,-2.8913,-2.7269,-2.6378,-2.485,-2.253,-2.1197,-2.0182,-1.947,-1.7646,-1.6862,-1.7209,-1.686,-1.6879,-1.7228,-1.8199,-2.049,-2.3781,-2.3896,-2.6154,-3.0047,-3.2462,-3.4358,-3.5696,-3.5293,-3.7021,-3.9807,-3.964,-3.9881,-4.0346,-4.0717,-4.0861,-4.0958,-4.1609,-4.0921,-3.9658,-3.8859,-3.8172,-3.7145,-3.4488,-3.315,-3.1831,-2.869,-2.7613,-2.7018,-2.5559,-2.5076,-2.5319,0.0,0.0,0.0,-2.873,-2.9801,-3.0421,-3.0611,-3.1828,-3.2909,-3.3138,-3.3575,-3.3935,-3.418,-3.608,-3.7624,-3.8099,-3.8525,-3.875,-3.8594,-3.8991,-3.9015,-3.8437,-3.9416,-3.9802,-3.9265,-3.92,-3.9423,-3.9901,-4.0028,-4.0096,-4.0096,-4.1407,-4.2151,-4.2303,-4.3718,-4.4462,-4.4615,-4.4615,-4.4615,-4.4615,-4.4615,-4.4615,-4.4615,-4.4615,-4.4615,-4.4615,-4.4615,-4.4615,-4.4615,-4.4615,-4.4615,-4.4615,-1.5944,-1.8055,-2.067,-2.1558,-2.5197,-2.8528,-3.0042,-3.112,-3.2011,-3.2653,-3.3996,-3.4879,-3.4766,-3.5191,-3.539,-3.5202,-3.4395,-3.3193,-3.1523,-3.0649,-2.9401,-2.7639,-2.4681,-2.3022,-2.2851,-2.0506,-1.8602,-1.7209,-1.8603,-1.8566,-1.7228,-1.8802,-2.0145,-2.1388,-2.4972,-2.6851,-2.7668,-3.2964,-3.5751,-3.6681,-3.8005,-4.0085,-4.2296,-4.159,-4.2667,-4.4395,-4.302,-4.2519,-4.2537,-4.263,-4.2537,-4.224,-4.1423,-4.1107,-4.042,-3.7219,-3.5714,-3.4525,-3.1942,-3.0196,-2.8895,-2.7929,-2.7148,-2.6507,-2.5996,0.0,-2.5625,-2.517,0.0,-2.6456,-2.7122,0.0,0.0,-3.0016,-3.0778,-3.1607,-3.2673,-3.3086,-3.4108,-3.6295,-3.8336,-3.9319,-3.8646,-4.0422,-4.072,-3.8568,-4.0371,-4.0923,-3.946,-3.9272,-3.9227,-3.9312,-3.9824,-4.0096,-4.0096,-4.0899,-4.1644,-4.2303,-4.3149,-4.391,-4.4615,-4.4615,-4.4615,-4.4615,-4.4615,-4.4615,-4.4615,-4.4615,-4.4615,-4.4615,-4.4615,-4.4615,-4.4615,-4.4615,-4.4615,-4.4615,-1.6445,-1.9216,-2.201,-2.2333,-2.5913,-2.8997,-2.9727,-3.2242,-3.416,-3.4483,-3.5765,-3.6793,-3.7176,-3.6499,-3.6171,-3.6547,-3.5822,-3.4846,-3.3625,-3.233,-3.0875,-2.9232,-2.6453,-2.4257,-2.2794,-2.0795,-1.9163,-1.7946,-1.8184,-1.8184,-1.7965,-1.8677,-2.0676,-2.3822,-2.6488,-2.925,-3.2147,-3.5974,-3.8339,-3.964,-4.0791,-4.2445,-4.4061,-4.2277,-4.2537,-4.3819,-4.3578,-4.3206,-4.2797,-4.2797,-4.2797,-4.2649,-4.185,-4.224,-4.2352,-3.9064,-3.8223,-3.7591,-3.4123,-3.3076,-3.2277,-2.9545,-2.8597,-2.7631,-2.4872,-2.3888,-2.3322,-2.2481,0.0,0.0,0.0,0.0,0.0,0.0,-2.7713,-2.8245,-2.8766,-2.9396,-3.1236,-3.5092,-3.5826,-3.62,-3.6581,-3.9514,-4.0169,-3.7355,-3.9633,-4.0206,-3.8069,-3.8306,-3.8676,-3.9061,-3.9748,-4.0096,-4.0096,-4.0832,-4.1356,-4.1677,-4.2844,-4.3589,-4.3927,-4.4395,-4.4615,-4.4615,-4.4615,-4.4615,-4.4615,-4.4615,-4.4615,-4.4615,-4.4615,-4.4615,-4.4615,-4.4615,-4.4615,-4.4615,-1.753,-2.0191,-2.2636,-2.2588,-2.6091,-2.9253,-3.0192,-3.2996,-3.5162,-3.5646,-3.7192,-3.8401,-3.883,-3.8032,-3.7637,-3.808,-3.7587,-3.6779,-3.5691,-3.4902,-3.3851,-3.2471,-2.9373,-2.6837,-2.5027,-2.2466,-2.0383,-1.8868,-1.8731,-1.86,-1.8512,-1.8976,-2.1309,-2.5235,-2.7559,-3.09,-3.5021,-3.7902,-3.9951,-4.133,-4.2147,-4.3336,-4.4469,-4.3113,-4.2816,-4.3206,-4.3782,-4.3615,-4.3169,-4.3392,-4.3485,-4.3299,-4.2259,-4.2723,-4.3076,-3.9993,-3.9547,-3.9342,-3.6092,-3.5516,-3.5064,-3.1868,-3.0734,-2.9415,-2.5736,-2.4269,-2.3248,-2.1755,-2.1755,0.0,0.0,0.0,0.0,0.0,0.0,-2.4943,-2.4907,-2.5817,-2.8283,-3.3148,-3.3706,-3.4097,0.0,-3.8669,-3.9692,-3.6719,-3.9289,-3.9788,-3.7041,-3.7619,-3.8211,-3.8667,-3.9622,-4.0096,-4.0096,-4.0832,-4.1204,-4.1221,-4.2709,-4.3392,-4.3426,-4.4215,-4.4615,-4.4615,-4.4615,-4.4615,-4.4615,-4.4615,-4.4682,-4.4786,-4.4786,-4.4879,-4.4988,-4.4692,-4.4665,-4.4759,-1.9444,-2.0539,-2.1746,-2.1748,-2.5239,-2.9169,-3.2469,-3.3088,-3.3784,-3.5472,-3.7726,-3.9076,-3.8831,-4.0076,-4.0855,-4.0691,-4.0666,-3.9934,-3.83,-3.9652,-4.014,-3.9326,-3.4537,-3.186,-3.1785,-2.7035,-2.2973,-1.9763,-2.1365,-2.0896,-1.8531,-2.0164,-2.1826,-2.3648,-2.7736,-3.0891,-3.3431,-3.7484,-3.9677,-4.0494,-4.1311,-4.2129,-4.3039,-4.4581,-4.4674,-4.3968,-4.3986,-4.3986,-4.4098,-4.4934,-4.5212,-4.4934,-4.328,-4.2797,-4.2352,-3.9844,-3.912,-3.8934,-3.8024,-3.7225,-3.6439,-3.5529,-3.4079,-3.224,-2.975,-2.8523,-2.699,-2.3778,-2.2516,-2.2015,-2.2033,0.0,0.0,0.0,0.0,0.0,0.0,-2.263,-2.4962,-2.9882,-3.2826,0.0,0.0,-3.8669,-3.9876,0.0,-4.0062,-4.0336,-3.7058,-3.7613,-3.7984,-3.7939,-3.9326,-4.0096,-4.0096,-4.0832,-4.1204,-4.1221,-4.2709,-4.3392,-4.3426,-4.4215,-4.4615,-4.4615,-4.4615,-4.4615,-4.4615,-4.4615,-4.4879,-4.5276,-4.5276,-4.5588,-4.5943,-4.4961,-4.4906,-4.5214,-2.0978,-2.1769,-2.256,-2.2563,-2.5143,-2.8535,-3.2498,-3.4085,-3.5222,-3.6342,-3.8066,-3.9536,-4.0425,-4.0359,-4.0613,-4.1505,-4.1116,-4.0328,-3.9232,-3.9145,-3.8788,-3.7974,-3.4733,-3.2198,-3.0546,-2.7269,-2.4471,-2.2255,-2.171,-2.0997,-2.017,-2.0734,-2.157,-2.2813,-2.752,-3.12,-3.4083,-3.7117,-4.0105,-4.276,-4.25,-4.354,-4.5138,-4.4042,-4.3782,-4.4005,-4.4005,-4.4005,-4.4042,-4.4339,-4.4822,-4.5101,-4.3949,-4.3596,-4.3225,-4.1311,-4.0383,-3.977,-3.8915,-3.8855,-3.8586,-3.676,-3.6628,-3.5916,-3.1894,-3.0753,-2.9619,-2.6321,-2.4602,-2.3479,-2.2906,0.0,0.0,0.0,0.0,0.0,0.0,-2.0031,-2.1307,-2.3309,0.0,0.0,0.0,0.0,0.0,0.0,-3.8648,0.0,-3.6444,-3.6911,-3.7464,-3.7889,-3.8853,-3.9622,-4.0096,-4.0367,-4.046,-4.0485,-4.1474,-4.1948,-4.1982,-4.2726,-4.3335,-4.3809,-4.3809,-4.4096,-4.4626,-4.4944,-4.5152,-4.5329,-4.5673,-4.5724,-4.5537,-4.5205,-4.5161,-4.5241,-2.2221,-2.261,-2.2996,-2.3001,-2.5619,-2.8935,-3.2551,-3.4584,-3.5987,-3.6787,-3.8814,-4.0535,-4.1407,-4.1358,-4.1601,-4.2486,-4.175,-4.1267,-4.1342,-4.0272,-3.9652,-3.9727,-3.6779,-3.4395,-3.278,-3.0049,-2.7532,-2.5233,-2.3588,-2.2161,-2.1015,-2.1316,-2.2046,-2.3274,-2.7341,-3.1426,-3.5311,-3.6603,-3.9635,-4.3522,-4.3002,-4.3763,-4.5064,-4.4061,-4.4376,-4.5231,-4.4674,-4.4655,-4.4804,-4.4191,-4.4581,-4.5101,-4.3931,-4.3578,-4.3318,-4.198,-4.1033,-4.0285,-3.9714,-3.9672,-3.9439,-3.7895,-3.8257,-3.8104,-3.468,-3.3901,-3.3049,-3.0053,-2.8145,-2.6755,-2.5903,0.0,0.0,0.0,0.0,0.0,0.0,-1.8485,0.0,0.0,0.0,0.0,0.0,0.0,0.0,0.0,0.0,0.0,0.0,-3.6763,-3.7137,-3.7483,-3.8481,-3.9249,-3.9706,-3.9977,-4.0096,-4.0113,-4.0849,-4.1204,-4.1238,-4.1965,-4.2709,-4.342,-4.3593,-4.4126,-4.4879,-4.5399,-4.5716,-4.5875,-4.6024,-4.6017,-4.5825,-4.5433,-4.5188,-4.5035,-2.3231,-2.3098,-2.317,-2.3351,-2.6786,-3.0334,-3.2745,-3.4681,-3.6142,-3.6864,-3.9933,-4.1981,-4.1788,-4.3034,-4.3821,-4.3627,-4.2681,-4.2758,-4.4303,-4.2913,-4.2707,-4.4266,-4.0509,-3.838,-3.8336,-3.5149,-3.188,-2.8612,-2.6892,-2.4381,-2.1148,-2.1994,-2.3208,-2.476,-2.7288,-3.1555,-3.6789,-3.6005,-3.8428,-4.2797,-4.2797,-4.289,-4.3225,-4.4804,-4.642,-4.7608,-4.5955,-4.5844,-4.6252,-4.4655,-4.4674,-4.5082,-4.3485,-4.2927,-4.2705,-4.1943,-4.1107,-4.0471,-4.0457,-3.9825,-3.9129,-3.9063,-3.9048,-3.883,-3.7964,-3.7765,-3.7068,-3.4629,-3.284,-3.1451,-3.0591,-2.7169,0.0,0.0,0.0,0.0,0.0,0.0,0.0,0.0,0.0,0.0,0.0,0.0,0.0,0.0,0.0,0.0,0.0,-3.7115,-3.7041,-3.6818,-3.8217,-3.8954,-3.8988,-3.974,-4.0096,-4.0113,-4.0798,-4.1153,-4.117,-4.1863,-4.2618,-4.3356,-4.3863,-4.4509,-4.5225,-4.577,-4.6259,-4.6669,-4.6264,-4.6418,-4.6776,-4.5716,-4.5008,-4.4692,-2.4142,-2.4491,-2.5737,-2.8278,-3.0175,-3.1748,-3.299,-3.6256,-3.841,-3.7934,-4.0717,-4.271,-4.2665,-4.3398,-4.3883,-4.3831,-4.3577,-4.3266,-4.2955,-4.2527,-4.2205,-4.1973,-4.039,-3.9277,-3.8823,-3.5998,-3.3561,-3.1596,-2.8544,-2.5717,-2.3159,-2.3387,-2.3705,-2.4245,-2.7214,-3.1346,-3.6092,-3.6427,-3.8987,-4.2797,-4.2797,-4.4265,-4.6494,-4.6921,-4.8091,-4.9187,-4.6977,-4.6308,-4.642,-4.5992,-4.6011,-4.6122,-4.5695,-4.4692,-4.3652,-4.3448,-4.2389,-4.1278,-4.1219,-4.0592,-3.9896,-3.9823,-3.9826,-3.9605,-3.8781,-3.8596,-3.8079,-3.6237,-3.4544,-3.3129,-3.2318,-2.9326,-2.6972,0.0,0.0,0.0,0.0,0.0,0.0,-1.795,0.0,0.0,0.0,0.0,0.0,0.0,0.0,0.0,0.0,0.0,-3.754,-3.6893,-3.7733,-3.8447,-3.8988,-3.974,-4.0096,-4.0096,-4.0299,-4.0383,-4.04,-4.0587,-4.1265,-4.2285,-4.2435,-4.2898,-4.363,-4.4157,-4.4253,-4.4202,-4.5421,-4.63,-4.6776,-4.5716,-4.5214,-4.5089,-2.6628,-2.754,-2.9117,-3.1428,-3.3767,-3.5221,-3.4914,-3.7864,-4.0341,-4.0926,-4.2572,-4.413,-4.524,-4.5243,-4.5323,-4.5697,-4.5628,-4.5628,-4.5799,-4.4448,-4.3732,-4.3969,-4.1781,-4.0577,-4.0625,-3.8375,-3.6257,-3.4328,-3.123,-2.8094,-2.4985,-2.4596,-2.4629,-2.5121,-2.8003,-3.1794,-3.6164,-3.8237,-4.063,-4.3048,-4.3245,-4.4712,0.0,-4.7454,-4.8259,-4.8927,-4.7906,-4.7553,-4.7441,-4.6735,-4.6735,-4.6958,-4.6605,-4.5938,-4.5278,-4.5278,-4.4175,-4.2973,-4.2855,-4.1907,-4.0909,-4.0752,-4.0399,-4.0074,-3.9936,-3.9611,-3.9083,-3.8181,-3.6969,-3.5924,-3.5464,-3.2697,-2.9908,-2.8143,0.0,0.0,0.0,0.0,0.0,0.0,-2.1487,0.0,0.0,0.0,0.0,0.0,0.0,0.0,0.0,0.0,-3.7234,-3.6356,-3.7658,-3.843,-3.8514,-3.9884,-4.0434,-4.0096,-4.0096,-4.0096,-4.0096,-4.0096,-4.0654,-4.1594,-4.1825,-4.2354,-4.3086,-4.3628,-4.3816,-4.3851,-4.4858,-4.5481,-4.5744,-4.4911,-4.5049,-4.5536,-2.9913,-3.1133,-3.2551,-3.3759,-3.7093,-3.9199,-3.801,-3.9805,-4.1963,-4.3866,-4.4581,-4.5742,-4.7831,-4.7436,-4.7304,-4.8074,-4.7923,-4.8414,-4.9832,-4.7195,-4.6172,-4.7529,-4.3962,-4.2307,-4.3082,-4.134,-3.932,-3.7124,-3.45,-3.1123,-2.7083,-2.6222,-2.6153,-2.6895,-2.9526,-3.3096,-3.7338,-4.0771,-4.2724,-4.3546,-4.4053,-4.4905,-4.5989,-4.7426,-4.7982,-4.8075,-4.8766,-4.8976,-4.8686,-4.7343,-4.7341,-4.7822,-4.7146,-4.7011,-4.7122,-4.7122,-4.6183,-4.5054,-4.4764,-4.3496,-4.2146,-4.1776,-4.0962,-4.0428,-4.1038,-4.0591,-4.0029,-3.9918,-3.9331,-3.8817,-3.8726,-3.6285,-3.3073,-2.9347,-2.7394,0.0,0.0,0.0,0.0,0.0,0.0,0.0,0.0,0.0,0.0,0.0,0.0,0.0,0.0,0.0,-3.6802,-3.5678,-3.7618,-3.8497,-3.8058,-3.9952,-4.0629,-4.0096,-4.0096,-4.0045,-3.996,-4.0062,-4.0477,-4.118,-4.1705,-4.2293,-4.2923,-4.3454,-4.3975,-4.445,-4.4371,-4.4446,-4.4557,-4.4079,-4.4806,-4.5833,-3.2613,-3.2866,-3.4012,-3.6988,-3.8671,-4.0206,-4.2003,-4.3214,-4.3344,-4.1686,-4.4504,-4.6554,-4.629,-4.7364,-4.818,-4.8334,-4.8303,-4.8326,-4.8452,-4.7914,-4.7395,-4.6982,-4.556,-4.4927,-4.5256,-4.2741,-4.1297,-4.1022,-3.7593,-3.418,-3.0844,-3.0013,-2.9337,-2.8927,-3.2038,-3.6391,-4.1508,-4.2845,-4.3834,-4.4606,-4.542,-4.6233,-4.7186,-4.8796,-4.9424,-4.9443,-4.9594,-4.9327,-4.8905,-4.8888,-4.8984,-4.9124,-4.9202,-4.8799,-4.8291,-4.8291,-4.7611,-4.6695,-4.593,-4.4904,-4.3797,-4.2812,-4.1827,-4.1095,-4.1105,-4.1001,-4.0708,-4.0029,-3.979,-3.9478,-3.8817,-3.7679,-3.617,-3.4087,-3.2381,-3.0742,0.0,0.0,0.0,0.0,0.0,0.0,0.0,0.0,0.0,0.0,0.0,0.0,0.0,0.0,-3.7659,0.0,-3.6683,-3.7726,0.0,0.0,-3.9639,-4.0096,-4.0096,-3.9791,-3.9208,-3.9825,-4.0372,-4.0889,-4.1394,-4.1651,-4.1818,-4.2296,-4.2938,-4.3607,-4.359,-4.4232,-4.5152,-4.5052,-4.5191,-4.5264,-3.4517,-3.5682,-3.7407,-3.9932,-4.1765,-4.3127,-4.3898,-4.5093,-4.5782,-4.5452,-4.6399,-4.7618,-4.8979,-4.9088,-4.9243,-4.9668,-4.9707,-4.9656,-4.9556,-4.9161,-4.8737,-4.8312,-4.6595,-4.5514,-4.5181,-4.3429,-4.2154,-4.1371,-3.9625,-3.7282,-3.4422,-3.3615,-3.3015,-3.2745,-3.5622,-3.9304,-4.3388,-4.3282,-4.3967,-4.5211,-4.6326,-4.7073,-4.7679,-4.9212,-4.9803,-4.9803,-4.9803,-4.9603,-4.9386,-4.9554,-4.9598,-4.9627,-4.9762,-4.9625,-4.9416,-4.9416,-4.891,-4.8128,-4.7151,-4.6194,-4.5212,-4.4065,-4.2987,-4.2151,-4.2066,-4.1549,-4.0873,-4.0065,-3.99,-3.9643,-3.8854,-3.9074,0.0,-3.6083,-3.572,-3.4747,0.0,0.0,0.0,0.0,0.0,0.0,0.0,0.0,0.0,0.0,0.0,0.0,0.0,0.0,-3.7448,0.0,0.0,0.0,-3.7862,0.0,-3.8988,-3.8954,-3.8954,-3.8768,-3.8447,-3.8802,-3.9084,-3.9347,-4.0204,-4.0565,-4.0667,-4.175,-4.243,-4.279,-4.3032,-4.3522,-4.4059,-4.4059,-4.4059,-4.4017,-3.6727,-3.8684,-4.0752,-4.2435,-4.4638,-4.5945,-4.5254,-4.642,-4.7734,-4.8759,-4.8159,-4.8682,-5.137,-5.0635,-5.0202,-5.084,-5.0898,-5.0898,-5.0898,-5.0299,-4.9958,-4.9958,-4.7811,-4.6245,-4.5432,-4.4369,-4.3092,-4.1603,-4.1409,-3.963,-3.6361,-3.6651,-3.6767,-3.6889,-3.9249,-4.1788,-4.4234,-4.3673,-4.4215,-4.5582,-4.6994,-4.767,-4.7979,-4.9434,-4.9987,-4.9987,-4.9987,-4.9987,-4.9987,-4.9987,-4.9949,-4.991,-4.9962,-5.0142,-5.0325,-5.0325,-4.9963,-4.9335,-4.8128,-4.7237,-4.6382,-4.5102,-4.4062,-4.3325,-4.3272,-4.2446,-4.1482,-4.067,-4.0184,-3.9753,-3.9313,-4.012,0.0,-3.8395,-3.8579,-3.7955,0.0,0.0,0.0,0.0,0.0,0.0,0.0,0.0,0.0,0.0,0.0,0.0,0.0,0.0,0.0,0.0,-3.7536,-3.8117,-3.7826,0.0,-3.8438,-3.8031,-3.7953,-3.7868,-3.7793,-3.7868,-3.7984,-3.8212,-3.937,-4.004,-4.0482,-4.1786,-4.2358,-4.2398,-4.2768,-4.2901,-4.2901,-4.2901,-4.2901,-4.2935,-4.0266,-4.1252,-4.2493,-4.4167,-4.5912,-4.7055,-4.6977,-4.7705,-4.7792,-4.6426,-4.8121,-4.9591,-4.99,-5.0434,-5.0821,-5.0898,-5.0898,-5.0898,-5.0898,-5.0821,-5.0782,-5.0782,-4.9861,-4.8933,-4.8063,-4.6419,-4.5123,-4.4246,-4.346,-4.0172,-3.4723,-3.8533,-4.0313,-4.041,-4.2164,-4.351,-4.4522,-4.5217,-4.5588,-4.5811,-4.7458,-4.8143,-4.8325,-5.0,-5.0614,-5.0614,-5.0614,-5.0614,-5.0614,-5.0614,-5.041,-5.0225,-5.0523,-5.0624,-5.0663,-5.0663,-5.0615,-5.0202,-4.852,-4.7825,-4.7166,-4.5486,-4.4756,-4.442,-4.4366,-4.4038,-4.3475,-4.2619,-4.1074,-4.0102,-4.0747,-4.0396,-4.0873,-4.3497,-4.1589,-4.0157,-4.124,0.0,-3.7569,-3.6009,0.0,0.0,0.0,0.0,0.0,0.0,0.0,0.0,0.0,0.0,0.0,-3.8512,-3.8996,-3.9901,-4.1213,-3.8781,-3.7851,-3.8447,-3.8061,-3.775,-3.7455,-3.7755,-3.8282,-3.9023,-3.9939,-4.1206,-4.2603,-4.277,-4.2844,-4.2844,-4.2882,-4.2901,-4.2901,-4.2901,-4.2901,-4.29,-4.2287,-4.317,-4.4281,-4.5972,-4.721,-4.814,-4.863,-4.8982,-4.8933,-4.8275,-4.9068,-4.9881,-5.0376,-5.0705,-5.0898,-5.0898,-5.0898,-5.0898,-5.0898,-5.0898,-5.0898,-5.0898,-5.0132,-4.9049,-4.7657,-4.6464,-4.5452,-4.4594,-4.4736,-4.3324,-4.0558,-4.228,-4.2802,-4.2338,-4.2995,-4.4033,-4.5276,-4.5141,-4.5641,-4.6646,-4.7808,-4.8557,-4.9113,-5.0259,-5.0693,-5.0712,-5.0712,-5.0712,-5.0712,-5.0712,-5.0614,-5.0514,-5.0663,-5.0712,-5.0712,-5.0712,-5.0712,-5.0327,-4.8567,-4.803,-4.75,-4.5733,-4.5063,-4.48,-4.4701,-4.4438,-4.4007,-4.318,-4.1463,-4.0184,-4.0352,-4.0506,-4.0726,-4.1056,-4.0836,-4.0341,-3.953,0.0,0.0,-3.7162,0.0,0.0,0.0,0.0,0.0,0.0,0.0,0.0,0.0,0.0,0.0,-4.0673,-3.8886,-3.8924,-4.1075,-3.8432,-3.7251,-3.7523,-3.7133,-3.6999,-3.7091,-3.699,-3.7637,-3.8894,-3.9215,-4.0171,-4.1506,-4.1995,-4.2194,-4.223,-4.2701,-4.2901,-4.2901,-4.2901,-4.2901,-4.2901,-4.4074,-4.5131,-4.6266,-4.7472,-4.8561,-4.9362,-4.9657,-4.9918,-5.0089,-5.0055,-5.0055,-5.026,-5.084,-5.0898,-5.0898,-5.0898,-5.0898,-5.0898,-5.0898,-5.0898,-5.0898,-5.0898,-5.0357,-4.9378,-4.7908,-4.7064,-4.6071,-4.4949,-4.551,-4.4736,-4.2718,-4.2976,-4.3305,-4.3692,-4.3924,-4.4562,-4.5432,-4.5374,-4.6018,-4.7194,-4.8261,-4.9032,-4.962,-5.042,-5.072,-5.0731,-5.0712,-5.0693,-5.0712,-5.0693,-5.0712,-5.0712,-5.0712,-5.0712,-5.0712,-5.0712,-5.0712,-5.0327,-4.8567,-4.8105,-4.7664,-4.587,-4.5263,-4.5085,-4.5004,-4.4745,-4.4267,-4.3372,-4.2108,-4.0993,-4.0468,-4.0646,-4.0691,-4.0191,-4.0286,-4.0047,-3.9038,-3.8982,0.0,-3.8597,-3.898,-3.8505,-3.6619,0.0,0.0,0.0,0.0,0.0,0.0,0.0,0.0,-4.1451,-3.9285,0.0,-4.0681,-3.8328,-3.7113,-3.7075,-3.6678,-3.6698,-3.7075,-3.6917,-3.7535,-3.8719,-3.8849,-3.9499,-4.0564,-4.1361,-4.1705,-4.1777,-4.2592,-4.2901,-4.2901,-4.2901,-4.2737,-4.2574,-4.5808,-4.7309,-4.8489,-4.8572,-4.9957,-5.0757,-4.9831,-5.0424,-5.0952,-5.0887,-5.0898,-5.0898,-5.0898,-5.0898,-5.0898,-5.0898,-5.0898,-5.0898,-5.0898,-5.0898,-5.0898,-5.0898,-5.0898,-5.0492,-4.9687,-4.8817,-4.7521,-4.5787,-4.5807,-4.3227,-3.829,-3.9172,-4.1351,-4.4613,-4.5413,-4.5336,-4.471,-4.6361,-4.7076,-4.725,-4.8906,-4.9586,-4.9694,-5.049,-5.0801,-5.0793,-5.072,-5.0701,-5.0692,-5.0702,-5.0712,-5.0712,-5.0712,-5.0712,-5.0712,-5.0712,-5.0712,-5.0327,-4.8567,-4.8105,-4.7692,-4.5936,-4.5438,-4.539,-4.5389,-4.5079,-4.4499,-4.3431,-4.319,-4.2813,-4.1682,-4.0843,-4.1,-4.3106,-4.0781,-3.9551,-4.1919,-4.0873,-4.0175,-4.0948,-4.2451,-4.2486,-4.0065,0.0,0.0,0.0,0.0,0.0,0.0,0.0,0.0,-4.0274,-4.0703,0.0,-4.0706,-3.8707,-3.7632,-3.7487,-3.7094,-3.7113,-3.7505,-3.7967,-3.8365,-3.8738,-3.9193,-3.9822,-4.0564,-4.1361,-4.1705,-4.1777,-4.2592,-4.2901,-4.2901,-4.2901,-4.2393,-4.1831,-4.8605,-4.8613,-4.8757,-4.9384,-5.0383,-5.1192,-5.1489,-5.2244,-5.2753,-5.2739,-5.2728,-5.25,-5.192,-5.1289,-5.0898,-5.0898,-5.0898,-5.0898,-5.0898,-5.0898,-5.0898,-5.0898,-5.0898,-5.0511,-4.9726,-4.9436,-4.843,-4.6689,-4.727,-4.6129,-4.3382,-4.3092,-4.3556,-4.4632,-4.5432,-4.5993,-4.638,-4.7502,-4.8333,-4.8914,-4.9459,-4.9996,-5.0513,-5.0767,-5.0846,-5.0793,-5.072,-5.0701,-5.0692,-5.0702,-5.0712,-5.0712,-5.0712,-5.0712,-5.0712,-5.0712,-5.0712,-5.0327,-4.8567,-4.8105,-4.7692,-4.5936,-4.5448,-4.539,-4.5399,-4.5267,-4.4988,-4.4417,-4.3838,-4.3303,-4.2771,-4.1819,-4.1148,-4.1304,-4.0314,-3.9405,-3.9071,-3.9056,-3.8762,-3.7936,-3.9258,-3.9258,-3.6802,-3.8817,0.0,0.0,0.0,0.0,0.0,0.0,0.0,0.0,-3.943,0.0,-4.0737,-3.8952,-3.802,-3.7967,-3.7523,-3.7377,-3.7523,-3.8003,-3.8268,-3.8381,-3.852,-3.8717,-3.8989,-3.9804,-4.013,-4.0256,-4.1578,-4.2067,-4.2067,-4.2067,-4.1977,-4.1778,-5.0839,-5.0658,-5.0678,-5.1227,-5.1734,-5.2259,-5.2803,-5.3313,-5.3622,-5.3596,-5.3606,-5.339,-5.2852,-5.2268,-5.1637,-5.0956,-5.0898,-5.0898,-5.0898,-5.0898,-5.0898,-5.0898,-5.0898,-5.0666,-5.0171,-4.9861,-4.9165,-4.8082,-4.8295,-4.7831,-4.6767,-4.6264,-4.6032,-4.6051,-4.6554,-4.7076,-4.7657,-4.8527,-4.9204,-4.9726,-5.0035,-5.0445,-5.0905,-5.0905,-5.088,-5.0838,-5.0766,-5.072,-5.0692,-5.0702,-5.0712,-5.0712,-5.0712,-5.0712,-5.0712,-5.0712,-5.0481,-4.9894,-4.849,-4.7875,-4.7299,-4.5859,-4.5448,-4.539,-4.5369,-4.5328,-4.5246,-4.5034,-4.4593,-4.4155,-4.3857,-4.2883,-4.1936,-4.1299,-4.0465,-3.9549,-3.8539,-3.856,-3.867,-3.856,-3.9441,0.0,0.0,-3.9148,-3.9845,0.0,0.0,0.0,0.0,0.0,-4.0174,-4.0795,-3.8435,-3.8059,-3.9876,-3.8813,-3.8274,-3.8224,-3.7915,-3.7756,-3.7774,-3.8088,-3.8207,-3.8209,-3.8242,-3.8207,-3.8263,-3.9078,-3.9387,-3.9514,-4.0764,-4.1289,-4.1325,-4.1325,-4.1197,-4.0977,-5.2484,-5.3145,-5.3695,-5.3695,-5.3753,-5.3799,-5.3786,-5.3838,-5.3863,-5.3797,-5.3771,-5.3756,-5.37,-5.3685,-5.2992,-5.1235,-5.1041,-5.0956,-5.0898,-5.0898,-5.0898,-5.0898,-5.0898,-5.0898,-5.0898,-5.0171,-4.9765,-4.9707,-4.8836,-4.8392,-4.8392,-4.8392,-4.8392,-4.8392,-4.8469,-4.8488,-4.8546,-4.9417,-4.9784,-4.9861,-5.0589,-5.0898,-5.0898,-5.0898,-5.0893,-5.0891,-5.0819,-5.0766,-5.0692,-5.0702,-5.0712,-5.0712,-5.0712,-5.0712,-5.0712,-5.0712,-5.0067,-4.9202,-4.8336,-4.7509,-4.6683,-4.5743,-4.5467,-4.5381,-4.5319,-4.5307,-4.5307,-4.5307,-4.5307,-4.5194,-4.4891,-4.4002,-4.3178,-4.2791,-4.1213,-3.9987,-3.9916,-3.9203,-3.9515,-4.1717,-4.2029,0.0,-4.0838,-4.0857,-3.9738,0.0,0.0,0.0,0.0,0.0,-4.1005,-3.8491,-3.7818,-3.7751,-3.8307,-3.838,-3.8352,-3.829,-3.8224,-3.8209,-3.8209,-3.8274,-3.8274,-3.8225,-3.829,-3.8274,-3.828,-3.9023,-3.9314,-3.9386,-4.0165,-4.0508,-4.0614,-4.0614,-4.0193,-3.9695,-5.3384,-5.3559,-5.3695,-5.3695,-5.4252,-5.4692,-5.4686,-5.5249,-5.5676,-5.565,-5.5623,-5.5331,-5.4664,-5.4556,-5.4103,-5.305,-5.2303,-5.1602,-5.0937,-5.0898,-5.0898,-5.0898,-5.0898,-5.0898,-5.0898,-5.0705,-5.0318,-4.9707,-4.8836,-4.8392,-4.8392,-4.8392,-4.8392,-4.843,-4.9107,-4.9397,-4.9455,-5.026,-5.0608,-5.0627,-5.0821,-5.0898,-5.0898,-5.0898,-5.0893,-5.0891,-5.0819,-5.0766,-5.0692,-5.0702,-5.0712,-5.0712,-5.0712,-5.0712,-5.0712,-5.0712,-5.0067,-4.9202,-4.8336,-4.7509,-4.6692,-4.5808,-4.5541,-4.5457,-4.5389,-4.5388,-4.5359,-4.5307,-4.5307,-4.5286,-4.5194,-4.4751,-4.4134,-4.323,-4.1967,-4.0836,-4.0021,-3.9203,-3.8689,-3.8649,-3.9184,-3.9001,-3.7569,-3.856,-3.9444,0.0,0.0,-4.0508,-4.1079,-4.0691,-3.9593,-3.7653,-3.7384,-3.7351,-3.7549,-3.8077,-3.829,-3.8207,-3.8257,-3.8274,-3.8274,-3.8354,-3.8368,-3.8352,-3.8368,-3.8368,-3.837,-3.8553,-3.8644,-3.8716,-3.9501,-3.9827,-3.9862,-3.9862,-3.9785,-3.9613,-5.4898,-5.4888,-5.4886,-5.4886,-5.5281,-5.5592,-5.5592,-5.6,-5.6291,-5.6291,-5.6278,-5.6045,-5.5546,-5.5465,-5.5106,-5.4277,-5.2976,-5.1989,-5.1525,-5.1111,-5.0898,-5.0898,-5.0898,-5.0898,-5.0898,-5.0898,-5.0685,-5.0241,-4.9765,-4.9552,-4.9552,-4.9552,-4.9552,-4.9571,-5.0035,-5.0241,-5.0279,-5.0705,-5.0898,-5.0898,-5.0898,-5.0898,-5.0898,-5.0898,-5.0885,-5.0846,-5.081,-5.0757,-5.0702,-5.0702,-5.0712,-5.0712,-5.0712,-5.0712,-5.0616,-5.0221,-4.949,-4.8625,-4.7778,-4.6951,-4.6182,-4.5683,-4.5522,-4.5476,-4.5409,-4.5408,-4.5369,-4.5317,-4.5307,-4.5307,-4.5307,-4.5023,-4.4562,-4.3869,-4.2492,-4.126,-4.0554,-3.9441,-3.8542,-3.8102,-3.8432,-3.8212,-3.6978,-3.7643,-3.8358,-3.8872,-3.9258,0.0,-4.0065,-3.9625,-3.893,-3.797,-3.7555,-3.7537,-3.7934,-3.8216,-3.8305,-3.8259,-3.8241,-3.8274,-3.8307,-3.8368,-3.8399,-3.8399,-3.843,-3.843,-3.8399,-3.8399,-3.8399,-3.8435,-3.8891,-3.9071,-3.9104,-3.9104,-3.917,-3.9163,-5.6309,-5.6292,-5.63,-5.6297,-5.6291,-5.6291,-5.6291,-5.6291,-5.6291,-5.6291,-5.6291,-5.6285,-5.6213,-5.6206,-5.5894,-5.5167,-5.3569,-5.2496,-5.2237,-5.1505,-5.1033,-5.0917,-5.0898,-5.0898,-5.0898,-5.0898,-5.0898,-5.0898,-5.0898,-5.0898,-5.0898,-5.0898,-5.0898,-5.0898,-5.0898,-5.0898,-5.0898,-5.0898,-5.0898,-5.0898,-5.0898,-5.0898,-5.0898,-5.0898,-5.0858,-5.0829,-5.0829,-5.0767,-5.0702,-5.0702,-5.0693,-5.0712,-5.0712,-5.0616,-5.0327,-4.9452,-4.8586,-4.7778,-4.7077,-4.6259,-4.5586,-4.5522,-4.5504,-4.5476,-4.5419,-4.5389,-4.5369,-4.5317,-4.5307,-4.5307,-4.5307,-4.5076,-4.4959,-4.5251,-4.3212,-4.1675,-4.1969,-4.0086,-3.8707,-3.8707,-3.8707,-3.8432,-3.7749,-3.7676,-3.7401,-3.6707,-3.7309,-3.7676,-3.7676,-3.8322,-3.8707,-3.8707,-3.8043,-3.7991,-3.8673,-3.8496,-3.8385,-3.8305,-3.8274,-3.8274,-3.8322,-3.8401,-3.8449,-3.8449,-3.8512,-3.8494,-3.8449,-3.8449,-3.8449,-3.8449,-3.8449,-3.8481,-3.8525,-3.8525,-3.8609,-3.8673,-5.6309,-5.6292,-5.63,-5.6297,-5.6291,-5.6291,-5.6291,-5.6291,-5.6291,-5.6291,-5.6291,-5.6291,-5.6285,-5.6239,-5.616,-5.6017,-5.507,-5.387,-5.238,-5.209,-5.166,-5.0937,-5.0898,-5.0898,-5.0898,-5.0898,-5.0898,-5.0898,-5.0898,-5.0898,-5.0898,-5.0898,-5.0898,-5.0898,-5.0898,-5.0898,-5.0898,-5.0898,-5.0898,-5.0898,-5.0898,-5.0898,-5.0898,-5.0898,-5.0893,-5.0872,-5.0872,-5.0793,-5.0711,-5.0711,-5.0702,-5.0712,-5.0712,-5.0183,-4.9433,-4.8567,-4.7721,-4.7058,-4.6923,-4.6259,-4.5594,-4.5586,-4.5531,-4.5485,-4.5429,-4.54,-4.5369,-4.5317,-4.5307,-4.5307,-4.5307,-4.5256,-4.6159,-4.9002,-4.5227,-4.293,-4.5754,-4.1847,-3.8707,-3.8707,-3.8707,-3.8652,-3.8524,-3.8505,-3.8469,-3.834,-3.845,-3.8505,-3.8505,-3.8634,-3.8707,-3.8707,-3.8579,-3.853,-3.8525,-3.8494,-3.8446,-3.8401,-3.843,-3.8462,-3.8478,-3.8593,-3.8643,-3.8643,-3.8658,-3.8658,-3.8643,-3.8643,-3.8643,-3.8643,-3.8643,-3.8658,-3.8658,-3.8658,-3.8673,-3.8707,-5.6424,-5.6417,-5.6402,-5.6352,-5.6355,-5.6342,-5.6305,-5.6299,-5.6292,-5.6304,-5.6291,-5.6291,-5.6291,-5.6278,-5.6246,-5.6246,-5.5848,-5.5055,-5.3781,-5.2787,-5.2059,-5.1621,-5.1149,-5.0898,-5.0898,-5.0898,-5.0898,-5.0898,-5.0898,-5.0898,-5.0898,-5.0898,-5.0898,-5.0898,-5.0898,-5.0898,-5.0898,-5.0898,-5.0898,-5.0898,-5.0898,-5.0898,-5.0898,-5.0898,-5.0893,-5.0899,-5.0855,-5.0784,-5.0692,-5.0692,-5.0702,-5.0712,-5.0712,-5.0087,-4.9221,-4.8355,-4.7201,-4.6201,-4.6201,-4.5913,-4.5594,-4.5594,-4.5559,-4.5485,-4.5419,-4.54,-4.5369,-4.5317,-4.5307,-4.5307,-4.5307,-4.5307,-4.5616,-4.6574,-4.4065,-4.2333,-4.3296,-4.0709,-3.8707,-3.8707,-3.8707,-3.8707,-3.8707,-3.8707,-3.8707,-3.8707,-3.8707,-3.8707,-3.8707,-3.8707,-3.8707,-3.8707,-3.8707,-3.8673,-3.8609,-3.8544,-3.8494,-3.8462,-3.8446,-3.8478,-3.851,-3.8559,-3.8624,-3.8707,-3.8707,-3.8707,-3.8707,-3.8707,-3.8707,-3.8707,-3.8707,-3.8707,-3.8707,-3.8707,-3.8707,-3.8707,-5.6503,-5.6504,-5.6483,-5.6417,-5.6391,-5.6377,-5.6328,-5.632,-5.6327,-5.63,-5.6302,-5.6309,-5.6298,-5.6291,-5.6291,-5.6291,-5.6245,-5.593,-5.5244,-5.3567,-5.2477,-5.221,-5.137,-5.0898,-5.0898,-5.0898,-5.0898,-5.0898,-5.0898,-5.0898,-5.0898,-5.0898,-5.0898,-5.0898,-5.0898,-5.0898,-5.0898,-5.0898,-5.0898,-5.0898,-5.0898,-5.0898,-5.0898,-5.0898,-5.0901,-5.0888,-5.0846,-5.0784,-5.071,-5.0702,-5.0702,-5.0654,-5.0462,-4.9798,-4.8933,-4.8067,-4.6759,-4.5594,-4.5594,-4.5594,-4.5594,-4.5594,-4.5559,-4.5485,-4.5419,-4.54,-4.5369,-4.5317,-4.5307,-4.5307,-4.5307,-4.5307,-4.5241,-4.5028,-4.336,-4.2012,-4.1833,-4.0059,-3.8777,-3.8777,-3.8753,-3.8707,-3.8707,-3.8707,-3.8707,-3.8707,-3.8707,-3.8707,-3.8707,-3.8707,-3.8707,-3.8707,-3.8707,-3.8707,-3.8707,-3.8609,-3.8559,-3.8559,-3.8496,-3.8496,-3.8559,-3.8559,-3.8609,-3.8707,-3.8707,-3.8707,-3.8707,-3.8707,-3.8707,-3.8707,-3.8707,-3.8707,-3.8707,-3.8707,-3.8707,-3.8707,-5.6503,-5.6504,-5.6483,-5.6417,-5.6391,-5.6409,-5.6385,-5.6385,-5.6366,-5.6312,-5.6299,-5.6305,-5.6304,-5.6291,-5.6291,-5.6291,-5.6311,-5.6233,-5.6102,-5.4476,-5.3107,-5.2248,-5.137,-5.0898,-5.0898,-5.0898,-5.0898,-5.0898,-5.0898,-5.0898,-5.0898,-5.0898,-5.0898,-5.0898,-5.0898,-5.0898,-5.0898,-5.0898,-5.0898,-5.0898,-5.0898,-5.0898,-5.0898,-5.0898,-5.0898,-5.089,-5.0888,-5.0846,-5.0784,-5.071,-5.0702,-5.0558,-4.974,-4.8894,-4.8048,-4.724,-4.6336,-4.5594,-4.5594,-4.5594,-4.5594,-4.5594,-4.5559,-4.5485,-4.5419,-4.54,-4.5369,-4.5317,-4.5307,-4.5307,-4.5307,-4.5307,-4.6142,-4.8742,-4.5332,-4.3271,-4.5847,-4.2098,-3.9073,-3.9073,-3.8851,-3.8707,-3.8707,-3.8707,-3.8707,-3.8707,-3.8707,-3.8707,-3.8707,-3.8707,-3.8707,-3.8707,-3.8707,-3.8707,-3.8707,-3.8692,-3.8692,-3.8692,-3.8692,-3.8692,-3.8692,-3.8692,-3.8692,-3.8707,-3.8707,-3.8707,-3.8707,-3.8707,-3.8707,-3.8707,-3.8707,-3.8707,-3.8707,-3.8707,-3.8707,-3.8707,-5.6566,-5.6568,-5.6551,-5.6521,-5.6521,-5.6503,-5.6461,-5.646,-5.6432,-5.6369,-5.6361,-5.6354,-5.6305,-5.629,-5.6303,-5.6298,-5.6252,-5.5999,-5.5423,-5.4262,-5.2952,-5.1467,-5.1072,-5.0898,-5.0898,-5.0898,-5.0898,-5.0898,-5.0898,-5.0898,-5.0898,-5.0898,-5.0898,-5.0898,-5.0898,-5.0898,-5.0898,-5.0898,-5.0898,-5.0898,-5.0898,-5.0898,-5.0898,-5.0898,-5.0898,-5.089,-5.0844,-5.081,-5.0784,-5.0721,-5.0702,-5.0558,-4.9663,-4.8798,-4.7836,-4.649,-4.5864,-4.5594,-4.5594,-4.5594,-4.5594,-4.5594,-4.5559,-4.5495,-4.5476,-4.5429,-4.5389,-4.5361,-4.536,-4.5359,-4.5359,-4.5359,-4.5373,-4.5388,-4.3707,-4.2415,-4.2486,-4.0666,-3.935,-3.935,-3.9259,-3.9192,-3.9192,-3.9045,-3.895,-3.895,-3.8777,-3.8707,-3.8707,-3.8707,-3.8707,-3.8707,-3.8707,-3.8707,-3.8707,-3.8707,-3.8707,-3.8707,-3.8707,-3.8707,-3.8707,-3.8707,-3.8707,-3.8707,-3.8707,-3.8707,-3.8707,-3.8707,-3.8707,-3.8707,-3.8707,-3.8707,-3.8707,-3.8707,-3.8707,-3.8707,-5.656,-5.6582,-5.6606,-5.6606,-5.6606,-5.6577,-5.6538,-5.6539,-5.6504,-5.6433,-5.6429,-5.6415,-5.6338,-5.6328,-5.6316,-5.6306,-5.6257,-5.5857,-5.499,-5.3869,-5.2533,-5.1006,-5.0921,-5.0914,-5.0898,-5.0898,-5.0898,-5.0898,-5.0898,-5.0898,-5.0898,-5.0898,-5.0898,-5.0898,-5.0898,-5.0898,-5.0898,-5.0898,-5.0898,-5.0898,-5.0898,-5.0898,-5.0898,-5.0898,-5.0898,-5.089,-5.0844,-5.081,-5.0784,-5.0721,-5.0529,-5.0144,-4.926,-4.8221,-4.7086,-4.5941,-4.5594,-4.5594,-4.5594,-4.5594,-4.5594,-4.5594,-4.5568,-4.5541,-4.5504,-4.5467,-4.5419,-4.54,-4.54,-4.539,-4.539,-4.5399,-4.4909,-4.3454,-4.3044,-4.2403,-4.1016,-4.059,-4.0313,-4.003,-3.992,-3.9777,-3.9521,-3.9337,-3.9219,-3.9219,-3.9045,-3.895,-3.895,-3.895,-3.895,-3.895,-3.8866,-3.884,-3.884,-3.8735,-3.8707,-3.8707,-3.8707,-3.8707,-3.8707,-3.8707,-3.8707,-3.8707,-3.8707,-3.8707,-3.8707,-3.8707,-3.8707,-3.8707,-3.8707,-3.875,-3.884,-3.884,-3.884,-3.884,-5.6506,-5.6558,-5.6606,-5.6606,-5.6606,-5.6606,-5.6606,-5.6606,-5.658,-5.6503,-5.6504,-5.6482,-5.6415,-5.6391,-5.6369,-5.632,-5.6292,-5.5916,-5.5035,-5.3346,-5.1974,-5.1032,-5.1005,-5.0963,-5.0898,-5.0898,-5.0898,-5.0898,-5.0898,-5.0898,-5.0898,-5.0898,-5.0898,-5.0898,-5.0898,-5.0898,-5.0898,-5.0898,-5.0898,-5.0898,-5.0898,-5.0898,-5.0898,-5.0898,-5.0898,-5.0898,-5.0897,-5.0855,-5.0793,-5.072,-5.0125,-4.924,-4.8375,-4.6932,-4.5594,-4.5594,-4.5594,-4.5594,-4.5594,-4.5594,-4.5594,-4.5594,-4.5594,-4.5577,-4.5513,-4.5504,-4.5485,-4.5419,-4.541,-4.541,-4.541,-4.54,-4.5111,-4.425,-4.4047,-4.372,-4.2908,-4.2569,-4.2075,-4.1211,-4.087,-4.0391,-3.957,-3.9495,-3.9495,-3.9495,-3.9514,-3.9514,-3.9514,-3.9514,-3.9514,-3.9514,-3.9245,-3.9101,-3.9101,-3.8855,-3.8707,-3.8707,-3.8707,-3.8707,-3.8707,-3.8707,-3.8707,-3.8707,-3.8707,-3.8707,-3.8707,-3.8707,-3.8707,-3.8707,-3.8707,-3.8866,-3.9101,-3.9101,-3.9101,-3.9101,-5.6506,-5.6558,-5.6606,-5.6606,-5.6606,-5.6606,-5.6606,-5.6606,-5.6591,-5.6563,-5.6564,-5.6536,-5.6483,-5.6461,-5.6434,-5.6372,-5.5817,-5.4811,-5.3267,-5.2161,-5.1399,-5.1089,-5.1081,-5.106,-5.1046,-5.0978,-5.0971,-5.0971,-5.0914,-5.0898,-5.0898,-5.0898,-5.0898,-5.0898,-5.0898,-5.0898,-5.0898,-5.0898,-5.0898,-5.0898,-5.0898,-5.0898,-5.0898,-5.0898,-5.0898,-5.0898,-5.0897,-5.0891,-5.0778,-5.0093,-4.969,-4.921,-4.773,-4.649,-4.5594,-4.5594,-4.5594,-4.5594,-4.5594,-4.5594,-4.5594,-4.5594,-4.5594,-4.5586,-4.5577,-4.5522,-4.5504,-4.5522,-4.5504,-4.5476,-4.5476,-4.5438,-4.5122,-4.423,-4.4047,-4.372,-4.2908,-4.2725,-4.2359,-4.1482,-4.1317,-4.0942,-4.0143,-3.9892,-3.9773,-3.9773,-3.9611,-3.9514,-3.9514,-3.9514,-3.9514,-3.9514,-3.9408,-3.9389,-3.9389,-3.8921,-3.8707,-3.8707,-3.8707,-3.8707,-3.8707,-3.8707,-3.8792,-3.8979,-3.8979,-3.9087,-3.9259,-3.9259,-3.9259,-3.9259,-3.9259,-3.9311,-3.9389,-3.9389,-3.9389,-3.9389,-5.6497,-5.6531,-5.656,-5.6604,-5.6606,-5.6606,-5.6606,-5.6606,-5.6606,-5.6606,-5.6606,-5.6577,-5.6536,-5.6537,-5.6503,-5.6454,-5.5321,-5.4016,-5.2561,-5.17,-5.1228,-5.1176,-5.1176,-5.1153,-5.1101,-5.1063,-5.103,-5.1005,-5.0988,-5.0947,-5.0898,-5.0898,-5.0898,-5.0898,-5.0898,-5.0898,-5.0898,-5.0898,-5.0898,-5.0898,-5.0898,-5.0898,-5.0898,-5.0898,-5.0898,-5.0898,-5.0893,-5.0897,-5.0756,-4.9856,-4.9052,-4.8227,-4.6835,-4.6009,-4.5594,-4.5594,-4.5594,-4.5594,-4.5594,-4.5594,-4.5594,-4.5594,-4.5594,-4.5594,-4.5594,-4.5568,-4.5559,-4.5586,-4.5568,-4.555,-4.555,-4.5485,-4.5275,-4.4739,-4.4595,-4.4383,-4.3895,-4.3837,-4.3512,-4.2632,-4.2211,-4.1686,-4.0864,-4.0328,-4.0067,-4.0067,-3.9903,-3.9815,-3.9815,-3.9815,-3.9815,-3.9815,-3.9717,-3.9658,-3.9658,-3.9232,-3.9021,-3.9021,-3.9021,-3.9021,-3.9021,-3.9021,-3.9115,-3.9259,-3.9259,-3.935,-3.9514,-3.9514,-3.9514,-3.9514,-3.9514,-3.9556,-3.9658,-3.9658,-3.9658,-3.9658,-5.6498,-5.6497,-5.6511,-5.6584,-5.6606,-5.6606,-5.6606,-5.6606,-5.6606,-5.6606,-5.6606,-5.6606,-5.6606,-5.6606,-5.6582,-5.6503,-5.4913,-5.3506,-5.2544,-5.1746,-5.1297,-5.1297,-5.1297,-5.1236,-5.1114,-5.1114,-5.1078,-5.1016,-5.1081,-5.1056,-5.0925,-5.0925,-5.0925,-5.0925,-5.0929,-5.0921,-5.0921,-5.0906,-5.0898,-5.0898,-5.0898,-5.0898,-5.0898,-5.0898,-5.0898,-5.0898,-5.0898,-5.0855,-5.0657,-4.9682,-4.8208,-4.6639,-4.5853,-4.5594,-4.5594,-4.5594,-4.5594,-4.5594,-4.5594,-4.5594,-4.5594,-4.5594,-4.5594,-4.5594,-4.5594,-4.5594,-4.5594,-4.5594,-4.5594,-4.5594,-4.5594,-4.555,-4.5504,-4.5504,-4.5438,-4.54,-4.54,-4.54,-4.5083,-4.4211,-4.333,-4.246,-4.1581,-4.0788,-4.0301,-4.0301,-4.0301,-4.0301,-4.0301,-4.0301,-4.0301,-4.0301,-4.0048,-3.9935,-3.9935,-3.9693,-3.9551,-3.9514,-3.9514,-3.9514,-3.9514,-3.9514,-3.9508,-3.9551,-3.9551,-3.9563,-3.9575,-3.9575,-3.9575,-3.9575,-3.9575,-3.9717,-3.9935,-3.9935,-3.9935,-3.9935,-5.6498,-5.6497,-5.6511,-5.6584,-5.6606,-5.6606,-5.6606,-5.6606,-5.6606,-5.6606,-5.6606,-5.6606,-5.6606,-5.6606,-5.6591,-5.6579,-5.494,-5.3237,-5.1689,-5.1394,-5.1297,-5.1297,-5.1297,-5.1284,-5.1255,-5.1219,-5.1163,-5.1164,-5.1163,-5.1161,-5.1123,-5.1123,-5.1123,-5.1138,-5.1086,-5.1056,-5.105,-5.0932,-5.0898,-5.0898,-5.0898,-5.0898,-5.0898,-5.0898,-5.0898,-5.0898,-5.0898,-5.0511,-4.9703,-4.8113,-4.6841,-4.5924,-4.568,-4.5594,-4.5594,-4.5594,-4.5594,-4.5594,-4.5594,-4.5594,-4.5594,-4.5594,-4.5594,-4.5594,-4.5594,-4.5594,-4.5594,-4.5594,-4.5594,-4.5594,-4.5594,-4.555,-4.5504,-4.5504,-4.5438,-4.54,-4.54,-4.54,-4.5103,-4.4288,-4.3407,-4.2545,-4.1666,-4.0797,-4.0301,-4.0301,-4.0301,-4.0301,-4.0301,-4.0301,-4.0301,-4.0301,-4.0244,-4.0206,-4.0206,-4.0157,-3.9922,-3.9514,-3.9514,-3.9514,-3.9514,-3.9514,-3.9604,-3.9807,-3.9807,-3.9924,-4.0137,-4.0137,-4.0137,-4.0137,-4.0137,-4.0166,-4.0206,-4.0206,-4.0206,-4.0206,-5.6507,-5.6498,-5.6511,-5.6553,-5.6558,-5.656,-5.6604,-5.6606,-5.6606,-5.6606,-5.6606,-5.6606,-5.6606,-5.6606,-5.6274,-5.5435,-5.4494,-5.3219,-5.1465,-5.1348,-5.1348,-5.1348,-5.1348,-5.1348,-5.1348,-5.1305,-5.1252,-5.1191,-5.1235,-5.1238,-5.1199,-5.1199,-5.1191,-5.1199,-5.1152,-5.1147,-5.1137,-5.1037,-5.1018,-5.1048,-5.1004,-5.1018,-5.1035,-5.1035,-5.1017,-5.0939,-5.0512,-4.956,-4.8307,-4.7333,-4.6425,-4.5679,-4.5612,-4.5594,-4.5594,-4.5594,-4.5594,-4.5594,-4.5594,-4.5594,-4.5594,-4.5594,-4.5594,-4.5594,-4.5594,-4.5594,-4.5594,-4.5594,-4.5594,-4.5594,-4.5594,-4.5568,-4.5396,-4.4993,-4.4898,-4.4746,-4.4362,-4.4277,-4.4095,-4.3683,-4.2868,-4.1979,-4.1109,-4.0622,-4.0327,-4.0309,-4.0318,-4.0337,-4.031,-4.031,-4.0291,-4.0301,-4.0301,-4.0301,-4.0301,-4.0301,-4.0157,-3.9881,-3.9881,-3.9881,-3.9881,-3.9881,-3.9965,-4.0087,-4.0087,-4.0166,-4.0301,-4.0301,-4.0301,-4.0301,-4.0301,-4.0301,-4.0301,-4.0301,-4.0301,-4.0301,-5.6508,-5.6492,-5.6503,-5.6497,-5.6503,-5.6528,-5.656,-5.6582,-5.6584,-5.6604,-5.6606,-5.6606,-5.6606,-5.6606,-5.5903,-5.4147,-5.401,-5.3268,-5.1511,-5.1394,-5.1394,-5.1394,-5.1394,-5.1394,-5.1394,-5.1403,-5.1346,-5.1224,-5.128,-5.1294,-5.1233,-5.123,-5.1222,-5.1226,-5.1229,-5.1222,-5.1218,-5.1142,-5.1147,-5.1195,-5.1132,-5.1152,-5.1203,-5.1203,-5.1074,-5.0803,-5.0084,-4.8662,-4.71,-4.6902,-4.6336,-4.5712,-4.566,-4.562,-4.5594,-4.5594,-4.5594,-4.5594,-4.5594,-4.5594,-4.5594,-4.5594,-4.5594,-4.5594,-4.5594,-4.5594,-4.5594,-4.5594,-4.5594,-4.5594,-4.5594,-4.5479,-4.5152,-4.4412,-4.4182,-4.3855,-4.3181,-4.3052,-4.3026,-4.3026,-4.2242,-4.1364,-4.0501,-4.0415,-4.037,-4.0316,-4.037,-4.0372,-4.031,-4.0317,-4.0317,-4.031,-4.0301,-4.0301,-4.0329,-4.031,-4.031,-4.0301,-4.031,-4.0301,-4.0301,-4.0301,-4.0301,-4.0301,-4.0301,-4.0301,-4.0301,-4.0301,-4.0301,-4.0301,-4.0301,-4.0301,-4.0301,-4.0301,-4.0301,-4.0301,-5.6508,-5.6492,-5.65,-5.6501,-5.6504,-5.6491,-5.6509,-5.6511,-5.6533,-5.6584,-5.6606,-5.6606,-5.6606,-5.6606,-5.5903,-5.4147,-5.401,-5.3268,-5.1511,-5.1394,-5.1394,-5.1394,-5.1394,-5.1394,-5.1394,-5.1396,-5.1385,-5.136,-5.1381,-5.1384,-5.1366,-5.1367,-5.1367,-5.1367,-5.1307,-5.1288,-5.1284,-5.1199,-5.1191,-5.1199,-5.1187,-5.1191,-5.1203,-5.1203,-5.0723,-5.0049,-4.9932,-4.8755,-4.7166,-4.6385,-4.5972,-4.5777,-4.5776,-4.5685,-4.5594,-4.5594,-4.5594,-4.5594,-4.5594,-4.5594,-4.5594,-4.5594,-4.5594,-4.5594,-4.5594,-4.5594,-4.5594,-4.5594,-4.5594,-4.5594,-4.5594,-4.4979,-4.4432,-4.4316,-4.372,-4.322,-4.3124,-4.3096,-4.3096,-4.3096,-4.2275,-4.1377,-4.057,-4.0432,-4.0407,-4.0398,-4.0388,-4.0398,-4.0389,-4.0398,-4.0398,-4.0389,-4.0335,-4.0335,-4.0389,-4.0328,-4.031,-4.0298,-4.031,-4.0301,-4.0301,-4.0301,-4.0301,-4.0301,-4.0301,-4.0301,-4.0301,-4.0301,-4.0301,-4.0301,-4.0301,-4.0301,-4.0301,-4.0301,-4.0301,-4.0301,-5.6496,-5.65,-5.6504,-5.6503,-5.6507,-5.6494,-5.6491,-5.6494,-5.6517,-5.6542,-5.6531,-5.6536,-5.6536,-5.6582,-5.5903,-5.4147,-5.401,-5.3268,-5.1511,-5.1394,-5.1394,-5.1394,-5.1394,-5.1394,-5.1394,-5.1394,-5.1396,-5.1402,-5.1405,-5.1409,-5.1394,-5.1399,-5.1403,-5.1405,-5.1365,-5.1361,-5.1359,-5.1286,-5.1282,-5.1302,-5.1274,-5.1282,-5.1265,-5.0814,-5.0349,-4.9811,-4.8817,-4.7653,-4.6562,-4.6135,-4.5962,-4.5911,-4.5861,-4.5819,-4.5764,-4.5764,-4.577,-4.5769,-4.5769,-4.5752,-4.5704,-4.5704,-4.5671,-4.5594,-4.5594,-4.5594,-4.5594,-4.5594,-4.5594,-4.5594,-4.5594,-4.4902,-4.4143,-4.3701,-4.2912,-4.22,-4.172,-4.1643,-4.1643,-4.1643,-4.1288,-4.0888,-4.0523,-4.0468,-4.0463,-4.0449,-4.0455,-4.0447,-4.0388,-4.0432,-4.0441,-4.0407,-4.037,-4.037,-4.0407,-4.0363,-4.0345,-4.0307,-4.0299,-4.0291,-4.0301,-4.0301,-4.0301,-4.0301,-4.0301,-4.0301,-4.0301,-4.0301,-4.0301,-4.0301,-4.0301,-4.0301,-4.0301,-4.0301,-4.0301,-4.0301]},{"header":{"parameterUnit":"m.s-1","parameterCategory":1,"la1":30.6,"la2":28.766,"lo1":-90.7593,"lo2":-88.6598,"dx":0.0162,"dy":0.0183,"nx":116,"ny":114,"refTime":"2022-12-05T06:00:00:Z","depth":0,"parameterNumber":3,"parameterNumberName":"V-component_of_WINDS"},"data":[0.0,0.0,0.0,0.0,0.0,0.0,0.0,0.0,0.0,0.0,0.0,0.0,0.0,0.0,0.0,0.0,0.0,0.0,0.0,0.0,0.0,0.0,0.0,0.0,0.0,0.0,0.0,0.0,0.0,0.0,0.0,0.0,0.0,0.0,0.0,0.0,0.0,0.0,0.0,0.0,0.0,0.0,0.0,0.0,0.0,0.0,0.0,0.0,0.0,0.0,0.0,0.0,0.0,0.0,0.0,0.0,0.0,0.0,0.0,0.0,0.0,0.0,0.0,0.0,0.0,0.0,0.0,0.0,0.0,0.0,0.0,0.0,0.0,0.0,0.0,0.0,0.0,0.0,0.0,0.0,0.0,0.0,0.0,0.0,0.0,0.0,0.0,0.0,0.0,0.0,0.0,0.0,0.0,0.0,0.0,0.0,0.0,0.0,0.0,0.0,0.0,0.0,0.0,0.0,0.0,0.0,0.0,0.0,0.0,0.0,0.0,0.0,0.0,0.0,0.0,0.0,0.0,0.0,0.0,0.0,0.0,0.0,0.0,0.0,0.0,0.0,0.0,0.0,0.0,0.0,0.0,0.0,0.0,0.0,0.0,0.0,0.0,0.0,0.0,0.0,0.0,0.0,0.0,0.0,0.0,0.0,0.0,0.0,0.0,0.0,0.0,0.0,0.0,0.0,0.0,0.0,0.0,0.0,0.0,0.0,0.0,0.0,0.0,0.0,0.0,0.0,0.0,0.0,0.0,0.0,0.0,0.0,0.0,0.0,0.0,0.0,0.0,0.0,0.0,0.0,0.0,0.0,0.0,0.0,0.0,0.0,0.0,0.0,0.0,0.0,0.0,0.0,0.0,0.0,0.0,0.0,0.0,0.0,0.0,0.0,0.0,0.0,0.0,0.0,0.0,0.0,0.0,0.0,0.0,0.0,0.0,0.0,0.0,0.0,0.0,0.0,0.0,0.0,0.0,0.0,0.0,0.0,0.0,0.0,0.0,0.0,0.0,0.0,0.0,0.0,0.0,0.0,0.0,0.0,0.0,0.0,0.0,0.0,0.0,0.0,0.0,0.0,0.0,0.0,0.0,0.0,0.0,0.0,0.0,0.0,0.0,0.0,0.0,0.0,0.0,0.0,0.0,0.0,0.0,0.0,0.0,0.0,0.0,0.0,0.0,0.0,0.0,0.0,0.0,0.0,0.0,0.0,0.0,0.0,0.0,0.0,0.0,0.0,0.0,0.0,0.0,0.0,0.0,0.0,0.0,0.0,0.0,0.0,0.0,0.0,0.0,0.0,0.0,0.0,0.0,0.0,0.0,0.0,0.0,0.0,0.0,0.0,0.0,0.0,0.0,0.0,0.0,0.0,0.0,0.0,0.0,0.0,0.0,0.0,0.0,0.0,0.0,0.0,0.0,0.0,0.0,0.0,0.0,0.0,0.0,0.0,0.0,0.0,0.0,0.0,0.0,0.0,0.0,0.0,0.0,0.0,0.0,0.0,0.0,0.0,0.0,0.0,0.0,0.0,0.0,0.0,0.0,0.0,0.0,0.0,0.0,0.0,0.0,0.0,0.0,0.0,0.0,0.0,0.0,0.0,0.0,0.0,0.0,0.0,0.0,0.0,0.0,0.0,0.0,0.0,0.0,0.0,0.0,0.0,0.0,0.0,0.0,0.0,0.0,0.0,0.0,0.0,0.0,0.0,0.0,0.0,0.0,0.0,0.0,0.0,0.0,0.0,0.0,0.0,0.0,0.0,0.0,0.0,0.0,0.0,0.0,0.0,0.0,0.0,0.0,0.0,0.0,0.0,0.0,0.0,0.0,0.0,0.0,0.0,0.0,0.0,0.0,0.0,0.0,0.0,0.0,0.0,0.0,0.0,0.0,0.0,0.0,0.0,0.0,0.0,0.0,0.0,0.0,0.0,0.0,0.0,0.0,0.0,0.0,0.0,0.0,0.0,0.0,0.0,0.0,0.0,0.0,0.0,0.0,0.0,0.0,0.0,0.0,0.0,0.0,0.0,0.0,0.0,0.0,0.0,0.0,0.0,0.0,0.0,0.0,0.0,0.0,0.0,0.0,0.0,0.0,0.0,0.0,0.0,0.0,0.0,0.0,0.0,0.0,0.0,0.0,0.0,0.0,0.0,0.0,0.0,0.0,0.0,0.0,0.0,0.0,0.0,0.0,0.0,0.0,0.0,0.0,0.0,0.0,0.0,0.0,0.0,0.0,0.0,0.0,0.0,0.0,0.0,0.0,0.0,0.0,0.0,0.0,0.0,0.0,0.0,0.0,0.0,0.0,0.0,0.0,0.0,0.0,0.0,0.0,0.0,0.0,0.0,0.0,0.0,0.0,0.0,0.0,0.0,0.0,0.0,0.0,0.0,0.0,0.0,0.0,0.0,0.0,0.0,0.0,0.0,0.0,0.0,0.0,0.0,0.0,0.0,0.0,0.0,0.0,0.0,0.0,0.0,0.0,0.0,0.0,0.0,0.0,0.0,0.0,0.0,0.0,0.0,0.0,0.0,0.0,0.0,0.0,0.0,0.0,0.0,0.0,0.0,0.0,0.0,0.0,0.0,0.0,0.0,0.0,0.0,0.0,0.0,0.0,0.0,0.0,0.0,0.0,0.0,0.0,0.0,0.0,0.0,0.0,0.0,0.0,0.0,0.0,0.0,0.0,0.0,0.0,0.0,0.0,0.0,0.0,0.0,0.0,0.0,0.0,0.0,0.0,0.0,0.0,0.0,0.0,0.0,0.0,0.0,0.0,0.0,0.0,0.0,0.0,0.0,0.0,0.0,0.0,0.0,0.0,0.0,0.0,0.0,0.0,0.0,0.0,0.0,0.0,0.0,0.0,0.0,0.0,0.0,0.0,0.0,0.0,0.0,0.0,0.0,0.0,0.0,0.0,0.0,0.0,0.0,0.0,0.0,0.0,0.0,0.0,0.0,0.0,0.0,0.0,0.0,0.0,0.0,0.0,0.0,0.0,0.0,0.0,0.0,0.0,0.0,0.0,0.0,0.0,0.0,0.0,0.0,0.0,0.0,0.0,0.0,0.0,0.0,0.0,0.0,0.0,0.0,0.0,0.0,0.0,0.0,0.0,0.0,0.0,0.0,0.0,0.0,0.0,0.0,0.0,0.0,0.0,0.0,0.0,0.0,0.0,0.0,0.0,0.0,0.0,0.0,0.0,0.0,0.0,0.0,0.0,0.0,0.0,0.0,0.0,0.0,0.0,0.0,0.0,0.0,0.0,0.0,0.0,0.0,0.0,0.0,0.0,0.0,0.0,0.0,0.0,0.0,0.0,0.0,0.0,0.0,0.0,0.0,0.0,0.0,0.0,0.0,0.0,0.0,0.0,0.0,0.0,0.0,0.0,0.0,0.0,0.0,0.0,0.0,0.0,0.0,0.0,0.0,0.0,0.0,0.0,0.0,0.0,0.0,0.0,0.0,0.0,0.0,0.0,0.0,0.0,0.0,0.0,0.0,0.0,0.0,0.0,0.0,0.0,0.0,0.0,0.0,0.0,0.0,0.0,0.0,0.0,0.0,0.0,0.0,0.0,0.0,0.0,0.0,0.0,0.0,0.0,0.0,0.0,0.0,0.0,0.0,0.0,0.0,0.0,0.0,0.0,0.0,0.0,0.0,0.0,0.0,0.0,0.0,0.0,0.0,0.0,0.0,0.0,0.0,0.0,0.0,0.0,0.0,0.0,0.0,0.0,0.0,0.0,0.0,0.0,0.0,0.0,0.0,0.0,0.0,0.0,0.0,0.0,0.0,0.0,0.0,0.0,0.0,0.0,0.0,0.0,0.0,0.0,0.0,0.0,0.0,0.0,0.0,0.0,0.0,0.0,0.0,0.0,0.0,0.0,0.0,0.0,0.0,0.0,0.0,0.0,0.0,0.0,0.0,0.0,0.0,0.0,0.0,0.0,0.0,0.0,0.0,0.0,0.0,0.0,0.0,0.0,0.0,0.0,0.0,0.0,0.0,0.0,0.0,0.0,0.0,0.0,0.0,0.0,0.0,0.0,0.0,0.0,0.0,0.0,0.0,0.0,0.0,0.0,0.0,0.0,0.0,0.0,0.0,0.0,0.0,0.0,0.0,0.0,0.0,0.0,0.0,0.0,0.0,0.0,0.0,0.0,0.0,0.0,0.0,0.0,0.0,0.0,0.0,0.0,0.0,0.0,0.0,0.0,0.0,0.0,0.0,0.0,0.0,0.0,0.0,0.0,0.0,0.0,0.0,0.0,0.0,0.0,0.0,0.0,0.0,0.0,0.0,0.0,0.0,0.0,0.0,0.0,0.0,0.0,0.0,0.0,0.0,0.0,0.0,0.0,0.0,0.0,0.0,0.0,0.0,0.0,0.0,0.0,0.0,0.0,0.0,0.0,0.0,0.0,0.0,0.0,0.0,0.0,0.0,0.0,0.0,0.0,0.0,0.0,0.0,0.0,0.0,0.0,0.0,0.0,0.0,0.0,0.0,0.0,0.0,0.0,0.0,0.0,0.0,0.0,0.0,0.0,0.0,0.0,0.0,0.0,0.0,0.0,0.0,0.0,0.0,0.0,0.0,0.0,0.0,0.0,0.0,0.0,0.0,0.0,0.0,0.0,0.0,0.0,0.0,0.0,0.0,0.0,0.0,0.0,0.0,0.0,0.0,0.0,0.0,0.0,0.0,0.0,0.0,0.0,0.0,0.0,0.0,0.0,0.0,0.0,0.0,0.0,0.0,0.0,0.0,0.0,0.0,0.0,0.0,0.0,0.0,0.0,0.0,0.0,0.0,0.0,0.0,0.0,0.0,0.0,0.0,0.0,0.0,0.0,0.0,0.0,0.0,0.0,0.0,0.0,0.0,0.0,0.0,0.0,0.0,0.0,0.0,0.0,0.0,0.0,0.0,0.0,0.0,0.0,0.0,0.0,0.0,0.0,0.0,0.0,0.0,0.0,0.0,0.0,0.0,0.0,0.0,0.0,0.0,0.0,0.0,0.0,0.0,0.0,0.0,0.0,0.0,0.0,0.0,0.0,0.0,0.0,0.0,0.0,0.0,0.0,0.0,0.0,0.0,0.0,0.0,0.0,0.0,0.0,0.0,0.0,0.0,0.0,0.0,0.0,0.0,0.0,0.0,0.0,0.0,0.0,0.0,0.0,0.0,0.0,0.0,0.0,0.0,0.0,0.0,0.0,0.0,0.0,0.0,0.0,0.0,0.0,0.0,0.0,0.0,0.0,0.0,0.0,0.0,0.0,0.0,0.0,0.0,0.0,0.0,0.0,0.0,0.0,0.0,0.0,0.0,0.0,0.0,0.0,0.0,0.0,0.0,0.0,0.0,0.0,0.0,0.0,0.0,0.0,0.0,0.0,0.0,0.0,0.0,0.0,0.0,0.0,0.0,0.0,0.0,0.0,0.0,0.0,0.0,0.0,0.0,0.0,0.0,0.0,0.0,0.0,0.0,0.0,0.0,0.0,0.0,0.0,0.0,0.0,0.0,0.0,0.0,0.0,0.0,0.0,0.0,0.0,0.0,0.0,0.0,0.0,0.0,0.0,0.0,0.0,0.0,0.0,0.0,0.0,0.0,0.0,0.0,0.0,0.0,0.0,0.0,0.0,0.0,0.0,0.0,0.0,0.0,0.0,0.0,0.0,0.0,0.0,0.0,0.0,0.0,0.0,0.0,0.0,0.0,0.0,0.0,0.0,0.0,0.0,0.0,0.0,0.0,0.0,0.0,0.0,0.0,0.0,0.0,0.0,0.0,0.0,0.0,0.0,0.0,0.0,0.0,0.0,0.0,0.0,0.0,0.0,0.0,0.0,0.0,0.0,0.0,0.0,0.0,0.0,0.0,0.0,0.0,0.0,0.0,0.0,0.0,0.0,0.0,0.0,0.0,0.0,0.0,0.0,0.0,0.0,0.0,0.0,0.0,0.0,0.0,0.0,0.0,0.0,0.0,0.0,0.0,0.0,0.0,0.0,0.0,0.0,0.0,0.0,0.0,0.0,0.0,0.0,0.0,0.0,0.0,0.0,0.0,0.0,0.0,0.0,0.0,0.0,0.0,0.0,0.0,0.0,0.0,0.0,0.0,0.0,0.0,0.0,0.0,-2.6089,-2.4205,0.0,0.0,0.0,0.0,0.0,0.0,0.0,0.0,0.0,0.0,0.0,0.0,0.0,0.0,0.0,0.0,0.0,0.0,0.0,0.0,0.0,0.0,0.0,-0.9437,-0.954,-0.9793,-0.9586,0.0,0.0,0.0,0.0,0.0,0.0,0.0,0.0,0.0,-1.0923,-1.1716,-1.2663,-1.4019,-1.5739,-1.4948,-1.4191,-1.3489,0.0,0.0,0.0,0.0,0.0,0.0,0.0,0.0,0.0,0.0,0.0,0.0,0.0,0.0,0.0,0.0,0.0,0.0,0.0,0.0,0.0,0.0,0.0,0.0,0.0,0.0,0.0,0.0,0.0,0.0,0.0,0.0,0.0,0.0,0.0,0.0,0.0,0.0,0.0,0.0,0.0,0.0,0.0,0.0,0.0,0.0,0.0,0.0,0.0,0.0,0.0,0.0,0.0,0.0,0.0,0.0,0.0,0.0,0.0,0.0,0.0,0.0,0.0,0.0,0.0,0.0,0.0,0.0,0.0,0.0,-2.89,-2.7481,0.0,0.0,0.0,0.0,0.0,0.0,0.0,0.0,0.0,0.0,0.0,0.0,0.0,0.0,0.0,0.0,0.0,0.0,0.0,0.0,0.0,-0.9416,-0.9896,-1.0007,-1.0252,-1.0672,-1.0332,-1.0099,-1.0194,-0.9747,0.0,0.0,0.0,0.0,-1.0344,-1.1589,-1.2578,-1.3279,-1.4947,-1.6644,-1.8387,-1.8467,-1.7573,-1.5843,-1.4419,0.0,0.0,0.0,0.0,0.0,0.0,0.0,0.0,0.0,0.0,0.0,0.0,0.0,0.0,0.0,0.0,0.0,0.0,0.0,0.0,0.0,0.0,0.0,0.0,0.0,0.0,0.0,0.0,0.0,0.0,0.0,0.0,0.0,0.0,0.0,0.0,0.0,0.0,0.0,0.0,0.0,0.0,0.0,0.0,0.0,0.0,0.0,0.0,0.0,0.0,0.0,0.0,0.0,0.0,0.0,0.0,0.0,0.0,0.0,0.0,0.0,0.0,0.0,-3.0764,-3.0876,-3.0961,-3.06,-3.1036,-3.2089,-3.1443,-3.061,-2.9701,-2.8802,0.0,0.0,0.0,0.0,0.0,0.0,0.0,0.0,0.0,0.0,0.0,0.0,0.0,0.0,0.0,0.0,0.0,0.0,0.0,-0.9919,-1.0447,-1.0855,-1.113,-1.1199,-1.1142,-1.1308,-1.1762,-1.1308,0.0,0.0,0.0,-1.2003,-1.2475,-1.2682,-1.3463,-1.4809,-1.722,-1.877,-1.9505,-1.9918,-1.9746,-1.9034,-1.7917,-1.7197,-1.6683,0.0,0.0,0.0,0.0,0.0,0.0,0.0,0.0,0.0,0.0,0.0,0.0,0.0,0.0,0.0,0.0,0.0,0.0,0.0,0.0,0.0,0.0,0.0,0.0,0.0,0.0,0.0,0.0,0.0,0.0,0.0,0.0,0.0,0.0,0.0,0.0,0.0,0.0,0.0,0.0,0.0,-2.3094,-2.2662,0.0,0.0,0.0,0.0,0.0,0.0,0.0,0.0,0.0,0.0,0.0,0.0,0.0,-2.883,-3.0119,-3.0287,-3.0726,-3.1373,-3.1907,-3.244,-3.294,-3.3389,-3.4014,-3.4669,-3.4014,0.0,-3.0399,-3.0839,0.0,0.0,0.0,0.0,0.0,0.0,0.0,0.0,0.0,0.0,0.0,0.0,0.0,0.0,0.0,0.0,0.0,0.0,0.0,0.0,0.0,-1.2548,-1.3049,-1.3912,-1.3765,-1.3585,-1.3507,-1.2924,0.0,0.0,-1.2946,-1.3199,-1.3728,-1.4843,-1.629,-1.8093,-1.9482,-2.0615,-2.142,-2.1881,-2.2157,-2.218,-2.1146,-1.978,-1.8143,-1.6382,0.0,0.0,0.0,0.0,0.0,0.0,0.0,0.0,0.0,0.0,0.0,0.0,0.0,0.0,0.0,0.0,0.0,0.0,0.0,0.0,0.0,0.0,0.0,0.0,0.0,0.0,0.0,0.0,0.0,0.0,0.0,0.0,0.0,0.0,0.0,0.0,0.0,0.0,0.0,-2.2367,-2.3445,-2.4531,-2.4924,-2.5119,0.0,0.0,0.0,0.0,0.0,0.0,0.0,0.0,0.0,-2.9687,-2.9715,-3.0488,-3.2041,-3.2055,-3.2581,-3.3586,-3.3853,-3.4267,-3.4857,-3.4787,-3.5119,-3.5667,-3.5062,-3.414,-3.3087,-3.2693,-3.1991,-3.1218,0.0,0.0,0.0,0.0,-3.0193,-3.0038,0.0,0.0,0.0,0.0,0.0,0.0,0.0,0.0,0.0,0.0,0.0,0.0,-1.3709,-1.4306,-1.506,-1.6198,-1.6163,-1.5933,-1.5514,-1.5017,-1.4752,-1.4752,-1.4878,-1.5073,-1.5337,-1.7071,-1.877,-2.0412,-2.1043,-2.1845,-2.2719,-2.3075,-2.3442,-2.3775,-2.3018,-2.1661,-1.9757,-1.8242,-1.7806,-1.8005,0.0,0.0,0.0,0.0,0.0,0.0,0.0,0.0,0.0,0.0,0.0,0.0,0.0,0.0,0.0,0.0,0.0,0.0,0.0,0.0,0.0,0.0,0.0,0.0,0.0,0.0,0.0,0.0,0.0,0.0,0.0,0.0,0.0,0.0,0.0,0.0,0.0,-2.3727,-2.4601,-2.661,-2.6849,-2.6961,0.0,0.0,0.0,0.0,0.0,0.0,-2.8493,-2.9504,-3.0445,-3.1185,-3.1213,-3.2131,-3.4014,-3.4028,-3.4562,-3.5653,-3.5653,-3.5991,-3.6567,-3.6272,-3.6483,-3.7017,-3.6413,-3.6047,-3.578,-3.4365,-3.3424,-3.2918,-3.3333,-3.3333,-3.3073,-3.2918,-3.2778,-3.2679,0.0,0.0,0.0,0.0,0.0,0.0,0.0,0.0,0.0,0.0,0.0,-1.3407,-1.4438,-1.5864,-1.6781,-1.6848,-1.753,-1.7958,-1.7935,-1.789,-1.7882,-1.7882,-1.8368,-1.8414,-1.7901,-1.9023,-1.9849,-2.0412,-2.1367,-2.2157,-2.2719,-2.2708,-2.2765,-2.2788,-2.273,-2.2638,-2.242,-2.0859,-2.024,-2.0079,-1.8047,0.0,0.0,0.0,0.0,0.0,0.0,0.0,0.0,0.0,0.0,0.0,0.0,0.0,0.0,0.0,0.0,0.0,0.0,0.0,0.0,0.0,0.0,0.0,0.0,0.0,0.0,0.0,0.0,0.0,0.0,0.0,0.0,0.0,0.0,0.0,0.0,0.0,0.0,-2.9336,-2.942,0.0,0.0,0.0,0.0,-3.0259,-3.0923,-3.1036,-3.0385,-3.1036,-3.1949,-3.3108,-3.315,-3.407,-3.5949,-3.5977,-3.63,-3.6894,-3.6894,-3.7217,-3.7835,-3.8452,-3.9057,-3.9564,-3.8986,-3.8368,-3.7625,-3.585,-3.4702,-3.4104,-3.4147,-3.3445,-3.2595,-3.3697,-3.374,-3.3438,0.0,0.0,0.0,-0.9106,-0.9345,-0.9609,-0.9781,-1.0642,-1.1474,-1.2033,-1.3551,-1.5043,-1.6264,-1.7335,-1.8331,-1.922,-1.936,-1.9266,-1.8966,-1.9141,-1.926,-1.926,-1.9353,-1.962,-2.0079,-2.0477,-2.1075,-2.187,-2.2525,-2.296,-2.3144,-2.35,-2.3661,-2.3638,-2.3316,-2.3132,-2.3052,-2.186,-2.1355,-2.1261,-1.9884,-1.8334,0.0,0.0,0.0,0.0,0.0,0.0,0.0,0.0,0.0,0.0,0.0,0.0,0.0,0.0,0.0,0.0,0.0,0.0,0.0,0.0,0.0,0.0,0.0,0.0,0.0,0.0,0.0,0.0,0.0,0.0,0.0,0.0,0.0,0.0,0.0,0.0,0.0,-2.949,-2.9954,0.0,-3.1401,-3.1288,-3.1148,-3.1148,-3.2089,-3.2567,-3.2294,-3.3297,-3.4092,-3.4528,-3.4885,-3.5602,-3.6694,-3.7049,-3.7569,-3.8241,-3.8241,-3.855,-3.9128,-3.9353,-3.9788,-4.0336,-3.9718,-3.9325,-3.903,-3.8016,-3.675,-3.5447,-3.5855,-3.5742,-3.5405,-3.584,-3.6107,-3.6276,0.0,0.0,0.0,-0.9001,-0.9454,-0.9861,-1.0045,-1.1233,-1.23,-1.2881,-1.4664,-1.6383,-1.767,-1.8736,-1.9636,-2.0365,-2.0643,-2.0489,-1.9862,-2.0279,-2.0511,-2.0341,-2.0263,-2.0684,-2.1684,-2.1546,-2.1916,-2.2937,-2.3419,-2.374,-2.3912,-2.4464,-2.4705,-2.4694,-2.4313,-2.4072,-2.3854,-2.3018,-2.249,-2.2111,-2.1261,-2.001,-1.8626,0.0,0.0,0.0,0.0,0.0,0.0,0.0,0.0,0.0,0.0,0.0,0.0,0.0,0.0,0.0,0.0,0.0,0.0,0.0,0.0,0.0,0.0,0.0,0.0,0.0,0.0,0.0,0.0,0.0,0.0,0.0,0.0,0.0,0.0,-2.7412,-2.8774,-2.9785,-3.0474,-3.126,-3.2314,-3.223,-3.2286,-3.2728,-3.3677,-3.4155,-3.3944,-3.5147,-3.5808,-3.5808,-3.6399,-3.7031,-3.7611,-3.844,-3.9058,-3.9535,-3.9957,-4.0379,-4.073,-4.094,-4.1264,-4.1615,-4.1207,-4.0726,-4.0172,-3.9547,-3.8186,-3.6647,-3.7372,-3.7625,-3.7625,-3.7625,-3.7664,-3.7686,0.0,0.0,-0.8803,-0.8803,-0.9383,-1.0011,-1.0562,-1.1492,-1.2742,-1.4439,-1.5961,-1.7335,-1.8496,-1.9889,-2.0587,-2.014,-2.1274,-2.1621,-2.0648,-2.1401,-2.1676,-2.127,-2.1259,-2.1719,-2.2696,-2.2214,-2.2433,-2.343,-2.3971,-2.4464,-2.4946,-2.5474,-2.5716,-2.5716,-2.5716,-2.5417,-2.49,-2.443,-2.3638,-2.2685,-2.2157,-2.1629,-2.1029,0.0,0.0,0.0,0.0,0.0,0.0,0.0,0.0,0.0,0.0,0.0,0.0,0.0,0.0,0.0,0.0,0.0,0.0,0.0,0.0,0.0,0.0,0.0,0.0,0.0,0.0,0.0,0.0,0.0,0.0,0.0,0.0,0.0,-2.6639,-2.8352,-2.9852,-3.0465,-3.1129,-3.2258,-3.4012,-3.3697,-3.3874,-3.5105,-3.578,-3.5878,-3.5287,-3.6413,-3.7049,-3.7049,-3.7639,-3.8271,-3.8958,-4.0112,-4.0744,-4.0772,-4.1994,-4.2584,-4.2598,-4.3216,-4.3497,-4.3497,-4.3452,-4.2523,-4.0955,-4.0286,-3.8996,-3.7625,-3.8501,-3.8848,-3.8848,-3.882,-3.82,-3.7375,-0.8749,-0.8921,-0.9015,-0.9015,-0.9775,-1.0677,-1.1555,-1.2374,-1.3566,-1.5441,-1.6568,-1.7553,-1.8498,-1.9595,-2.0347,-2.0442,-2.0588,-2.0499,-2.01,-2.1002,-2.1742,-2.226,-2.2616,-2.2777,-2.2719,-2.2903,-2.3304,-2.3994,-2.4476,-2.4981,-2.5497,-2.5647,-2.5716,-2.5716,-2.5716,-2.5635,-2.5463,-2.4935,-2.4349,-2.3707,-2.2823,-2.1983,-2.119,0.0,0.0,0.0,0.0,0.0,0.0,0.0,0.0,0.0,0.0,0.0,0.0,0.0,0.0,0.0,0.0,0.0,0.0,0.0,0.0,0.0,0.0,0.0,0.0,0.0,0.0,0.0,0.0,0.0,0.0,0.0,-2.5725,-2.7592,-2.8592,-2.9617,-3.0564,-3.1465,-3.2312,-3.3107,-3.3841,-3.4363,-3.4823,-3.5161,-3.6174,-3.6694,-3.6525,-3.7707,-3.8396,-3.8396,-3.8945,-3.9564,-4.0196,-4.0969,-4.1601,-4.2064,-4.2416,-4.2584,-4.2598,-4.3216,-4.3497,-4.3452,-4.2703,-4.2064,-4.1517,-4.0126,-3.9275,-3.8786,-3.7704,-3.7302,-3.7249,-3.6881,-3.6813,-3.7047,-0.8397,-0.872,-0.9042,-0.9272,-1.0023,-1.0941,-1.1946,-1.2735,-1.3994,-1.6192,-1.6961,-1.781,-1.9157,-1.9835,-2.0171,-2.0172,-2.0293,-2.027,-2.0,-2.1003,-2.1945,-2.2662,-2.296,-2.3178,-2.3316,-2.3603,-2.4072,-2.4832,-2.5325,-2.5727,-2.6037,-2.6255,-2.6347,-2.6347,-2.6347,-2.6232,-2.6003,-2.5693,-2.5279,-2.474,-2.3729,-2.2834,-2.2099,-2.1973,-2.1355,-2.0607,-2.0458,-2.0102,-1.9643,-1.9333,0.0,0.0,0.0,0.0,0.0,0.0,0.0,0.0,0.0,0.0,0.0,0.0,0.0,0.0,0.0,0.0,0.0,0.0,0.0,0.0,0.0,0.0,0.0,0.0,-2.6519,-2.8276,-2.9883,-3.0392,-3.1122,-3.2379,-3.3101,-3.385,-3.4689,-3.5254,-3.5681,-3.5949,-3.6824,-3.7372,-3.7372,-3.8805,-3.9466,-3.9017,-3.9848,-4.047,-4.0816,-4.1425,-4.2151,-4.2964,-4.3216,-4.3343,-4.3357,-4.3722,-4.3877,-4.3831,-4.2732,-4.2276,-4.2154,-4.0259,-3.949,-3.9398,0.0,0.0,0.0,0.0,-3.6754,-3.7202,-0.7978,-0.8415,-0.9006,-0.9533,-1.0142,-1.0942,-1.2059,-1.2743,-1.4081,-1.6709,-1.7177,-1.7997,-1.9954,-2.0209,-2.0073,-1.9703,-2.0355,-2.0664,-2.0358,-2.1305,-2.2146,-2.2708,-2.2823,-2.3293,-2.4258,-2.4281,-2.4774,-2.5796,-2.6283,-2.6536,-2.6605,-2.7013,-2.719,-2.719,-2.719,-2.6978,-2.6593,-2.6536,-2.6249,-2.5716,-2.4751,-2.4039,-2.3384,-2.2364,-2.2009,-2.194,-2.1046,-2.0481,-2.0113,-2.0113,0.0,0.0,0.0,0.0,0.0,0.0,0.0,0.0,0.0,0.0,0.0,0.0,0.0,0.0,0.0,0.0,0.0,0.0,0.0,0.0,0.0,0.0,0.0,0.0,-2.7484,-2.8909,-3.0574,-3.08,-3.1422,-3.3093,-3.3663,-3.4424,-3.5788,-3.6011,-3.6263,-3.6747,-3.7454,-3.7817,-3.7766,-3.9522,0.0,0.0,0.0,-4.0802,-4.0937,-4.1545,-4.2389,-4.3458,-4.4097,-4.4411,-4.4411,-4.4256,-4.4209,-4.4162,-4.295,-4.2439,-4.2293,-4.0249,-3.9403,-3.9393,-3.9199,-3.9101,-3.8836,-3.7421,-3.7166,-3.7335,-0.8192,-0.8668,-0.9202,-0.968,-1.009,-1.0951,-1.2715,-1.2832,-1.3836,-1.6995,-1.7156,-1.7581,-1.9168,-1.9577,-1.98,-1.9987,-2.0532,-2.1116,-2.1675,-2.1822,-2.2161,-2.2756,-2.3505,-2.4177,-2.4763,-2.4774,-2.5279,-2.6363,-2.6455,-2.6668,-2.7082,-2.7144,-2.719,-2.719,-2.719,-2.7133,-2.7059,-2.6674,-2.6455,-2.6306,-2.5658,-2.4866,-2.3936,-2.2926,-2.2788,-2.3086,-2.2891,-2.2765,-2.2685,-2.2685,-2.1893,-2.096,-2.1238,-2.0377,0.0,0.0,0.0,0.0,0.0,0.0,0.0,0.0,0.0,0.0,0.0,0.0,0.0,0.0,0.0,0.0,0.0,0.0,0.0,-2.6274,-2.7545,-2.9007,-3.0593,-3.0846,-3.1493,-3.3159,-3.4069,-3.4564,-3.463,-3.5318,-3.5696,-3.5504,-3.6764,-3.7431,-3.7038,-3.8587,-3.9262,-3.8707,-3.8944,-3.9509,-4.0443,-4.1415,-4.2249,-4.2931,-4.3951,0.0,-4.4364,-4.3491,-4.3095,-4.2999,-4.1043,-4.0198,-4.0096,-3.8844,-3.8291,-3.8271,-3.7782,-3.7103,-3.6283,-3.5988,-3.5661,-3.5343,-0.833,-0.8759,-0.9207,-0.9716,-0.9929,-1.0641,-1.237,-1.2591,-1.3663,-1.6737,-1.6751,-1.709,-1.8774,-1.8984,-1.9241,-1.9857,-2.0499,-2.1329,-2.2332,-2.1924,-2.2207,-2.343,-2.3954,-2.4545,-2.5302,-2.5555,-2.6071,-2.6852,-2.6852,-2.6978,-2.719,-2.719,-2.719,-2.719,-2.719,-2.719,-2.7167,-2.6955,-2.6852,-2.6783,-2.6014,-2.5406,-2.4843,-2.3821,-2.3442,-2.3373,-2.3121,-2.3064,-2.3064,-2.3064,-2.2559,-2.196,-2.1927,-2.1378,-2.0653,0.0,0.0,0.0,0.0,0.0,0.0,0.0,0.0,0.0,0.0,0.0,0.0,0.0,0.0,-2.423,-2.4494,0.0,-2.6408,-2.7299,-2.8045,-2.9055,-3.0633,-3.0898,-3.1527,-3.3213,-3.3664,-3.3951,-3.428,-3.4969,-3.5315,-3.5096,-3.6383,-3.7166,-3.7221,-3.8576,-3.9141,-3.8674,-3.8968,-3.9378,-3.9941,-4.0478,-4.1166,-4.2012,-4.2563,-4.2819,-4.2771,-4.2257,-4.1999,-4.19,-4.03,-3.9905,-4.0313,-3.9248,-3.8489,-3.795,-3.7685,-3.7108,-3.6374,-3.611,-3.5677,-3.5184,-0.842,-0.8776,-0.9158,-0.9695,-0.9758,-1.0227,-1.1653,-1.2141,-1.3283,-1.5894,-1.5972,-1.6455,-1.8163,-1.8302,-1.8657,-1.9705,-2.0379,-2.1185,-2.2253,-2.1756,-2.2092,-2.3629,-2.4032,-2.4642,-2.5543,-2.6152,-2.6714,-2.719,-2.719,-2.719,-2.719,-2.719,-2.719,-2.719,-2.719,-2.719,-2.719,-2.719,-2.719,-2.711,-2.6232,-2.5796,-2.5612,-2.4682,-2.4028,-2.3499,-2.3121,-2.2903,-2.2811,-2.2708,-2.265,-2.2478,-2.2168,-2.2076,-2.1916,-2.1089,-2.0848,0.0,0.0,0.0,0.0,0.0,0.0,0.0,0.0,-2.3285,-2.3364,-2.4363,-2.5087,-2.5589,-2.5757,-2.6549,-2.751,-2.851,-2.8835,-2.9412,-3.0742,-3.1007,-3.1559,-3.2887,-3.3043,-3.3318,-3.414,-3.458,-3.4882,-3.4871,-3.6012,-3.6838,-3.7172,-3.8458,-3.8943,-3.8427,-3.8862,-3.9187,-3.9299,-3.9506,-4.0007,-4.0869,-4.1119,-4.1219,-4.1169,-4.0969,-4.0869,-4.0818,-3.9751,-3.9802,-4.0516,-3.9661,-3.8792,-3.7986,-3.7986,-3.7721,-3.7276,-3.6747,-3.6158,-3.5557,-0.842,-0.8768,-0.9164,-0.9702,-0.9648,-0.9884,-1.0873,-1.1513,-1.2423,-1.3937,-1.4707,-1.5517,-1.6545,-1.7315,-1.8396,-1.9933,-2.0151,-2.0424,-2.0984,-2.1355,-2.1686,-2.1886,-2.3486,-2.4563,-2.4992,-2.5957,-2.6714,-2.719,-2.719,-2.719,-2.719,-2.719,-2.719,-2.719,-2.719,-2.719,-2.719,-2.719,-2.719,-2.7133,-2.6611,-2.6117,-2.5647,-2.5061,-2.4533,-2.4108,-2.4039,-2.3741,-2.3258,-2.2834,-2.2375,-2.2043,-2.2467,-2.2593,-2.257,-2.2489,-2.2454,-2.2111,-2.0641,-2.0607,-2.1322,-2.2457,-2.3073,-2.363,0.0,-2.4907,-2.5261,-2.5562,-2.6074,-2.6661,-2.733,-2.7933,-2.8522,-2.9112,-3.0001,-3.0675,-3.0855,-3.132,-3.1697,-3.1872,-3.2537,-3.3237,-3.3796,-3.3897,-3.3993,-3.4106,-3.5506,-3.6185,-3.583,-3.7245,-3.7867,-3.7375,-3.7448,-3.7714,-3.8185,-3.9092,-3.9661,-3.9802,-4.0768,-4.1219,-4.1169,-4.0211,-3.9802,-3.9712,-3.8647,-3.8238,-3.8332,-3.8238,-3.8092,-3.7986,-3.7986,-3.7938,-3.7829,-3.73,-3.6471,-3.5605,-0.842,-0.8778,-0.9076,-0.9288,-0.9265,-0.9441,-1.0151,-1.0713,-1.152,-1.2876,-1.3483,-1.4222,-1.5342,-1.7024,-1.8309,-1.8921,-1.9955,-2.0544,-2.0468,-2.0882,-2.1407,-2.1964,-2.2783,-2.3627,-2.4574,-2.5043,-2.5636,-2.6347,-2.6353,-2.6541,-2.6783,-2.6785,-2.6921,-2.719,-2.719,-2.719,-2.7167,-2.6909,-2.6783,-2.6714,-2.5888,-2.5429,-2.5164,-2.4324,-2.39,-2.3717,-2.3717,-2.3396,0.0,-2.2788,-2.2536,-2.2398,-2.265,-2.2719,-2.265,-2.2329,-2.2444,-2.2604,-2.2238,-2.2295,-2.2696,-2.349,-2.4032,-2.452,-2.4947,-2.5438,-2.5887,-2.6214,-2.6954,-2.7675,-2.8098,-2.8871,-2.9605,-3.0122,-3.0633,-3.1031,-3.1332,-3.1573,-3.1837,-3.2118,-3.2487,-3.2795,-3.3028,-3.3558,-3.4056,-3.4438,-3.5369,-3.6087,-3.6495,-3.7132,-3.7548,-3.7637,-3.7649,-3.7757,-3.7986,-3.8437,-3.8687,-3.8687,-3.9092,-3.9351,-3.9299,-3.8896,-3.8687,-3.8647,-3.8185,-3.7986,-3.7986,-3.7986,-3.7986,-3.7986,-3.7986,-3.7986,-3.7926,-3.7385,-3.6723,-3.6038,-0.842,-0.8778,-0.8996,-0.8996,-0.8996,-0.9136,-0.9509,-1.0058,-1.0765,-1.1743,-1.2298,-1.3121,-1.4521,-1.6284,-1.7405,-1.7424,-1.9147,-1.9933,-1.9292,-2.0041,-2.085,-2.1517,-2.2085,-2.2823,-2.3795,-2.4332,-2.4905,-2.5511,-2.5678,-2.5939,-2.6267,-2.629,-2.6472,-2.6777,-2.6777,-2.6777,-2.6743,-2.6416,-2.6295,-2.6203,-2.513,-2.4717,-2.4625,-2.3728,-2.3316,-2.3212,-2.3361,-2.3167,-2.2891,-2.2891,-2.28,-2.2708,-2.2846,-2.2788,-2.2639,-2.2376,-2.2604,-2.3029,-2.3637,-2.3808,-2.39,-2.4303,-2.4811,-2.5217,-2.533,-2.5773,-2.6271,-2.6606,-2.755,-2.84,-2.8705,-2.9564,-3.0397,-3.0913,-3.1009,-3.1184,-3.1613,-3.1849,-3.2046,-3.2454,-3.2755,-3.2984,-3.3128,-3.3646,-3.427,-3.4943,-3.5533,-3.623,-3.7144,-3.7336,-3.7589,-3.7974,-3.7986,-3.7986,-3.7986,-3.7986,-3.7986,-3.7986,-3.7986,-3.7986,-3.7986,-3.7986,-3.7986,-3.7986,-3.7986,-3.7986,-3.7986,-3.7986,-3.7986,-3.7986,-3.7986,-3.7986,-3.7938,-3.7553,-3.6988,-3.635,-0.842,-0.8778,-0.8996,-0.8996,-0.8996,-0.8996,-0.9016,-0.9706,-1.0209,-1.026,-1.118,-1.2456,-1.4134,-1.4769,-1.5201,-1.5451,-1.7328,-1.804,-1.6959,-1.8752,-1.9776,-1.969,-2.1506,-2.245,-2.236,-2.4158,-2.5099,-2.5122,-2.5495,-2.57,-2.5739,-2.5711,-2.5723,-2.5761,-2.5761,-2.5761,-2.575,-2.5739,-2.5739,-2.5647,-2.4625,-2.4212,-2.4154,-2.3602,-2.3098,-2.2765,-2.3235,-2.3396,-2.3384,-2.3384,-2.3087,-2.2765,-2.3235,-2.3087,-2.2777,-2.3224,-2.3373,-2.3602,-2.4602,-2.4866,-2.4866,-2.4889,-2.5442,-2.5935,-2.5731,-2.6189,-2.6704,-2.6767,-2.7783,-2.8828,-2.9298,-3.0,-3.0676,-3.1199,-3.1282,-3.1371,-3.1661,-3.213,-3.2478,-3.2503,-3.3334,-3.415,-3.4667,-3.4282,-3.4426,-3.5521,-3.6086,-3.6615,-3.7168,-3.7685,-3.7962,-3.7986,-3.7986,-3.7986,-3.7986,-3.7986,-3.7986,-3.7986,-3.7986,-3.7986,-3.7986,-3.7986,-3.7986,-3.7986,-3.7986,-3.7986,-3.7986,-3.7986,-3.7986,-3.7986,-3.7986,-3.7986,-3.7986,-3.7962,-3.73,-3.6411,-0.8075,-0.8588,-0.8996,-0.8996,-0.8996,-0.8996,-0.8996,-0.922,-0.9482,-0.9706,-1.0674,0.0,0.0,0.0,0.0,0.0,-1.6058,-1.6932,-1.6944,-1.8375,-1.9353,-1.9714,-2.0376,-2.0942,-2.1435,-2.1786,-2.2358,-2.3169,-2.3301,-2.3652,-2.4187,-2.4589,-2.4763,-2.4728,-2.5038,-2.5004,-2.4682,-2.4313,-2.4164,-2.4118,-2.3465,-2.3397,-2.3682,-2.3843,-2.3626,-2.3258,0.0,-2.3775,-2.2983,-2.3293,-2.3293,-2.3235,-2.3775,-2.3821,-2.3718,-2.389,-2.3936,-2.4085,-2.474,-2.4912,-2.5004,-2.536,-2.5869,-2.6288,-2.6249,-2.6639,-2.7077,-2.7238,-2.8186,-2.904,-2.9362,-3.0201,-3.0938,-3.1238,-3.1306,-3.1526,-3.2121,-3.2382,-3.2755,-3.344,-3.3778,-3.4342,-3.5219,-3.5196,-3.5521,-3.6579,-3.6831,-3.7156,-3.7685,-3.789,-3.7986,-3.7986,-3.7986,-3.7986,-3.7986,-3.7986,-3.7986,-3.7986,-3.7986,-3.7986,-3.7986,-3.7986,-3.7986,-3.7986,-3.7986,-3.7986,-3.7986,-3.7986,-3.7986,-3.7986,-3.7986,-3.7986,-3.7986,-3.7986,-3.7312,-3.6411,-0.8118,-0.8596,-0.8996,-0.8996,-0.8996,0.0,0.0,0.0,0.0,0.0,0.0,0.0,0.0,0.0,0.0,0.0,0.0,-1.5842,-1.6004,-1.7402,-1.8469,-1.9036,-1.9378,-1.9865,-2.0558,-2.0615,-2.1099,-2.2009,-2.1999,-2.2402,-2.3207,-2.3455,-2.3609,-2.3672,-2.3982,-2.3948,-2.3626,-2.3305,-2.335,-2.3602,-2.2765,-2.2823,-2.3407,-2.3361,-2.3144,0.0,-2.3821,-2.3615,-2.3029,-2.351,-2.3556,-2.3499,-2.4039,-2.42,-2.4235,-2.4407,-2.459,-2.4797,-2.5119,-2.5463,-2.5773,-2.5934,-2.6358,-2.6737,-2.6737,-2.699,-2.7219,-2.7371,-2.8317,-2.9122,-2.913,-2.9928,-3.0718,-3.1262,-3.1156,-3.1376,-3.2351,-3.2763,-3.3168,-3.3827,-3.4114,-3.4691,-3.5797,-3.5905,-3.6254,-3.7132,-3.7192,-3.7421,-3.795,-3.7986,-3.7986,-3.7986,-3.7986,-3.7986,-3.7986,-3.7986,-3.7986,-3.7986,-3.7986,-3.7986,-3.7986,-3.7986,-3.7986,-3.7986,-3.7986,-3.7986,-3.7986,-3.7986,-3.7986,-3.7986,-3.7986,-3.7986,-3.7986,-3.7986,-3.7312,-3.6411,-0.8507,-0.8778,-0.8996,0.0,0.0,0.0,0.0,0.0,0.0,0.0,0.0,0.0,0.0,0.0,0.0,0.0,0.0,0.0,-1.4335,-1.5932,-1.713,-1.7606,-1.8485,-1.9181,-1.9647,-2.041,-2.1052,-2.1551,-2.1482,-2.1866,-2.2635,-2.2316,-2.2298,-2.257,-2.2627,-2.2627,-2.2593,-2.2604,-2.3155,-2.3913,-2.241,-2.241,-2.3189,-2.225,-2.1883,-2.1929,-2.249,-2.296,-2.3373,-2.3936,-2.381,-2.3499,-2.4062,-2.4235,-2.4326,-2.4843,-2.5337,-2.5727,-2.5773,-2.6485,-2.7082,-2.6662,-2.6864,-2.7179,-2.7156,-2.7167,-2.7179,-2.7156,-2.8168,-2.8958,-2.8743,-2.9288,-3.0148,-3.117,-3.0914,-3.1029,-3.2301,-3.3173,-3.366,-3.3732,-3.4402,-3.5268,-3.6302,-3.6423,-3.6663,-3.7192,-3.7228,-3.7457,-3.795,-3.7986,-3.7986,-3.7986,-3.7986,-3.7986,-3.7986,-3.7986,-3.7986,-3.7986,-3.7986,-3.7986,-3.7986,-3.7986,-3.7986,-3.7986,-3.7986,-3.7986,-3.7986,-3.7986,-3.7986,-3.7986,-3.7986,-3.7986,-3.7986,-3.7986,-3.7324,-3.6447,0.0,0.0,0.0,0.0,0.0,0.0,0.0,0.0,0.0,0.0,0.0,0.0,0.0,0.0,0.0,0.0,0.0,0.0,-1.4217,-1.507,-1.5887,-1.6684,-1.6972,-1.7274,-1.7688,-1.7906,-1.8543,-1.9615,-1.9586,-1.9998,-2.0797,-2.1095,-2.1074,-2.0786,-2.143,-2.153,-2.1147,-2.1451,-2.173,-2.1903,-2.1101,-2.1181,-2.1755,-2.1848,-2.1686,-2.15,-2.2397,-2.2316,-2.1914,-2.2765,-2.3236,-2.3556,-2.4427,-2.4728,-2.49,-2.5807,-2.5899,-2.5876,-2.6594,-2.676,-2.6726,-2.6967,-2.7087,-2.7087,-2.6749,-2.6955,-2.7116,-2.6737,-2.7554,-2.8372,-2.8632,-2.918,-2.9833,-3.0682,-3.0704,-3.0991,-3.206,-3.2698,-3.3315,-3.3863,-3.4811,-3.5677,-3.6338,-3.6759,-3.7216,-3.7745,-3.7781,-3.7841,-3.7974,-3.7986,-3.7986,-3.7986,-3.7986,-3.7986,-3.7986,-3.7986,-3.7986,-3.7986,-3.7986,-3.7986,-3.7986,-3.7986,-3.7986,-3.7986,-3.7986,-3.7986,-3.7986,-3.7986,-3.7986,-3.7986,-3.7986,-3.7986,-3.7986,-3.7986,-3.7565,-3.7,0.0,0.0,0.0,0.0,0.0,0.0,0.0,0.0,0.0,0.0,0.0,0.0,0.0,0.0,0.0,0.0,0.0,0.0,0.0,-1.3764,-1.4512,-1.5216,-1.5997,-1.6591,-1.6996,-1.7213,-1.7656,-1.8386,-1.8386,-1.867,-1.9263,-1.9576,-1.9661,-1.9538,-2.0034,-2.0107,-1.982,-2.0039,-2.0475,0.0,0.0,-2.0392,-2.1155,-2.0745,-2.0561,-2.0592,-2.0894,-2.1109,-2.1385,-2.2593,-2.3167,-2.3545,-2.4349,-2.474,-2.5027,-2.5612,-2.606,-2.645,-2.6806,-2.6852,-2.6864,-2.7121,-2.719,-2.711,-2.6864,-2.7024,-2.7082,-2.6605,-2.7093,-2.7805,-2.8299,-2.8448,-2.8996,-3.0524,-3.0593,-3.0833,-3.1948,-3.2747,-3.335,-3.366,-3.4637,-3.547,-3.5994,-3.653,-3.7066,-3.7578,-3.7826,-3.7986,-3.7986,-3.7986,-3.7986,-3.7986,-3.7986,-3.7986,-3.7986,-3.7986,-3.7986,-3.7986,-3.7986,-3.7986,-3.7986,-3.7986,-3.7986,-3.7986,-3.7986,-3.7986,-3.7986,-3.7986,-3.7986,-3.7986,-3.7986,-3.7986,-3.7986,-3.7986,-3.7649,-3.7192,0.0,0.0,0.0,0.0,0.0,0.0,0.0,0.0,0.0,-1.0473,-1.0268,-0.9995,-0.9687,-0.9925,0.0,0.0,0.0,0.0,0.0,0.0,-1.3104,-1.3447,-1.4917,-1.5961,-1.6494,-1.6895,-1.7245,-1.7523,-1.7523,-1.7697,-1.8044,-1.8097,-1.8291,-1.8561,-1.8687,-1.8709,-1.8709,-1.8745,-1.9368,-2.0286,-1.931,-1.9614,-2.0473,0.0,-1.8856,-1.9241,-1.8908,-1.9844,-2.1408,-2.2742,-2.3304,-2.3499,-2.4039,-2.4522,-2.4923,-2.5004,-2.5986,-2.7047,-2.6708,-2.6887,-2.719,-2.719,-2.7133,-2.7128,-2.7128,-2.7041,-2.6909,-2.6501,-2.6726,-2.7144,-2.769,-2.7483,-2.7935,-3.025,-3.0331,-3.0537,-3.1727,-3.2808,-3.3452,-3.3392,-3.4299,-3.5121,-3.5639,-3.6179,-3.6673,-3.7042,-3.7613,-3.7933,-3.7933,-3.7986,-3.7986,-3.7986,-3.7986,-3.7986,-3.7986,-3.7986,-3.7986,-3.7986,-3.7986,-3.7986,-3.7986,-3.7986,-3.7986,-3.7986,-3.7986,-3.7986,-3.7986,-3.7986,-3.7986,-3.7986,-3.7986,-3.7986,-3.7986,-3.7986,-3.7697,-3.73,0.0,0.0,0.0,0.0,0.0,0.0,0.0,0.0,0.0,0.0,-1.1089,-1.0089,0.0,0.0,0.0,0.0,0.0,0.0,0.0,0.0,0.0,-1.1724,-1.2027,-1.2712,-1.3837,-1.3937,-1.4863,-1.6641,-1.6641,-1.6827,-1.722,-1.7615,-1.7614,-1.7331,-1.8,-1.8282,-1.8321,-1.8478,-1.8558,-1.8478,-1.769,-1.7535,-1.7668,-1.7017,0.0,0.0,-1.7974,-1.9516,-2.1305,-2.195,-2.2719,-2.3499,-2.4039,-2.4522,-2.5004,-2.544,-2.606,-2.6668,-2.7013,-2.7121,-2.719,-2.719,-2.6909,-2.6639,-2.6639,-2.6278,-2.5957,-2.5865,-2.5911,-2.6129,-2.6674,-2.7001,-2.7506,-2.8367,-2.9137,-2.9915,-3.0763,-3.1728,-3.2765,-3.3768,-3.4816,-3.5662,-3.6203,-3.6708,-3.6984,-3.7066,-3.7465,-3.7649,-3.7649,-3.7892,-3.7986,-3.7986,-3.7986,-3.7986,-3.7986,-3.7986,-3.7986,-3.7986,-3.7986,-3.7986,-3.7986,-3.7986,-3.7986,-3.7986,-3.7986,-3.7986,-3.7986,-3.7986,-3.7986,-3.7986,-3.7986,-3.7986,-3.7986,-3.7986,-3.7926,-3.7841,0.0,0.0,0.0,0.0,0.0,0.0,0.0,-1.2295,-1.2734,-1.4247,-1.3476,-1.2378,-1.1388,-1.0959,-1.049,0.0,0.0,0.0,0.0,0.0,0.0,0.0,0.0,0.0,-1.2547,-1.2806,-1.3318,-1.4112,0.0,-1.47,-1.4663,-1.5273,-1.5446,-1.524,-1.5635,-1.5821,-1.5848,-1.6321,-1.6347,-1.6074,-1.6072,-1.609,-1.6088,0.0,0.0,0.0,-1.7745,-1.9002,-2.0398,-2.1533,-2.2139,-2.2677,-2.384,-2.4522,-2.5015,-2.5555,-2.6255,-2.6921,-2.7121,-2.719,-2.7121,-2.6898,-2.6852,-2.6726,-2.6198,-2.5757,-2.5414,-2.5291,-2.4948,-2.4941,-2.5902,-2.6048,-2.645,-2.777,-2.839,-2.9063,-3.0034,-3.1159,-3.2154,-3.293,-3.4288,-3.5294,-3.555,-3.6259,-3.67,-3.67,-3.7089,-3.7423,-3.7596,-3.7838,-3.7986,-3.7986,-3.7986,-3.7986,-3.7986,-3.7986,-3.7986,-3.7986,-3.7986,-3.7986,-3.7986,-3.7986,-3.7986,-3.7986,-3.7986,-3.7986,-3.7986,-3.7986,-3.7986,-3.7986,-3.7986,-3.7986,-3.7986,-3.7986,-3.7986,-3.7986,0.0,0.0,0.0,0.0,0.0,0.0,0.0,-1.3613,-1.4056,-1.5908,-1.5822,-1.4983,-1.3408,-1.2346,-1.1258,0.0,0.0,0.0,0.0,0.0,0.0,0.0,0.0,0.0,-1.1611,0.0,0.0,-1.1993,-1.2634,0.0,0.0,0.0,0.0,0.0,-1.3521,-1.3597,-1.3641,-1.4235,-1.4272,0.0,0.0,-1.475,-1.4803,0.0,0.0,0.0,0.0,-1.8612,-1.9517,-2.1024,-2.1543,-2.1855,-2.3212,-2.416,-2.484,-2.5317,-2.6228,-2.7093,-2.7156,-2.7151,-2.699,-2.6703,-2.668,-2.6497,-2.5756,-2.5144,-2.4651,-2.4336,-2.3789,-2.366,-2.4653,-2.4777,-2.5325,-2.7047,-2.761,-2.8291,-2.9584,-3.0779,-3.1744,-3.2306,-3.3784,-3.4842,-3.4946,-3.5749,-3.632,-3.632,-3.6808,-3.7251,-3.7637,-3.7892,-3.7986,-3.7986,-3.7986,-3.7986,-3.7986,-3.7986,-3.7986,-3.7986,-3.7986,-3.7986,-3.7986,-3.7986,-3.7986,-3.7986,-3.7986,-3.7986,-3.7986,-3.7986,-3.7986,-3.7986,-3.7986,-3.7986,-3.7986,-3.7986,-3.7986,-3.7986,0.0,0.0,0.0,0.0,0.0,0.0,0.0,-1.411,-1.5231,-1.7111,-1.6995,-1.6522,-1.5992,-1.4375,-1.2577,0.0,0.0,0.0,0.0,0.0,0.0,0.0,0.0,0.0,0.0,0.0,0.0,-1.1993,-1.2064,0.0,0.0,0.0,0.0,0.0,0.0,-1.3597,-1.3589,-1.3663,0.0,0.0,0.0,0.0,0.0,0.0,0.0,0.0,0.0,-1.8612,-1.941,-2.0051,-2.0851,-2.1629,-2.1787,-2.2969,-2.4294,-2.4526,-2.556,-2.6674,-2.7064,-2.6887,-2.6674,-2.7059,-2.614,-2.5146,-2.5252,-2.4171,-2.3015,-2.2321,-2.2268,-2.2258,-2.2017,-2.3221,-2.4464,-2.5096,-2.6381,-2.7816,-2.933,-3.0411,-3.1593,-3.3032,-3.4119,-3.4969,-3.5405,-3.5944,-3.632,-3.632,-3.6808,-3.7346,-3.7933,-3.7986,-3.7986,-3.7986,-3.7986,-3.7986,-3.7986,-3.7986,-3.7986,-3.7986,-3.7986,-3.7986,-3.7986,-3.7986,-3.7986,-3.7986,-3.7986,-3.7986,-3.7986,-3.7986,-3.7986,-3.7986,-3.7986,-3.7986,-3.7986,-3.7986,-3.7986,-3.7986,0.0,0.0,0.0,0.0,0.0,0.0,-1.4053,-1.4213,-1.4975,-1.7775,-1.762,-1.7021,-1.6359,-1.5463,-1.3947,-1.1575,0.0,0.0,0.0,0.0,0.0,0.0,0.0,0.0,0.0,0.0,-1.0082,-1.057,-1.0967,0.0,0.0,0.0,0.0,0.0,0.0,-1.162,-1.1499,-1.2509,0.0,0.0,0.0,0.0,0.0,0.0,0.0,0.0,0.0,0.0,-1.8045,-1.9219,-1.9551,-1.9579,-2.0319,-2.1182,-2.2219,-2.3836,-2.4763,-2.5346,-2.5507,-2.5786,-2.5862,-2.5268,-2.4882,-2.4537,-2.4002,-2.2698,-2.1497,-2.1141,-2.0529,-2.0334,-2.1088,-2.2087,-2.3144,-2.4276,-2.552,-2.6944,-2.8758,-2.9894,-3.11,-3.2627,-3.3981,-3.4877,-3.5072,-3.5807,-3.6375,-3.6538,-3.6754,-3.7131,-3.7744,-3.788,-3.7986,-3.7986,-3.7986,-3.7986,-3.7986,-3.7986,-3.7986,-3.7986,-3.7986,-3.7986,-3.7986,-3.7986,-3.7986,-3.7986,-3.7986,-3.7986,-3.7986,-3.7986,-3.7986,-3.7986,-3.7986,-3.7986,-3.7986,-3.7986,-3.7986,-3.7986,0.0,0.0,0.0,0.0,0.0,-1.1073,-1.4207,-1.4316,-1.5,-1.7732,-1.7826,-1.7389,-1.6739,-1.5848,-1.4547,-1.2643,-1.114,0.0,0.0,0.0,0.0,0.0,0.0,0.0,0.0,0.0,-0.9658,-0.9747,-1.0223,-1.0458,0.0,0.0,-1.0899,-1.0544,0.0,0.0,0.0,0.0,0.0,0.0,0.0,0.0,0.0,0.0,0.0,0.0,0.0,0.0,0.0,0.0,0.0,-1.7993,-1.902,-1.9587,-2.0313,-2.2668,-2.352,-2.3866,-2.4537,-2.4736,-2.467,-2.4243,-2.3922,-2.3451,-2.253,-2.1257,-2.0137,-1.956,-1.8839,-1.8644,-1.9739,-2.0836,-2.2041,-2.3428,-2.4796,-2.6313,-2.8023,-2.9263,-3.0514,-3.188,-3.3407,-3.4463,-3.4773,-3.5692,-3.6375,-3.6592,-3.6646,-3.6928,-3.7423,-3.7732,-3.7933,-3.7986,-3.7986,-3.7986,-3.7986,-3.7986,-3.7986,-3.7986,-3.7986,-3.7986,-3.7986,-3.7986,-3.7986,-3.7986,-3.7986,-3.7986,-3.7986,-3.7986,-3.7986,-3.7986,-3.7986,-3.7986,-3.7986,-3.7986,-3.7986,-3.7986,0.0,0.0,0.0,0.0,0.0,0.0,-1.3156,-1.4478,-1.5617,-1.6781,-1.7538,-1.7886,-1.7531,-1.5454,-1.4101,-1.4076,-1.1985,0.0,0.0,0.0,0.0,0.0,0.0,0.0,0.0,0.0,-0.9756,-1.0083,-1.0106,-1.0115,-1.0123,-1.0851,-1.0978,-1.0624,0.0,0.0,0.0,0.0,0.0,0.0,0.0,0.0,0.0,0.0,0.0,0.0,0.0,0.0,0.0,0.0,0.0,0.0,0.0,-1.8291,-1.8975,-2.0791,-2.1604,-2.2401,-2.4607,-2.3905,-2.2943,-2.4748,-2.3481,-2.1624,-2.0895,-1.9986,-1.887,-1.7257,-1.7197,-1.7419,-1.7419,-1.9405,-2.1327,-2.2248,-2.4247,-2.6032,-2.7064,-2.8551,-2.9883,-3.0905,-3.2374,-3.3694,-3.4705,-3.5692,-3.632,-3.632,-3.6538,-3.6808,-3.7078,-3.7423,-3.7744,-3.7986,-3.7986,-3.7986,-3.7986,-3.7986,-3.7986,-3.7986,-3.7986,-3.7986,-3.7986,-3.7986,-3.7986,-3.7986,-3.7986,-3.7986,-3.7986,-3.7986,-3.7986,-3.7986,-3.7986,-3.7986,-3.7986,-3.7986,-3.7986,-3.7986,0.0,0.0,0.0,0.0,0.0,0.0,0.0,-1.2652,-1.3378,-1.4804,-1.4958,-1.5197,-1.5857,-1.459,-1.3596,-1.3386,-1.1464,0.0,0.0,0.0,0.0,0.0,0.0,0.0,0.0,-1.008,-1.0653,-1.1251,-1.1533,-1.1935,-1.244,-1.2645,-1.2442,-1.1826,-1.179,-1.12,0.0,0.0,0.0,0.0,0.0,0.0,-1.1806,0.0,0.0,0.0,0.0,0.0,0.0,0.0,0.0,0.0,0.0,0.0,0.0,-1.8779,-1.9782,-2.0757,-2.1724,-2.1996,-2.2007,-2.1983,-2.1225,-2.0456,-2.0192,-1.8845,-1.7444,-1.6649,-1.6151,-1.6069,-1.6865,-1.8117,-1.9531,-2.1177,-2.3384,-2.5309,-2.6601,-2.8356,-2.9998,-3.1364,-3.3353,-3.4762,-3.5221,-3.6048,-3.6483,-3.632,-3.6375,-3.6592,-3.7078,-3.7197,-3.7518,-3.7974,-3.7986,-3.7986,-3.7986,-3.7986,-3.7986,-3.7986,-3.7986,-3.7986,-3.7986,-3.7986,-3.7986,-3.7986,-3.7986,-3.7986,-3.7986,-3.7986,-3.7986,-3.7986,-3.7986,-3.7986,-3.7986,-3.7986,-3.7986,-3.7986,0.0,0.0,0.0,0.0,0.0,0.0,0.0,-1.1464,-1.2148,-1.3125,-1.3399,-1.3785,-1.4495,-1.3532,-1.2763,-1.2569,-1.0918,0.0,0.0,0.0,0.0,0.0,0.0,0.0,-0.9781,-1.0548,-1.1413,-1.2438,-1.2851,-1.3348,-1.3956,-1.4084,-1.3673,-1.28,-1.2432,-1.1763,0.0,0.0,0.0,0.0,0.0,0.0,-1.158,0.0,0.0,0.0,0.0,0.0,0.0,0.0,0.0,0.0,0.0,0.0,0.0,0.0,-1.8414,-1.9237,-2.0294,-2.0612,-2.06,-2.0575,-1.9907,-1.9153,-1.8837,-1.7666,-1.6532,-1.5973,-1.534,-1.5216,-1.6411,-1.7434,-1.8646,-2.0306,-2.28,-2.4861,-2.5926,-2.7856,-2.9768,-3.1295,-3.3581,-3.508,-3.5091,-3.5964,-3.6538,-3.6483,-3.6386,-3.6483,-3.6916,-3.697,-3.7239,-3.7838,-3.7933,-3.7986,-3.7986,-3.7986,-3.7986,-3.7986,-3.7986,-3.7986,-3.7986,-3.7986,-3.7986,-3.7986,-3.7986,-3.7986,0.0,-3.7986,-3.7986,-3.7986,-3.7986,-3.7986,-3.7986,-3.7986,-3.7986,-3.7986,0.0,0.0,0.0,0.0,0.0,0.0,0.0,-1.0855,-1.1669,-1.1669,-1.2592,-1.328,-1.3305,-1.2327,-1.1669,-1.1669,0.0,0.0,0.0,0.0,0.0,0.0,0.0,0.0,-1.0203,-1.0951,-1.2055,-1.3596,-1.3956,-1.4367,-1.4845,-1.5163,-1.4744,-1.3656,-1.3271,-1.2854,0.0,0.0,0.0,0.0,-1.1852,-1.1828,0.0,0.0,0.0,0.0,0.0,0.0,0.0,0.0,0.0,0.0,0.0,0.0,0.0,0.0,0.0,0.0,0.0,-1.9573,-1.9027,-2.0294,-1.9374,-1.7963,-1.7211,-1.6707,0.0,-1.5432,-1.4955,-1.5029,-1.616,-1.7311,-1.8502,-1.9718,-2.2436,-2.4585,-2.5142,-2.7316,-2.9424,-3.0939,-3.3292,-3.4705,-3.4453,-3.5606,-3.6429,-3.67,-3.6429,-3.6429,-3.67,-3.67,-3.6982,-3.7596,-3.7838,-3.7986,-3.7986,-3.7986,-3.7986,-3.7986,-3.7986,-3.7986,-3.7986,-3.7986,-3.7986,-3.7986,-3.7986,-3.7986,-3.7986,-3.7986,-3.7986,-3.7986,-3.7986,-3.7986,-3.7986,-3.7986,-3.7986,-3.7986,0.0,0.0,0.0,0.0,0.0,0.0,0.0,0.0,0.0,0.0,-1.0738,-1.102,-1.1319,-1.0849,-1.0493,0.0,0.0,0.0,0.0,0.0,0.0,0.0,0.0,0.0,-1.137,-1.1593,-1.2566,-1.441,-1.4504,-1.5068,-1.6004,-1.6345,-1.6071,-1.5232,-1.4572,-1.3425,0.0,0.0,0.0,0.0,-1.1452,-1.1494,0.0,0.0,0.0,0.0,-1.3314,-1.3999,0.0,0.0,0.0,0.0,0.0,0.0,0.0,0.0,-1.634,-1.6695,-1.7178,0.0,-1.9222,-1.955,-1.909,-1.8522,0.0,-1.7734,-1.7165,-1.6972,-1.6624,-1.6523,-1.711,-1.7694,-1.8481,-1.9708,-2.197,-2.3965,-2.505,-2.8244,-3.0893,-3.2007,-3.3896,-3.508,-3.5004,-3.5973,-3.6646,-3.67,-3.6429,-3.6429,-3.67,-3.6916,-3.7197,-3.7596,-3.7838,-3.7986,-3.7986,-3.7986,-3.7986,-3.7986,-3.7986,-3.7986,-3.7986,-3.7986,-3.7986,-3.7986,-3.7986,-3.7986,-3.7986,-3.7986,-3.7986,-3.7986,-3.7986,-3.7986,-3.7986,-3.7986,-3.7986,-3.7986,0.0,0.0,0.0,0.0,0.0,0.0,0.0,0.0,0.0,0.0,0.0,-1.0109,-1.0183,-1.0004,0.0,0.0,0.0,0.0,0.0,0.0,0.0,0.0,0.0,-1.1105,-1.2045,-1.2583,-1.3639,-1.5197,-1.554,-1.6105,-1.6905,-1.7072,-1.6773,-1.6002,-1.5095,-1.3716,0.0,0.0,0.0,-1.1301,-1.1301,0.0,0.0,0.0,0.0,0.0,-1.316,-1.3815,0.0,-1.4661,-1.4826,-1.5036,0.0,0.0,0.0,0.0,-1.5707,-1.6074,-1.6266,-1.7376,-1.8467,-1.8467,-1.8458,-1.8394,-1.8201,-1.7816,-1.744,-1.7266,-1.7055,-1.7092,-1.7678,-1.848,-1.9212,-1.98,-2.2523,-2.5217,-2.7216,-2.9736,-3.1559,-3.2087,-3.3857,-3.4982,-3.4841,-3.5956,-3.67,-3.67,-3.6592,-3.6483,-3.6538,-3.6754,-3.7036,-3.737,-3.7691,-3.7892,-3.7986,-3.7986,-3.7986,-3.7986,-3.7986,-3.7986,-3.7986,-3.7986,-3.7986,-3.7986,-3.7986,-3.7986,-3.7986,-3.7986,-3.7986,-3.7986,-3.7986,-3.7986,-3.7986,-3.7986,-3.7986,-3.7986,0.0,0.0,0.0,0.0,0.0,0.0,0.0,0.0,0.0,0.0,0.0,0.0,0.0,0.0,0.0,0.0,0.0,0.0,0.0,0.0,0.0,0.0,-1.0985,-1.1764,-1.2637,-1.3716,-1.4829,-1.5977,-1.6721,-1.7278,-1.7677,-1.7625,-1.709,-1.6171,-1.5155,-1.3862,0.0,0.0,-1.1961,-1.1301,-1.1301,0.0,0.0,0.0,0.0,0.0,0.0,0.0,0.0,-1.4781,-1.4997,-1.5011,-1.5164,0.0,0.0,0.0,0.0,0.0,-1.6092,-1.6844,-1.7495,-1.7495,-1.7899,-1.8192,-1.777,-1.7724,-1.7678,-1.7339,-1.7275,-1.7513,-1.8323,-1.9326,-2.0101,-2.0257,-2.3554,-2.7038,-2.9725,-3.0996,-3.1733,-3.1802,-3.343,-3.4521,-3.4395,-3.5736,-3.6619,-3.6754,-3.6754,-3.6646,-3.6429,-3.6712,-3.6916,-3.7197,-3.7477,-3.7797,-3.7986,-3.7986,-3.7986,-3.7986,-3.7986,-3.7986,-3.7986,-3.7986,-3.7986,-3.7986,-3.7986,-3.7986,-3.7986,-3.7986,-3.7986,-3.7986,-3.7986,-3.7986,-3.7986,-3.7986,-3.7868,-3.7708,0.0,0.0,0.0,0.0,0.0,0.0,0.0,0.0,0.0,0.0,0.0,0.0,0.0,0.0,0.0,0.0,0.0,0.0,0.0,0.0,0.0,-1.1078,-1.1524,-1.2378,-1.3802,-1.4624,-1.56,-1.671,-1.7461,-1.8049,-1.8408,-1.81,-1.7171,-1.5848,-1.5043,-1.4016,-1.2897,-1.2535,-1.1961,-1.1301,-1.1301,0.0,0.0,0.0,0.0,0.0,0.0,0.0,0.0,-1.4152,-1.4689,-1.5218,-1.4646,0.0,0.0,0.0,0.0,0.0,-1.5588,-1.6624,-1.7495,-1.7495,-1.8311,-1.9017,-1.8614,-1.8788,-1.9008,-1.8944,-1.8935,-1.9166,-1.9976,-2.0004,-2.0357,-2.1719,-2.4496,-2.7222,-2.9328,-3.0491,-3.1283,-3.1767,-3.2799,-3.3749,-3.4326,-3.5434,-3.6365,-3.6989,-3.7024,-3.7024,-3.697,-3.7316,-3.7489,-3.7542,-3.7785,-3.7986,-3.7986,-3.7986,-3.7986,-3.7986,-3.7986,-3.7986,-3.7986,-3.7986,-3.7986,-3.7986,-3.7986,-3.7986,-3.7986,-3.7986,-3.7986,-3.7986,-3.7986,-3.7986,-3.7986,-3.7986,-3.7322,-3.646,0.0,0.0,0.0,0.0,0.0,0.0,0.0,0.0,0.0,0.0,0.0,0.0,0.0,0.0,0.0,0.0,0.0,0.0,0.0,0.0,0.0,-1.1842,-1.2432,-1.3139,-1.4076,-1.5198,-1.6035,-1.6564,-1.7766,-1.8425,-1.8571,-1.7997,-1.7038,-1.5771,-1.5018,-1.4273,-1.3528,-1.2732,-1.2081,-1.1559,0.0,0.0,0.0,0.0,0.0,0.0,0.0,0.0,0.0,0.0,-1.4422,-1.4989,-1.4577,0.0,0.0,0.0,0.0,0.0,-1.5533,-1.6569,-1.7495,-1.7495,-1.8577,-1.9595,-1.9372,-1.9338,-1.9301,-1.9301,-1.9485,-1.9762,-2.0113,-2.1233,-2.2885,-2.5349,-2.6494,-2.7804,-3.0011,-3.0721,-3.1295,-3.2064,-3.2569,-3.3204,-3.4076,-3.4738,-3.5393,-3.6022,-3.6473,-3.6732,-3.6732,-3.7281,-3.7596,-3.7596,-3.7838,-3.7986,-3.7986,-3.7986,-3.7986,-3.7986,-3.7986,-3.7986,-3.7986,-3.7986,-3.7986,-3.7986,-3.7322,-3.7388,-3.7921,-3.6599,-3.6815,-3.7868,-3.6545,-3.6437,-3.7054,-3.7054,-3.7108,-3.7108,0.0,0.0,0.0,0.0,0.0,0.0,0.0,0.0,0.0,0.0,0.0,0.0,0.0,0.0,0.0,0.0,0.0,0.0,0.0,0.0,-1.0747,-1.2201,-1.3151,-1.3956,-1.4607,-1.6096,-1.6863,-1.6995,-1.8425,-1.8896,-1.8451,-1.7994,-1.7081,-1.5891,-1.5146,-1.4598,-1.4153,-1.292,-1.2175,-1.178,0.0,0.0,0.0,0.0,0.0,0.0,0.0,0.0,0.0,0.0,0.0,0.0,0.0,0.0,0.0,-1.4732,-1.497,-1.5469,-1.5863,-1.6853,-1.7825,-1.8018,-1.8935,-1.9747,-1.9747,-1.9531,-1.9329,-1.943,-1.9622,-1.9874,-2.0263,-2.2401,-2.4999,-2.7598,-2.7734,-2.8265,-3.0354,-3.0755,-3.1111,-3.1857,-3.2064,-3.2535,-3.3545,-3.4005,-3.4504,-3.5155,-3.5823,-3.6255,-3.6308,-3.6896,-3.728,-3.7333,-3.752,-3.7613,-3.7613,-3.7613,-3.7733,-3.7986,-3.7986,-3.7986,-3.7986,-3.7986,-3.7986,-3.7933,-3.7,-3.7162,-3.7868,-3.5991,-3.6317,-3.7814,-3.5936,-3.5619,-3.6177,-3.5904,-3.6165,-3.6599,0.0,0.0,0.0,0.0,0.0,0.0,0.0,0.0,0.0,0.0,0.0,0.0,0.0,0.0,0.0,0.0,0.0,0.0,0.0,0.0,-1.0612,-1.1798,-1.328,-1.4718,-1.6103,-1.7655,-1.8605,-1.9007,-2.0146,-1.9812,-1.8042,-1.8374,-1.7715,-1.6223,-1.5479,-1.4975,-1.4579,-1.3031,-1.2175,-1.178,-1.1422,0.0,0.0,0.0,0.0,0.0,0.0,0.0,0.0,0.0,0.0,0.0,0.0,0.0,-1.5165,-1.4854,-1.5478,-1.6288,-1.6707,-1.7706,-1.8806,-1.9527,-1.9549,-1.9347,-1.9347,-1.932,-1.9412,-1.9765,-1.9595,-1.9808,-2.1284,-2.334,-2.508,-2.5854,-2.7093,-2.8353,-2.9451,-2.9998,-3.0296,-3.0376,-3.0813,-3.1502,-3.25,-3.3287,-3.4133,-3.5149,-3.546,-3.5793,-3.5999,-3.6086,-3.6212,-3.6468,-3.6519,-3.6519,-3.6519,-3.6519,-3.7012,-3.7986,-3.7986,-3.7986,-3.7986,-3.7986,-3.7986,-3.7986,-3.7933,-3.7933,-3.7986,-3.7814,-3.7814,-3.7974,-3.7814,-3.7108,-3.6068,-3.4947,-3.3899,-3.3073,0.0,0.0,0.0,0.0,0.0,0.0,0.0,0.0,0.0,0.0,0.0,0.0,0.0,0.0,0.0,0.0,0.0,0.0,0.0,-0.9696,-1.0721,-1.2124,-1.3177,-1.4547,-1.6302,-1.7817,-1.8818,-1.9213,-2.0078,-1.9778,-1.8374,-1.8288,-1.7569,-1.6347,-1.5557,-1.5137,-1.4915,-1.3399,-1.2535,-1.2149,-1.1746,-1.149,0.0,0.0,0.0,0.0,0.0,0.0,0.0,0.0,-1.2794,-1.3447,-1.3595,-1.4158,-1.4786,-1.457,-1.536,-1.6404,-1.6798,-1.7789,-1.8907,-1.9683,-1.9774,-1.9655,-1.9655,-1.9879,-2.0108,-2.0223,-2.0365,-2.0922,-2.2645,-2.3595,-2.482,-2.686,-2.7646,-2.8464,-2.976,-3.0101,-3.0342,-3.0675,-3.0595,-3.1031,-3.2363,-3.2483,-3.2987,-3.4167,-3.4618,-3.5047,-3.5464,-3.5812,-3.6093,-3.6411,-3.6411,-3.6411,-3.6411,-3.6411,-3.6603,-3.7,-3.7,-3.7,-3.7,-3.7,-3.718,-3.744,-3.672,-3.6577,-3.6785,-3.5289,-3.5113,-3.5717,-3.5002,-3.4458,-3.3966,-3.3515,-3.3515,-3.3786,0.0,0.0,0.0,0.0,0.0,0.0,0.0,0.0,0.0,0.0,0.0,0.0,0.0,0.0,0.0,0.0,0.0,0.0,-0.9175,-0.9884,-1.0977,-1.2509,-1.3417,-1.4709,-1.6527,-1.7877,-1.8818,-1.9213,-1.9804,-1.947,-1.8269,-1.798,-1.7381,-1.6527,-1.5608,-1.5283,-1.5292,-1.3665,-1.2786,-1.2363,-1.196,-1.1593,0.0,0.0,0.0,0.0,0.0,0.0,0.0,0.0,-1.2247,-1.2848,-1.3324,-1.3878,-1.4413,-1.4666,-1.5617,-1.6693,-1.6983,-1.7972,-1.9063,-1.9719,-1.9893,-1.9921,-2.0049,-2.0287,-2.0558,-2.0677,-2.1227,-2.1993,-2.3052,-2.3818,-2.4921,-2.6966,-2.768,-2.8394,-2.9544,-2.9977,-3.0354,-3.0721,-3.0434,-3.0755,-3.2121,-3.1949,-3.2216,-3.3499,-3.3943,-3.438,-3.4831,-3.5263,-3.5604,-3.5905,-3.5905,-3.5905,-3.5905,-3.5542,-3.539,-3.539,-3.5063,-3.5404,-3.6411,-3.603,-3.6117,-3.641,-3.521,-3.4925,-3.5156,-3.3503,-3.3281,-3.3933,-3.3181,-3.2633,-3.2296,-3.2296,-3.2511,-3.2881,0.0,0.0,0.0,0.0,0.0,0.0,0.0,0.0,0.0,0.0,0.0,0.0,0.0,0.0,0.0,0.0,0.0,0.0,-0.9581,-1.0285,-1.137,-1.2932,-1.4067,-1.5369,-1.6867,-1.7997,-1.881,-1.9213,-1.9555,-1.8956,-1.7505,-1.7505,-1.7278,-1.6867,-1.5728,-1.5437,-1.5668,-1.3816,-1.2786,-1.2363,-1.1968,-1.1619,-1.1301,0.0,0.0,0.0,0.0,0.0,0.0,0.0,-1.1815,-1.2079,-1.3605,-1.3951,-1.4048,-1.5327,-1.6455,-1.7352,-1.7468,-1.8385,-1.9402,-1.9783,-1.9893,-2.0003,-2.0387,-2.053,-2.064,-2.1044,-2.2053,-2.2785,-2.2364,-2.407,-2.5538,-2.5693,-2.6967,-2.8122,-2.8612,-2.9566,-3.017,-3.017,-3.017,-3.0572,-3.1651,-3.1766,-3.219,-3.3201,-3.353,-3.3779,-3.4075,-3.4249,-3.4482,-3.4775,-3.4775,-3.4775,-3.4775,-3.3709,-3.3201,-3.3151,-3.2083,-3.326,-3.6336,-3.5275,-3.4797,-3.4693,-3.3632,-3.3219,-3.3165,-3.309,-3.309,-3.3165,-3.3165,-3.2416,-3.1397,-3.1397,-3.065,-2.9626,0.0,0.0,0.0,0.0,0.0,0.0,0.0,0.0,0.0,0.0,0.0,0.0,0.0,0.0,0.0,0.0,0.0,0.0,-0.9581,-1.0285,-1.1131,-1.2105,-1.3262,-1.4324,-1.5326,-1.6704,-1.7989,-1.9213,-1.9555,-1.8786,-1.7098,-1.762,-1.7389,-1.6527,-1.5899,-1.554,-1.53,-1.393,-1.298,-1.2406,-1.2577,-1.2089,-1.1327,0.0,0.0,0.0,0.0,0.0,0.0,0.0,0.0,0.0,-1.2672,-1.3333,-1.3974,-1.488,-1.6137,-1.7288,-1.7624,-1.87,-1.9729,-1.9857,-2.0347,-2.0787,-2.0906,-2.1163,-2.1531,-2.2217,-2.2657,-2.2959,-2.3105,-2.3666,-2.4436,-2.5499,-2.6106,-2.6676,-2.751,-2.7898,-2.8085,-2.8085,-2.8085,-2.8614,-3.0027,-2.9813,-3.0121,-3.1451,-3.1389,-3.141,-3.1706,-3.2689,-3.3062,-3.2538,-3.33,-3.33,-3.2538,-3.2235,-3.2083,-3.2083,-3.1728,-3.2086,-3.3028,-3.267,-3.2745,-3.3079,-3.2765,-3.2382,-3.1876,-3.1014,-3.064,-3.065,-3.065,-3.0429,-3.0107,-3.0107,-2.9895,-2.9626,0.0,0.0,0.0,0.0,0.0,0.0,0.0,0.0,0.0,0.0,-0.6767,-0.7124,0.0,0.0,0.0,0.0,0.0,0.0,-0.9514,-1.0098,-1.0906,-1.1994,-1.2988,-1.3947,-1.4881,-1.6079,-1.7132,-1.8049,-1.8579,-1.8177,-1.6898,-1.7535,-1.7449,-1.6819,-1.6413,-1.6028,-1.5591,-1.4461,-1.3536,-1.286,-1.3091,-1.2595,-1.1773,0.0,0.0,0.0,0.0,0.0,0.0,0.0,0.0,0.0,-1.2175,-1.2791,-1.3522,-1.4868,-1.6129,-1.727,-1.7968,-1.9,-1.9893,-1.9893,-2.025,-2.0769,-2.1245,-2.1513,-2.1879,-2.2519,-2.2913,-2.3215,-2.3453,-2.3764,-2.4258,-2.5011,-2.546,-2.5926,-2.6532,-2.6952,-2.7189,-2.7189,-2.7189,-2.7662,-2.8807,-2.8582,-2.8854,-3.0098,-3.0143,-3.0126,-3.028,-3.1444,-3.1821,-3.1179,-3.2073,-3.2235,-3.1637,-3.1165,-3.0908,-3.0908,-3.0494,-3.0297,-3.0297,-3.0753,-3.1109,-3.1377,-3.0969,-3.0555,-3.0123,-2.9381,-2.9062,-2.9062,-2.9062,-2.9062,-2.9062,-2.9062,-2.9062,-2.9062,0.0,0.0,0.0,0.0,0.0,0.0,0.0,0.0,0.0,-0.5453,-0.5899,-0.6231,0.0,0.0,0.0,-0.7146,-0.7243,-0.7896,-0.9295,-0.9771,-1.0671,-1.2212,-1.3028,-1.3964,-1.5035,-1.5806,-1.6173,-1.6197,-1.7098,-1.7295,-1.6876,-1.7385,-1.754,-1.7385,-1.7055,-1.667,-1.6218,-1.512,-1.4153,-1.3408,-1.3476,-1.3014,-1.2295,-1.2363,0.0,0.0,0.0,0.0,0.0,0.0,0.0,0.0,-1.1944,-1.2312,-1.28,-1.503,-1.6324,-1.7251,-1.8343,-1.9298,-1.993,-1.9847,-1.9893,-2.025,-2.1421,-2.1696,-2.1824,-2.2291,-2.295,-2.3462,-2.3535,-2.4216,-2.4652,-2.4266,-2.4971,-2.5548,-2.5548,-2.635,-2.6952,-2.6952,-2.6952,-2.7164,-2.7751,-2.7737,-2.8087,-2.8981,-2.9226,-2.9338,-2.9338,-3.0298,-3.0606,-3.0231,-3.0922,-3.1283,-3.1319,-3.0245,-2.9734,-2.9723,-2.8751,-2.8291,-2.8344,-2.9313,-2.9765,-2.9723,-2.8698,-2.8291,-2.8291,-2.8291,-2.8291,-2.8291,-2.8291,-2.8291,-2.8291,-2.8291,-2.8291,-2.8291,0.0,0.0,0.0,0.0,0.0,0.0,0.0,0.0,-0.4862,-0.5087,-0.5441,-0.5739,-0.5881,-0.6256,0.0,-0.6874,-0.7137,-0.7656,-0.8505,-0.9471,-1.0381,-1.1258,-1.2453,-1.3339,-1.3862,-1.4341,-1.4863,-1.5454,-1.7107,-1.7424,-1.6536,-1.7797,-1.7715,-1.6584,-1.6816,-1.637,-1.5403,-1.4572,-1.3605,-1.268,-1.3271,-1.2706,-1.1602,-1.2166,-1.1953,0.0,0.0,0.0,0.0,0.0,0.0,0.0,-1.125,-1.1721,-1.2338,-1.4334,-1.5912,-1.7178,-1.7999,-1.929,-2.0237,-1.9595,-1.9916,-2.0589,-2.1485,-2.1696,-2.198,-2.3023,-2.3123,-2.3224,-2.3904,-2.4211,-2.4312,-2.422,-2.439,-2.4538,-2.4538,-2.4726,-2.4873,-2.4873,-2.4873,-2.5196,-2.6112,-2.5756,-2.5875,-2.6873,-2.6761,-2.6666,-2.6666,-2.7893,-2.8401,-2.7982,-2.8645,-2.9014,-2.9006,-2.8476,-2.8318,-2.8654,-2.8388,-2.8291,-2.8291,-2.8548,-2.8644,-2.8644,-2.8398,-2.8291,-2.8291,-2.8291,-2.8291,-2.8291,-2.8291,-2.8291,-2.8291,-2.8291,-2.8291,-2.8291,0.0,0.0,0.0,0.0,0.0,0.0,0.0,0.0,-0.4502,-0.4643,-0.4806,-0.4964,-0.5068,-0.5294,0.0,0.0,-0.6084,-0.6702,-0.788,-0.851,-0.9388,-1.0559,-1.1285,-1.1963,-1.2593,-1.2959,-1.3664,-1.4675,-1.5857,-1.631,-1.615,-1.7252,-1.7269,-1.6362,-1.6935,-1.6458,-1.5165,-1.4782,-1.3855,-1.2677,-1.3275,-1.2826,-1.1876,-1.2244,-1.1953,-1.125,-1.0832,0.0,0.0,0.0,0.0,0.0,0.0,0.0,-1.1971,-1.396,-1.5472,-1.6732,-1.7921,-1.9063,-1.9925,-1.9888,-2.0209,-2.0732,-2.1504,-2.1696,-2.1925,-2.2748,-2.2913,-2.3151,-2.4055,-2.4202,-2.4202,-2.4202,-2.4202,-2.4202,-2.4202,-2.4202,-2.4202,-2.4202,-2.4202,-2.4399,-2.4922,-2.4694,-2.4807,-2.5538,-2.5502,-2.5479,-2.5479,-2.6509,-2.6941,-2.6683,-2.7196,-2.7665,-2.7988,-2.7826,-2.7881,-2.8291,-2.8291,-2.8291,-2.8291,-2.8291,-2.8291,-2.8291,-2.8291,-2.8291,-2.8291,-2.8291,-2.8291,-2.8291,-2.8291,-2.8291,-2.8291,-2.8291,-2.8291,-2.8291,0.0,0.0,0.0,0.0,0.0,0.0,0.0,0.0,0.0,-0.4296,-0.4296,-0.4296,-0.4296,-0.4366,-0.4515,0.0,0.0,0.0,-0.7116,-0.7461,-0.8329,-1.0003,-0.9996,-1.0394,-1.1285,-1.1562,-1.2282,-1.3515,-1.3892,-1.4529,-1.5384,-1.6436,-1.6644,-1.6227,-1.7051,-1.6493,-1.5008,-1.502,-1.4172,-1.2854,-1.3312,-1.3059,-1.2406,-1.2422,-1.2034,-1.1404,-1.0845,0.0,0.0,0.0,0.0,0.0,0.0,0.0,-1.1251,-1.3334,-1.4749,-1.6005,-1.7698,-1.8756,-1.9536,-2.0204,-2.0466,-2.0671,-2.1412,-2.1641,-2.1806,-2.2199,-2.2556,-2.305,-2.3904,-2.4101,-2.4119,-2.4192,-2.4202,-2.4202,-2.4202,-2.4202,-2.4202,-2.4202,-2.4202,-2.4202,-2.4202,-2.4202,-2.4349,-2.4647,-2.49,-2.4982,-2.4982,-2.5613,-2.6022,-2.6093,-2.6275,-2.6804,-2.7708,-2.764,-2.7764,-2.8184,-2.8262,-2.8291,-2.8291,-2.8291,-2.8291,-2.8291,-2.8291,-2.8291,-2.8291,-2.8291,-2.8291,-2.8291,-2.8291,-2.8291,-2.8291,-2.8291,-2.8291,-2.8291,0.0,0.0,0.0,0.0,0.0,0.0,0.0,0.0,0.0,0.0,-0.4296,-0.4296,-0.4296,-0.4366,-0.4415,-0.4465,-0.4745,-0.5132,-0.5665,0.0,0.0,-0.945,-0.9171,-0.9305,-1.0012,-1.0072,-1.0446,-1.1139,-1.1443,-1.229,-1.3688,-1.588,-1.6362,-1.5411,-1.6507,-1.5975,-1.4244,-1.4252,-1.3562,-1.2523,-1.3203,-1.3057,-1.2402,-1.2473,-1.2385,-1.2095,-1.0813,-1.0368,-1.0218,-0.93,-0.8672,0.0,0.0,0.0,-0.9432,-1.1466,-1.3177,-1.4866,-1.6818,-1.8451,-1.9643,-1.9898,-2.0223,-2.064,-2.1089,-2.1431,-2.1806,-2.2199,-2.2327,-2.2611,-2.3425,-2.3572,-2.3739,-2.4146,-2.4202,-2.4202,-2.4202,-2.4202,-2.4202,-2.4202,-2.4202,-2.4202,-2.4202,-2.4202,-2.422,-2.4284,-2.4474,-2.4563,-2.4563,-2.4867,-2.5505,-2.6487,-2.5852,-2.6164,-2.7708,-2.7295,-2.7324,-2.7806,-2.8115,-2.8291,-2.8291,-2.8291,-2.8291,-2.8291,-2.8291,-2.8291,-2.8291,-2.8291,-2.8291,-2.8291,-2.8291,-2.8291,-2.8291,-2.8291,-2.8291,-2.8291,0.0,0.0,0.0,0.0,0.0,0.0,0.0,0.0,0.0,0.0,0.0,-0.4296,-0.4296,-0.4328,-0.4366,-0.4398,-0.4532,-0.4848,-0.536,-0.6434,-0.7309,-0.7913,-0.793,-0.8184,-0.8778,-0.8948,-0.9415,-1.0193,-1.0457,-1.1188,-1.2327,-1.4257,-1.5176,-1.5198,-1.534,-1.4784,-1.3727,-1.3347,-1.2635,-1.18,-1.2779,-1.3075,-1.292,-1.3028,-1.3245,-1.3351,-1.1962,-1.115,-1.0564,-0.9445,-0.8637,-0.8105,-0.8119,0.0,0.0,0.0,-1.1772,-1.3358,-1.644,-1.8067,-1.9132,-2.0008,-2.0186,-2.0314,-2.097,-2.1245,-2.1502,-2.1861,-2.1952,-2.2199,-2.3014,-2.316,-2.3224,-2.3455,-2.3666,-2.3813,-2.3813,-2.4005,-2.4202,-2.4202,-2.4202,-2.4202,-2.4202,-2.4202,-2.4251,-2.4341,-2.4587,-2.4784,-2.4932,-2.5088,-2.5408,-2.608,-2.5584,-2.5932,-2.7295,-2.7109,-2.7353,-2.8018,-2.8203,-2.8291,-2.8291,-2.8291,-2.8291,-2.8291,-2.8291,-2.8291,-2.8291,-2.8291,-2.8291,-2.8291,-2.8291,-2.8291,-2.8291,-2.8291,-2.8291,-2.8291,0.0,0.0,0.0,0.0,0.0,0.0,0.0,0.0,0.0,0.0,0.0,-0.4296,-0.4296,0.0,0.0,0.0,-0.4366,-0.4616,-0.5218,-0.5894,-0.6373,-0.6533,-0.6837,-0.7217,-0.7685,-0.7865,-0.8371,-0.9251,-0.9486,-1.018,-1.1313,-1.276,-1.3996,-1.5042,-1.4638,-1.4049,-1.3316,-1.2697,-1.2144,-1.1744,-1.2811,-1.3506,-1.3891,-1.4064,-1.453,-1.4874,-1.3338,-1.2315,-1.1441,-0.9959,-0.8884,-0.8092,-0.7799,-0.784,0.0,0.0,0.0,-1.2369,-1.5728,-1.7255,-1.8237,-1.9634,-1.9907,-1.9998,-2.0625,-2.0888,-2.1071,-2.1449,-2.1531,-2.1751,-2.2474,-2.2684,-2.2785,-2.2895,-2.3151,-2.3343,-2.3343,-2.3657,-2.3849,-2.3849,-2.3849,-2.3849,-2.3849,-2.3849,-2.3938,-2.4084,-2.4416,-2.4668,-2.4861,-2.5112,-2.5373,-2.5684,-2.5489,-2.5895,-2.7012,-2.7129,-2.7559,-2.8291,-2.8291,-2.8291,-2.8291,-2.8291,-2.8291,-2.8291,-2.8291,-2.8291,-2.8291,-2.8291,-2.8291,-2.8291,-2.8291,-2.8291,-2.8291,-2.8291,-2.8291,-2.8291,0.0,0.0,0.0,0.0,0.0,0.0,0.0,0.0,0.0,0.0,0.0,-0.4296,-0.4296,-0.4296,-0.4296,-0.4296,-0.4296,-0.4455,-0.4801,-0.5223,-0.5572,-0.5852,-0.6223,0.0,-0.6846,-0.6761,-0.7037,-0.7715,-0.786,-0.8896,-1.0769,-1.1875,-1.3166,-1.4665,-1.4971,-1.4338,-1.2897,-1.2478,-1.2489,-1.2875,-1.3851,-1.4681,-1.541,-1.5757,-1.6263,-1.6625,-1.4639,-1.3721,-1.3132,-1.0971,-0.9371,-0.8115,-0.7163,-0.7034,-0.7403,0.0,0.0,0.0,-1.4312,-1.5646,-1.6839,-1.8169,-1.9069,-1.9679,-1.9898,-2.0241,-2.0668,-2.1062,-2.1135,-2.1273,-2.1668,-2.2062,-2.2446,-2.2849,-2.2922,-2.294,-2.294,-2.2959,-2.2968,-2.2968,-2.2968,-2.2968,-2.2968,-2.2968,-2.2968,-2.2968,-2.3467,-2.3795,-2.3785,-2.4638,-2.5293,-2.5674,-2.5693,-2.6103,-2.7012,-2.7422,-2.7851,-2.8291,-2.8291,-2.8291,-2.8291,-2.8291,-2.8291,-2.8291,-2.8291,-2.8291,-2.8291,-2.8291,-2.8291,-2.8291,-2.8291,-2.8291,-2.8291,-2.8291,-2.8291,-2.8291,0.0,0.0,0.0,0.0,0.0,0.0,0.0,0.0,0.0,0.0,0.0,0.0,0.0,-0.4421,-0.4502,-0.4502,-0.4502,-0.4503,-0.4538,-0.4848,-0.5083,-0.5212,-0.5518,-0.5835,-0.6157,-0.6243,-0.6496,-0.696,-0.7352,-0.8084,-0.9122,-1.0684,-1.1739,-1.2405,-1.3224,-1.3367,-1.2944,-1.1594,-1.1181,-1.1673,-1.3812,-1.4954,-1.5466,-1.6858,-1.7596,-1.7612,-1.5294,-1.4183,-1.3452,-1.1276,-0.9788,-0.8692,-0.7976,-0.7515,-0.7283,-0.7682,-0.9041,-1.0777,-1.2594,-1.3813,-1.5049,-1.709,-1.7883,-1.8412,-1.9462,-1.9912,-2.0287,-2.097,-2.1108,-2.1236,-2.1614,-2.1806,-2.1952,-2.2108,-2.2336,-2.2501,-2.2501,-2.2739,-2.2904,-2.2904,-2.2904,-2.2904,-2.2904,-2.2904,-2.2951,-2.3121,-2.3346,-2.3579,-2.3961,-2.4291,-2.4586,-2.4836,-2.4893,-2.5255,-2.6132,-2.6631,-2.7197,-2.7891,-2.7891,-2.8027,-2.8291,-2.8291,-2.8291,-2.831,-2.8574,-2.8701,-2.8711,-2.8994,-2.8945,-2.8701,-2.8701,-2.8535,-2.8291,-2.8291,-2.8125,-2.7891,0.0,0.0,0.0,0.0,0.0,0.0,0.0,0.0,0.0,-0.4752,0.0,0.0,0.0,0.0,-0.4732,-0.4732,-0.4587,-0.4491,-0.4465,-0.4677,-0.4818,-0.4871,-0.5146,-0.5396,-0.5628,-0.5728,-0.5975,-0.6443,-0.6742,-0.7312,-0.811,-0.9656,-1.0516,-1.0848,-1.1578,-1.2155,-1.2457,-1.095,-1.0673,-1.1411,-1.3485,-1.4672,-1.5334,-1.6886,-1.7587,-1.7542,-1.5536,-1.4549,-1.3867,-1.2016,-1.0664,-0.9636,-0.8939,-0.8015,-0.7235,-0.7405,-0.8006,-0.8996,-1.0799,-1.189,-1.3051,-1.5393,-1.6566,-1.7412,-1.8567,-1.9317,-1.9994,-2.0735,-2.0805,-2.0879,-2.1385,-2.1485,-2.1531,-2.1668,-2.1906,-2.208,-2.208,-2.2327,-2.2501,-2.2501,-2.2501,-2.2501,-2.2501,-2.2501,-2.2584,-2.2751,-2.2852,-2.3072,-2.3494,-2.3719,-2.4038,-2.4368,-2.4707,-2.5068,-2.5508,-2.623,-2.6738,-2.7021,-2.7314,-2.7519,-2.7656,-2.7803,-2.7861,-2.7891,-2.831,-2.8662,-2.8955,-2.9394,-2.9404,-2.9141,-2.9141,-2.8877,-2.8486,-2.834,-2.8027,-2.7699,0.0,0.0,0.0,0.0,0.0,0.0,0.0,0.0,-0.5405,-0.5669,0.0,0.0,0.0,0.0,0.0,-0.5023,-0.4612,-0.4416,-0.4585,-0.4708,-0.4784,-0.4784,-0.5087,-0.5285,-0.5297,-0.5158,-0.5423,-0.6095,-0.5981,-0.6545,-0.778,-0.878,-0.9584,-1.0204,-1.0224,-1.0681,-1.1356,-1.0613,-1.1043,-1.2318,-1.2965,-1.3984,-1.5145,-1.5766,-1.6266,-1.6465,-1.5434,-1.4849,-1.4407,-1.3131,-1.1992,-1.0936,-0.9847,-0.8462,-0.723,-0.7206,-0.7018,-0.7206,0.0,0.0,0.0,-1.2927,-1.5065,-1.6764,-1.7133,-1.8434,-1.9705,-2.0336,-2.0159,-2.014,-2.0943,-2.1099,-2.1236,-2.1595,-2.1678,-2.1696,-2.1696,-2.1696,-2.1696,-2.1696,-2.1696,-2.1696,-2.1696,-2.1696,-2.1696,-2.1696,-2.1919,-2.2185,-2.2397,-2.3044,-2.3673,-2.4319,-2.5167,-2.5459,-2.5086,-2.6289,-2.6523,-2.5703,-2.6582,-2.6777,-2.6426,-2.6826,-2.7012,-2.7041,-2.748,-2.8125,-2.8916,-2.9355,-2.9521,-2.9567,-2.9567,-2.9248,-2.8818,-2.8408,-2.7988,-2.762,0.0,0.0,0.0,0.0,0.0,-0.5136,-0.52,-0.5436,-0.562,0.0,0.0,0.0,-0.5599,-0.5853,-0.588,-0.5534,-0.5377,-0.5112,-0.4628,-0.4498,-0.4444,-0.4444,-0.4526,-0.4766,-0.5152,-0.5082,-0.5359,-0.6024,-0.6179,-0.6493,-0.6943,-0.7721,-0.8181,-0.8372,-0.8699,-0.9082,-0.9482,-0.9861,-1.0455,-1.1302,-1.3174,-1.409,-1.4455,-1.5906,-1.632,-1.6042,-1.4954,-1.4399,-1.3974,-1.2806,-1.1945,-1.1158,-0.9907,-0.8812,-0.79,-0.7346,-0.7151,-0.7242,-0.7936,0.0,0.0,0.0,0.0,0.0,-1.5449,-1.7138,-1.8492,-1.904,-1.9761,-2.0378,-2.064,-2.0915,-2.1053,-2.0845,-2.1302,-2.1696,-2.1696,-2.1696,-2.1696,-2.1696,-2.1696,-2.1696,-2.1696,-2.1696,-2.1696,-2.1696,-2.1785,-2.1998,-2.2397,-2.29,-2.3281,-2.3442,-2.3686,-2.3945,-2.4141,-2.4502,-2.5039,-2.5693,-2.5927,-2.6357,-2.6846,-2.6963,-2.7012,-2.7041,-2.748,-2.7855,-2.8047,-2.8467,-2.8467,-2.8247,-2.8247,-2.793,-2.7529,-2.7412,-2.71,-2.6728,0.0,0.0,-0.4046,-0.4153,-0.4563,-0.5007,-0.5335,-0.5724,-0.6094,0.0,0.0,0.0,-0.6301,-0.6428,-0.6423,-0.6143,-0.5852,-0.5523,-0.5087,-0.4847,-0.4638,-0.4426,-0.4415,-0.4602,-0.4959,-0.4829,-0.5072,-0.5705,-0.5868,-0.6058,-0.6277,-0.6895,-0.7212,-0.7291,-0.7774,-0.8193,-0.8596,-0.9402,-1.0172,-1.0973,-1.2357,-1.3068,-1.3408,-1.453,-1.4769,-1.4393,-1.3862,-1.3672,-1.3519,-1.2856,-1.23,-1.1621,-1.0515,-0.9468,-0.8512,-0.7852,-0.7436,-0.7261,-0.7522,-0.7858,-0.8462,-0.9857,0.0,0.0,-1.4651,-1.6397,-1.7891,-1.9132,-1.9844,-2.0232,-2.0232,-2.0594,-2.0732,-2.0338,-2.0763,-2.1183,-2.1183,-2.133,-2.1431,-2.1431,-2.1586,-2.1696,-2.1696,-2.1696,-2.1696,-2.1696,-2.1696,-2.1909,-2.2388,-2.275,-2.3013,-2.3091,-2.3276,-2.3447,-2.3516,-2.4053,-2.4531,-2.4932,-2.543,-2.5898,-2.6211,-2.6396,-2.6484,-2.6444,-2.6758,-2.6865,-2.6885,-2.7129,-2.751,-2.793,-2.793,-2.7666,-2.7266,-2.708,-2.6748,-2.6367,0.0,0.0,-0.3353,-0.3606,-0.4059,-0.4642,-0.5385,-0.5977,-0.6568,0.0,-0.744,-0.7417,-0.7252,-0.7042,-0.6886,-0.6833,-0.6229,-0.5836,-0.5782,-0.5475,-0.5109,-0.4673,-0.4651,-0.4704,-0.4852,-0.4638,-0.479,-0.5362,-0.5391,-0.5545,-0.5829,-0.634,-0.6644,-0.6787,-0.7346,-0.7854,-0.8297,-0.91,-1.0112,-1.116,-1.119,-1.1667,-1.2379,-1.2614,-1.2578,-1.2433,-1.2668,-1.2892,-1.3029,-1.2999,-1.2668,-1.2186,-1.1437,-1.0345,-0.9203,-0.862,-0.7937,-0.7419,-0.7595,-0.7744,-0.8006,-0.853,-1.0102,0.0,-1.4008,-1.561,-1.722,-1.9297,-1.957,-1.9421,-1.9376,-1.977,-1.996,-1.9743,-2.0067,-2.034,-2.047,-2.086,-2.1089,-2.1044,-2.1412,-2.1668,-2.1632,-2.1623,-2.1641,-2.1687,-2.1741,-2.1909,-2.2344,-2.2618,-2.2882,-2.3057,-2.3471,-2.3525,-2.3101,-2.4277,-2.4521,-2.3877,-2.4992,-2.543,-2.5156,-2.5557,-2.5693,-2.5693,-2.5693,-2.5693,-2.5693,-2.5693,-2.659,-2.8008,-2.8008,-2.7783,-2.7454,-2.7021,-2.6641,-2.626,-0.2729,-0.3269,-0.3732,-0.3896,-0.4529,-0.5124,-0.5439,-0.5687,-0.6104,-0.6906,-0.7609,-0.8025,-0.7976,-0.8075,-0.798,-0.7628,-0.7112,-0.6674,-0.6283,-0.5658,-0.5204,-0.5009,-0.4955,-0.5005,-0.5191,-0.5269,-0.5412,-0.5707,-0.5911,-0.6011,-0.5957,-0.6289,-0.6446,-0.6498,-0.7261,-0.7751,-0.8027,-0.8842,-1.0039,-1.1429,-1.1679,-1.2113,-1.2632,-1.2687,-1.2813,-1.297,-1.2981,-1.2928,-1.2753,-1.2542,-1.2403,-1.2246,-1.1838,-1.1286,-1.0503,-0.9558,-0.886,-0.8319,-0.7952,-0.775,-0.7776,-0.8259,-0.901,0.0,-1.0981,-1.2564,-1.397,-1.4643,-1.5717,-1.6492,-1.6325,-1.6799,-1.7475,-1.8397,-1.8854,-1.943,-2.0382,-2.086,-2.0989,-2.0677,-2.1248,-2.1559,-2.1264,-2.1227,-2.1374,-2.1668,-2.1919,-2.2052,-2.2141,-2.2583,-2.2803,-2.2838,-2.3091,-2.3179,-2.3091,-2.3344,-2.3779,-2.4297,-2.4551,-2.5,-2.5605,-2.5645,-2.5693,-2.5693,-2.5693,-2.5693,-2.5693,-2.5693,-2.5888,-2.6191,-2.6191,-2.6132,-2.6054,-2.5966,-2.5888,-2.5801,-0.227,-0.279,-0.3265,-0.3472,-0.4075,-0.4699,-0.5088,-0.5402,-0.5841,-0.6551,-0.7653,-0.8324,-0.8219,-0.8586,-0.8673,-0.8199,-0.7852,-0.7447,-0.6924,-0.646,-0.6004,-0.556,-0.5424,-0.5365,-0.5395,-0.5214,-0.5246,-0.5551,-0.5551,-0.5589,-0.5667,-0.596,-0.6453,-0.7122,-0.7455,-0.809,-0.8957,-0.9612,-1.0509,-1.1495,-1.1483,-1.1992,-1.2705,-1.2705,-1.2789,-1.2934,-1.3029,-1.2987,-1.2916,-1.2916,-1.2735,-1.2463,-1.2198,-1.1802,-1.1297,-1.037,-0.9817,-0.9324,-0.8501,-0.8217,-0.8142,-0.8121,-0.8291,0.0,0.0,-1.1212,-1.2058,-1.3344,-1.4304,-1.4908,-1.474,-1.5247,-1.589,-1.6539,-1.7318,-1.8078,-1.8687,-1.9924,-2.0741,-2.0539,-2.0879,-2.1,-2.0833,-2.0814,-2.094,-2.1238,-2.1581,-2.1876,-2.2148,-2.2356,-2.2626,-2.2916,-2.3057,-2.3091,-2.3091,-2.352,-2.3949,-2.4424,-2.4816,-2.5255,-2.5693,-2.5693,-2.5693,-2.5693,-2.5693,-2.5693,-2.5693,-2.5693,-2.5693,-2.5693,-2.5693,-2.5693,-2.5693,-2.5693,-2.5693,-2.5693,-0.1859,-0.2255,-0.2675,-0.2908,-0.3484,-0.4072,-0.4609,-0.5058,-0.5545,-0.6195,-0.7595,-0.8477,-0.8319,-0.8953,-0.9265,-0.8894,-0.8668,-0.8291,-0.7787,-0.7564,-0.7155,-0.646,-0.6078,-0.5859,-0.579,-0.5206,-0.5035,-0.5303,-0.5175,-0.5181,-0.5308,-0.5673,-0.646,-0.7584,-0.7736,-0.8498,-0.9727,-1.0509,-1.1122,-1.1555,-1.1467,-1.2029,-1.2934,-1.288,-1.2958,-1.3109,-1.323,-1.3227,-1.3308,-1.3519,-1.3296,-1.2886,-1.2626,-1.2403,-1.2024,-1.1164,-1.0731,-1.0304,-0.9287,-0.8939,-0.8746,-0.8243,-0.8087,-0.8472,0.0,0.0,0.0,-1.2343,-1.2919,-1.3109,-1.3112,-1.3592,-1.4096,-1.4452,-1.5389,-1.6232,-1.6578,-1.8285,-1.9638,-2.0204,-2.0484,-2.0604,-2.0521,-2.0732,-2.0854,-2.0815,-2.1345,-2.178,-2.2102,-2.2178,-2.2418,-2.2921,-2.3052,-2.3091,-2.3091,-2.3906,-2.4336,-2.4424,-2.5177,-2.5606,-2.5693,-2.5693,-2.5693,-2.5693,-2.5693,-2.5693,-2.5693,-2.5693,-2.5693,-2.5693,-2.5693,-2.5693,-2.5693,-2.5693,-2.5693,-2.5693,-0.1711,-0.2157,-0.2653,-0.279,-0.3429,-0.4009,-0.4322,-0.4512,-0.4891,-0.5684,-0.7459,-0.8656,-0.8628,-0.9553,-1.0148,-1.0094,-0.9863,-0.9518,-0.9039,-0.8825,-0.85,-0.8056,-0.7106,-0.6656,-0.6823,-0.6074,-0.5554,-0.5303,-0.5688,-0.5676,-0.5308,-0.5771,-0.6255,-0.6795,-0.7964,-0.8627,-0.8957,-1.0671,-1.1573,-1.1874,-1.2349,-1.3025,-1.3743,-1.3513,-1.3863,-1.4425,-1.3978,-1.3815,-1.3821,-1.3851,-1.3821,-1.3725,-1.3459,-1.3357,-1.3133,-1.2048,-1.1561,-1.1176,-1.034,-0.9775,-0.9354,-0.9041,-0.8788,-0.8613,-0.8604,0.0,-0.8605,-0.879,0.0,-0.9369,-0.9771,0.0,0.0,-1.2204,-1.2867,-1.3661,-1.5106,-1.556,-1.6636,-1.9146,-2.0383,-2.0906,-2.0549,-2.1493,-2.1765,-2.0941,-2.1919,-2.2335,-2.1873,-2.205,-2.225,-2.2298,-2.2819,-2.3091,-2.3091,-2.3613,-2.4043,-2.4424,-2.4912,-2.5352,-2.5693,-2.5693,-2.5693,-2.5693,-2.5693,-2.5693,-2.5693,-2.5693,-2.5693,-2.5693,-2.5693,-2.5693,-2.5693,-2.5693,-2.5693,-2.5693,-0.1801,-0.2317,-0.28,-0.2891,-0.3527,-0.4043,-0.4178,-0.4531,-0.4915,-0.5269,-0.6588,-0.7737,-0.8455,-0.9185,-0.9819,-1.0436,-1.0272,-0.9992,-0.9642,-0.927,-0.889,-0.8451,-0.7585,-0.6956,-0.6671,-0.6061,-0.5586,-0.5295,-0.5386,-0.5386,-0.53,-0.5577,-0.6321,-0.7454,-0.8415,-0.9398,-1.0406,-1.1645,-1.2457,-1.288,-1.3254,-1.3791,-1.4316,-1.3737,-1.3821,-1.4238,-1.4159,-1.4039,-1.3906,-1.3906,-1.3906,-1.3857,-1.3598,-1.3725,-1.3761,-1.2693,-1.2373,-1.2169,-1.1087,-1.0707,-1.0448,-0.9564,-0.9257,-0.8945,-0.8082,-0.7762,-0.7606,-0.7413,0.0,0.0,0.0,0.0,0.0,0.0,-1.0916,-1.1736,-1.2508,-1.3397,-1.4857,-1.7115,-1.8009,-1.8694,-1.9399,-2.0955,-2.1471,-2.0229,-2.1519,-2.2058,-2.132,-2.1617,-2.1993,-2.2382,-2.2833,-2.3091,-2.3091,-2.3574,-2.3877,-2.4062,-2.4736,-2.5166,-2.5361,-2.5567,-2.5693,-2.5693,-2.5693,-2.5693,-2.5693,-2.5693,-2.5693,-2.5693,-2.5693,-2.5693,-2.5693,-2.5693,-2.5693,-2.5693,-0.1939,-0.239,-0.283,-0.2899,-0.3522,-0.4046,-0.4243,-0.4637,-0.4942,-0.501,-0.6016,-0.716,-0.8298,-0.8999,-0.9777,-1.0829,-1.0778,-1.0546,-1.0234,-1.0008,-0.9707,-0.9273,-0.8388,-0.7664,-0.7176,-0.6469,-0.5869,-0.541,-0.5393,-0.5355,-0.5308,-0.5531,-0.6388,-0.7775,-0.859,-0.9817,-1.1294,-1.2224,-1.2933,-1.3429,-1.3694,-1.4081,-1.4449,-1.4008,-1.3912,-1.4039,-1.4226,-1.4171,-1.4026,-1.4099,-1.4129,-1.4069,-1.3731,-1.3882,-1.3996,-1.2994,-1.285,-1.2783,-1.1727,-1.154,-1.1351,-1.0316,-0.9949,-0.9522,-0.8393,-0.7915,-0.7582,-0.7121,-0.7121,0.0,0.0,0.0,0.0,0.0,0.0,-0.9794,-0.9937,-1.1059,-1.2778,-1.5194,-1.6167,-1.7186,0.0,-2.0506,-2.116,-1.9885,-2.1332,-2.1885,-2.0957,-2.1284,-2.1784,-2.2324,-2.2818,-2.3091,-2.3091,-2.3574,-2.3789,-2.3799,-2.4658,-2.5116,-2.5135,-2.5527,-2.5693,-2.5693,-2.5693,-2.5693,-2.5693,-2.5693,-2.5538,-2.5274,-2.5274,-2.5069,-2.4873,-2.5479,-2.5528,-2.5323,-0.2044,-0.2272,-0.255,-0.2694,-0.3267,-0.3937,-0.4599,-0.4687,-0.4786,-0.4985,-0.6144,-0.7375,-0.8387,-0.9437,-1.0518,-1.1572,-1.1661,-1.1451,-1.0982,-1.137,-1.151,-1.123,-0.9863,-0.9136,-0.9114,-0.7752,-0.6615,-0.569,-0.6126,-0.5992,-0.5314,-0.5782,-0.6362,-0.7089,-0.8348,-0.9518,-1.0621,-1.1864,-1.2701,-1.3157,-1.3423,-1.3688,-1.3984,-1.4485,-1.4515,-1.4286,-1.4292,-1.4292,-1.4328,-1.46,-1.469,-1.46,-1.4063,-1.3906,-1.3761,-1.2946,-1.2711,-1.265,-1.2355,-1.2095,-1.1796,-1.1501,-1.1032,-1.0436,-0.963,-0.9233,-0.877,-0.7783,-0.737,-0.7206,-0.7212,0.0,0.0,0.0,0.0,0.0,0.0,-0.8237,-0.9959,-1.3697,-1.5878,0.0,0.0,-2.0506,-2.1314,0.0,-2.1752,-2.2186,-2.0966,-2.1334,-2.1709,-2.1904,-2.2705,-2.3091,-2.3091,-2.3574,-2.3789,-2.3799,-2.4658,-2.5116,-2.5135,-2.5527,-2.5693,-2.5693,-2.5693,-2.5693,-2.5693,-2.5693,-2.5069,-2.4137,-2.4137,-2.3543,-2.2844,-2.4922,-2.502,-2.4295,-0.2205,-0.2336,-0.2471,-0.2621,-0.3087,-0.3662,-0.4387,-0.4601,-0.4794,-0.5108,-0.6242,-0.7462,-0.8777,-0.9596,-1.0598,-1.1852,-1.179,-1.1564,-1.1203,-1.1225,-1.1122,-1.0844,-0.996,-0.9233,-0.8759,-0.7787,-0.6988,-0.6355,-0.62,-0.5996,-0.576,-0.5921,-0.6262,-0.6812,-0.825,-0.9576,-1.0828,-1.1792,-1.2838,-1.3894,-1.3809,-1.4147,-1.4666,-1.431,-1.4226,-1.4298,-1.4298,-1.4298,-1.431,-1.4407,-1.4564,-1.4654,-1.428,-1.4165,-1.4045,-1.3423,-1.3121,-1.2922,-1.2644,-1.2766,-1.277,-1.1944,-1.2034,-1.1887,-1.0363,-0.9955,-0.9588,-0.8552,-0.7964,-0.7629,-0.7498,0.0,0.0,0.0,0.0,0.0,0.0,-0.7266,-0.8205,-1.0165,0.0,0.0,0.0,0.0,0.0,0.0,-2.0875,0.0,-2.0305,-2.083,-2.1358,-2.1875,-2.2432,-2.2818,-2.3091,-2.3247,-2.3359,-2.3315,-2.3945,-2.4219,-2.4238,-2.4668,-2.5019,-2.5293,-2.5293,-2.5459,-2.5635,-2.4913,-2.4452,-2.4038,-2.3335,-2.3235,-2.3642,-2.4353,-2.4393,-2.4245,-0.2336,-0.2376,-0.2442,-0.257,-0.306,-0.3617,-0.4285,-0.4553,-0.4818,-0.517,-0.6017,-0.7102,-0.8377,-0.9264,-1.0276,-1.1533,-1.1775,-1.1833,-1.1855,-1.1548,-1.137,-1.1392,-1.0546,-0.9863,-0.94,-0.8581,-0.7862,-0.7235,-0.6736,-0.6328,-0.6001,-0.6087,-0.6374,-0.6839,-0.8099,-0.9571,-1.1091,-1.1541,-1.264,-1.4141,-1.3972,-1.422,-1.4642,-1.4316,-1.4419,-1.4696,-1.4515,-1.4509,-1.4558,-1.4358,-1.4485,-1.4654,-1.4274,-1.4159,-1.4075,-1.364,-1.3332,-1.3041,-1.2904,-1.3034,-1.3053,-1.2496,-1.2708,-1.2796,-1.152,-1.1261,-1.0978,-1.0019,-0.9383,-0.892,-0.8698,0.0,0.0,0.0,0.0,0.0,0.0,-0.6888,0.0,0.0,0.0,0.0,0.0,0.0,0.0,0.0,0.0,0.0,0.0,-2.0535,-2.1065,-2.1641,-2.2217,-2.2604,-2.2867,-2.3023,-2.3091,-2.3101,-2.3584,-2.3789,-2.3809,-2.4228,-2.4658,-2.5068,-2.4726,-2.4775,-2.5069,-2.3949,-2.3294,-2.2935,-2.2634,-2.2693,-2.3035,-2.384,-2.4344,-2.4707,-0.2442,-0.2402,-0.2461,-0.2609,-0.317,-0.3758,-0.4311,-0.4566,-0.4838,-0.5181,-0.5657,-0.6368,-0.7415,-0.8511,-0.9615,-1.0625,-1.1486,-1.216,-1.2651,-1.2255,-1.2196,-1.2641,-1.1568,-1.0915,-1.0857,-0.9996,-0.9066,-0.8137,-0.7616,-0.6876,-0.5964,-0.6203,-0.6573,-0.7041,-0.7793,-0.9347,-1.1335,-1.1094,-1.2116,-1.3906,-1.3906,-1.3936,-1.4045,-1.4558,-1.5083,-1.5469,-1.4932,-1.4896,-1.5028,-1.4509,-1.4515,-1.4648,-1.4129,-1.3948,-1.3876,-1.3628,-1.3357,-1.3101,-1.3145,-1.294,-1.2808,-1.307,-1.3113,-1.3087,-1.3026,-1.3004,-1.2809,-1.2093,-1.1468,-1.0945,-1.0683,-0.9521,0.0,0.0,0.0,0.0,0.0,0.0,0.0,0.0,0.0,0.0,0.0,0.0,0.0,0.0,0.0,0.0,0.0,-2.0626,-2.0797,-2.115,-2.2009,-2.249,-2.251,-2.2886,-2.3091,-2.3101,-2.3555,-2.376,-2.3769,-2.417,-2.4543,-2.4905,-2.3878,-2.3666,-2.3984,-2.2883,-2.1879,-2.1084,-2.2005,-2.1769,-2.1132,-2.3294,-2.4756,-2.5479,-0.2564,-0.2601,-0.2705,-0.3003,-0.3271,-0.3617,-0.4087,-0.4572,-0.4972,-0.5289,-0.6358,-0.7243,-0.7619,-0.8583,-0.9328,-0.9567,-0.9811,-1.0288,-1.1059,-1.0998,-1.0915,-1.0953,-1.0446,-0.9747,-0.8785,-0.8767,-0.8212,-0.7005,-0.7018,-0.6412,-0.5267,-0.5319,-0.5418,-0.5597,-0.6943,-0.8583,-1.0392,-1.105,-1.2292,-1.3906,-1.3906,-1.4383,-1.5107,-1.5246,-1.5626,-1.5982,-1.5264,-1.5046,-1.5083,-1.4944,-1.495,-1.4986,-1.4847,-1.4521,-1.4183,-1.4117,-1.3773,-1.3462,-1.3642,-1.3484,-1.3349,-1.3566,-1.3616,-1.354,-1.3353,-1.329,-1.3112,-1.2522,-1.1979,-1.1529,-1.1246,-1.0277,-0.9551,0.0,0.0,0.0,0.0,0.0,0.0,-0.6756,0.0,0.0,0.0,0.0,0.0,0.0,0.0,0.0,0.0,0.0,-2.1185,-2.098,-2.1675,-2.2197,-2.251,-2.2886,-2.3091,-2.3091,-2.3208,-2.3257,-2.3266,-2.3374,-2.3287,-2.3019,-2.2741,-2.2869,-2.3198,-2.2136,-2.1943,-2.2219,-2.118,-2.0857,-2.1132,-2.3294,-2.4295,-2.4609,-0.2828,-0.2925,-0.306,-0.3303,-0.3661,-0.4013,-0.4287,-0.4775,-0.5266,-0.5752,-0.6505,-0.7039,-0.7267,-0.8181,-0.881,-0.8831,-0.9283,-0.9855,-1.0521,-1.021,-1.0096,-1.0201,-0.9694,-0.9089,-0.8496,-0.8464,-0.7997,-0.7023,-0.6852,-0.6196,-0.514,-0.5088,-0.5123,-0.5254,-0.6336,-0.7706,-0.9311,-1.0919,-1.2132,-1.311,-1.3791,-1.4205,0.0,-1.5247,-1.568,-1.5897,-1.5565,-1.5451,-1.5415,-1.5185,-1.5185,-1.5258,-1.5143,-1.4539,-1.3897,-1.3897,-1.3295,-1.2678,-1.3205,-1.3163,-1.3144,-1.3685,-1.3812,-1.3798,-1.3897,-1.3881,-1.3792,-1.3474,-1.3091,-1.2766,-1.2602,-1.1699,-1.0738,-1.0104,0.0,0.0,0.0,0.0,0.0,0.0,-0.8654,0.0,0.0,0.0,0.0,0.0,0.0,0.0,0.0,0.0,-2.1012,-2.0779,-2.1687,-2.2187,-2.2236,-2.3027,-2.3286,-2.3091,-2.3091,-2.3091,-2.3091,-2.3091,-2.3059,-2.2938,-2.2473,-2.252,-2.2849,-2.1752,-2.1371,-2.1388,-2.0443,-2.0249,-2.0666,-2.2331,-2.314,-2.3516,-0.3144,-0.3307,-0.3457,-0.3548,-0.4144,-0.464,-0.4709,-0.5152,-0.5664,-0.6165,-0.6265,-0.6429,-0.6722,-0.7513,-0.8075,-0.8207,-0.9044,-0.9795,-1.0365,-0.9709,-0.9446,-0.9832,-0.9044,-0.8656,-0.8765,-0.8411,-0.7955,-0.7384,-0.6862,-0.612,-0.5203,-0.5127,-0.5173,-0.535,-0.594,-0.6997,-0.8534,-1.0687,-1.1698,-1.2025,-1.3363,-1.3515,-1.3079,-1.4556,-1.5071,-1.51,-1.5376,-1.5618,-1.5819,-1.5211,-1.5154,-1.5251,-1.4865,-1.4037,-1.3234,-1.3234,-1.2375,-1.1599,-1.2309,-1.2421,-1.2584,-1.3574,-1.3855,-1.397,-1.4532,-1.4624,-1.4569,-1.4529,-1.4315,-1.4128,-1.4095,-1.3206,-1.2037,-1.0681,-0.9937,0.0,0.0,0.0,0.0,0.0,0.0,0.0,0.0,0.0,0.0,0.0,0.0,0.0,0.0,0.0,-2.0505,-2.0547,-2.1719,-2.2227,-2.1973,-2.3066,-2.3457,-2.3091,-2.3091,-2.3062,-2.3013,-2.3071,-2.3252,-2.3477,-2.2409,-2.2134,-2.2404,-2.1311,-2.0447,-1.9732,-1.9813,-1.9789,-1.978,-2.073,-2.1431,-2.2046,-0.3428,-0.3454,-0.3575,-0.3847,-0.4449,-0.4937,-0.5204,-0.5593,-0.5803,-0.5812,-0.6255,-0.6543,-0.6454,-0.6815,-0.7039,-0.7062,-0.7273,-0.7762,-0.8762,-0.8664,-0.857,-0.8549,-0.829,-0.772,-0.6915,-0.7296,-0.705,-0.6177,-0.646,-0.5912,-0.4644,-0.4519,-0.4417,-0.4388,-0.5577,-0.7363,-0.9487,-1.0286,-1.0929,-1.138,-1.1746,-1.1957,-1.2093,-1.2733,-1.2955,-1.296,-1.2999,-1.4261,-1.5713,-1.4714,-1.4393,-1.426,-1.3184,-1.2564,-1.2264,-1.2264,-1.1926,-1.1642,-1.1878,-1.2242,-1.2714,-1.3345,-1.3793,-1.4251,-1.4809,-1.4923,-1.4816,-1.4569,-1.4482,-1.4369,-1.4128,-1.3714,-1.312,-1.2449,-1.1826,-1.1189,0.0,0.0,0.0,0.0,0.0,0.0,0.0,0.0,0.0,0.0,0.0,0.0,0.0,0.0,-2.0076,0.0,-2.1072,-2.1726,0.0,0.0,-2.2828,-2.3091,-2.3091,-2.2916,-2.2637,-2.2935,-2.2725,-2.2028,-2.0978,-2.0596,-2.0566,-1.9611,-1.9286,-1.9415,-1.9407,-1.9061,-1.8587,-1.8777,-1.895,-1.933,-0.3628,-0.375,-0.3973,-0.4417,-0.4897,-0.5343,-0.5633,-0.5987,-0.6282,-0.6388,-0.6521,-0.6692,-0.6829,-0.6899,-0.6921,-0.698,-0.6986,-0.72,-0.7738,-0.7731,-0.7665,-0.7598,-0.7328,-0.6904,-0.635,-0.6587,-0.6394,-0.5814,-0.601,-0.5697,-0.4876,-0.4724,-0.464,-0.4602,-0.5443,-0.6886,-0.8729,-0.9052,-0.9496,-1.0023,-1.1015,-1.1247,-1.1062,-1.2042,-1.2417,-1.2417,-1.2417,-1.3117,-1.3986,-1.3452,-1.329,-1.3181,-1.258,-1.1914,-1.1352,-1.1352,-1.0843,-1.0395,-1.0831,-1.1144,-1.1535,-1.2272,-1.304,-1.3747,-1.4126,-1.4611,-1.4877,-1.4583,-1.4522,-1.4429,-1.4142,-1.4222,0.0,-1.3133,-1.3045,-1.269,0.0,0.0,0.0,0.0,0.0,0.0,0.0,0.0,0.0,0.0,0.0,0.0,0.0,0.0,-1.9807,0.0,0.0,0.0,-2.1804,0.0,-2.251,-2.249,-2.249,-2.2383,-2.2197,-2.2402,-2.2225,-2.1755,-2.0985,-2.0669,-2.0554,-1.9302,-1.8891,-1.8995,-1.8488,-1.8083,-1.7801,-1.7801,-1.7801,-1.8008,-0.3901,-0.4151,-0.4463,-0.4882,-0.5382,-0.5794,-0.5958,-0.6369,-0.6709,-0.6853,-0.6768,-0.6842,-0.722,-0.7116,-0.7111,-0.7202,-0.721,-0.721,-0.721,-0.7125,-0.7021,-0.7021,-0.6719,-0.6499,-0.6385,-0.6236,-0.6056,-0.5847,-0.582,-0.557,-0.511,-0.5151,-0.5167,-0.5143,-0.5472,-0.6338,-0.7601,-0.775,-0.8045,-0.8603,-1.0096,-1.0296,-0.9871,-1.1186,-1.1655,-1.1655,-1.1655,-1.1655,-1.1655,-1.1655,-1.1819,-1.1982,-1.1764,-1.1059,-1.0296,-1.0296,-0.9712,-0.9144,-0.9628,-0.9987,-1.0336,-1.1089,-1.2064,-1.2936,-1.3178,-1.4099,-1.4741,-1.4402,-1.4427,-1.4469,-1.4309,-1.4603,0.0,-1.3975,-1.4041,-1.3814,0.0,0.0,0.0,0.0,0.0,0.0,0.0,0.0,0.0,0.0,0.0,0.0,0.0,0.0,0.0,0.0,-2.0914,-2.1074,-2.0913,0.0,-2.1858,-2.1627,-2.1802,-2.1753,-2.1491,-2.1753,-2.1709,-2.1345,-2.0934,-2.0622,-2.0183,-1.8988,-1.8473,-1.838,-1.7606,-1.7279,-1.7279,-1.7279,-1.7279,-1.7456,-0.4232,-0.4563,-0.4888,-0.5032,-0.5739,-0.6195,-0.6185,-0.6492,-0.6717,-0.6473,-0.6763,-0.697,-0.7013,-0.7144,-0.7199,-0.721,-0.721,-0.721,-0.721,-0.7199,-0.7193,-0.7193,-0.7008,-0.6877,-0.6755,-0.6524,-0.6342,-0.6268,-0.6108,-0.5646,-0.4841,-0.5373,-0.5621,-0.5634,-0.5926,-0.6309,-0.6803,-0.6909,-0.7068,-0.7409,-0.8101,-0.8381,-0.8358,-0.8985,-0.921,-0.921,-0.921,-0.921,-0.921,-0.921,-0.997,-1.0676,-0.9592,-0.9154,-0.9047,-0.9047,-0.8982,-0.8852,-0.8719,-0.935,-1.0133,-1.0136,-1.1107,-1.2162,-1.2356,-1.3411,-1.4283,-1.395,-1.4193,-1.4596,-1.4881,-1.4703,-1.4877,-1.5832,-1.5137,-1.4616,-1.501,0.0,-1.3674,-1.3106,0.0,0.0,0.0,0.0,0.0,0.0,0.0,0.0,0.0,0.0,0.0,-1.9835,-1.9178,-1.9193,-1.9934,-2.0081,-2.0338,-2.0713,-2.1534,-2.125,-2.0125,-2.1361,-2.1057,-1.9563,-1.9696,-1.8942,-1.7647,-1.7498,-1.7419,-1.7419,-1.7326,-1.7279,-1.7279,-1.7279,-1.7279,-1.7333,-0.4444,-0.4633,-0.4898,-0.5238,-0.5744,-0.6178,-0.6348,-0.6666,-0.6877,-0.6785,-0.6896,-0.701,-0.7136,-0.7182,-0.721,-0.721,-0.721,-0.721,-0.721,-0.721,-0.721,-0.721,-0.7046,-0.6893,-0.6698,-0.6478,-0.6388,-0.6317,-0.6287,-0.6089,-0.57,-0.5942,-0.6015,-0.595,-0.6043,-0.6237,-0.6514,-0.6495,-0.6719,-0.7127,-0.7412,-0.7799,-0.8274,-0.8523,-0.8768,-0.8885,-0.8885,-0.8885,-0.8885,-0.8885,-0.921,-0.9533,-0.9047,-0.8885,-0.8885,-0.8885,-0.8885,-0.8817,-0.8564,-0.8793,-0.9179,-0.9253,-1.0145,-1.117,-1.156,-1.2533,-1.3245,-1.2944,-1.3272,-1.3837,-1.4537,-1.4743,-1.4823,-1.4943,-1.4863,-1.4683,-1.4339,0.0,0.0,-1.348,0.0,0.0,0.0,0.0,0.0,0.0,0.0,0.0,0.0,0.0,0.0,-1.9345,-1.86,-1.8566,-1.9317,-1.8953,-1.8827,-1.9067,-1.99,-1.9777,-1.8797,-1.9876,-1.9488,-1.8033,-1.813,-1.7624,-1.6769,-1.6967,-1.7047,-1.7062,-1.7252,-1.7279,-1.7279,-1.7279,-1.7279,-1.7279,-0.4632,-0.4843,-0.5067,-0.5356,-0.5801,-0.617,-0.6482,-0.6738,-0.6928,-0.7035,-0.7035,-0.7119,-0.7202,-0.721,-0.721,-0.721,-0.721,-0.721,-0.721,-0.721,-0.721,-0.721,-0.7133,-0.694,-0.6733,-0.6562,-0.6475,-0.6317,-0.6396,-0.6287,-0.6051,-0.604,-0.6086,-0.614,-0.6173,-0.6263,-0.6385,-0.6377,-0.657,-0.6895,-0.7159,-0.7547,-0.8081,-0.8268,-0.8488,-0.866,-0.8771,-0.8768,-0.8771,-0.8881,-0.8885,-0.8885,-0.8885,-0.8885,-0.8885,-0.8885,-0.8885,-0.8817,-0.8564,-0.8482,-0.8512,-0.8657,-0.9312,-1.0047,-1.0493,-1.1468,-1.2276,-1.2283,-1.2573,-1.3073,-1.4033,-1.4294,-1.4459,-1.4579,-1.4663,-1.4576,-1.4208,-1.4188,0.0,-1.4048,-1.4139,-1.4015,-1.3373,0.0,0.0,0.0,0.0,0.0,0.0,0.0,0.0,-1.8401,-1.7645,0.0,-1.8112,-1.772,-1.7553,-1.7634,-1.8487,-1.8447,-1.7634,-1.8006,-1.7803,-1.7188,-1.6942,-1.6665,-1.6441,-1.6763,-1.6903,-1.6932,-1.7208,-1.7279,-1.7279,-1.7279,-1.7267,-1.7201,-0.4764,-0.5233,-0.5578,-0.5534,-0.5968,-0.6345,-0.6505,-0.6638,-0.6821,-0.7152,-0.721,-0.721,-0.721,-0.721,-0.721,-0.721,-0.721,-0.721,-0.721,-0.721,-0.721,-0.721,-0.721,-0.7152,-0.6983,-0.6861,-0.6679,-0.6384,-0.6387,-0.6075,-0.5424,-0.5462,-0.5812,-0.632,-0.6382,-0.6372,-0.6333,-0.6516,-0.6616,-0.6641,-0.72,-0.7411,-0.7482,-0.7828,-0.7989,-0.8045,-0.8374,-0.8484,-0.854,-0.8826,-0.8885,-0.8885,-0.8885,-0.8885,-0.8885,-0.8885,-0.8885,-0.8817,-0.8564,-0.8482,-0.8463,-0.841,-0.8627,-0.8874,-0.9183,-1.0252,-1.1405,-1.2147,-1.2283,-1.253,-1.3292,-1.3221,-1.3619,-1.5477,-1.4843,-1.4396,-1.5257,-1.4877,-1.4623,-1.4955,-1.5451,-1.5411,-1.4583,0.0,0.0,0.0,0.0,0.0,0.0,0.0,0.0,-1.694,-1.588,0.0,-1.6034,-1.6281,-1.6509,-1.6739,-1.7594,-1.7553,-1.6698,-1.5824,-1.6088,-1.7146,-1.6284,-1.6089,-1.6441,-1.6763,-1.6903,-1.6932,-1.7208,-1.7279,-1.7279,-1.7279,-1.7128,-1.6954,-0.5055,-0.5163,-0.5286,-0.5299,-0.5685,-0.6002,-0.6151,-0.6415,-0.6594,-0.6709,-0.6942,-0.7028,-0.6951,-0.7094,-0.721,-0.721,-0.721,-0.721,-0.721,-0.721,-0.721,-0.721,-0.721,-0.7155,-0.6989,-0.6948,-0.6806,-0.6562,-0.6643,-0.6483,-0.6097,-0.6056,-0.6121,-0.6322,-0.6385,-0.6464,-0.6518,-0.6676,-0.6793,-0.6874,-0.7061,-0.7305,-0.7549,-0.77,-0.7826,-0.8045,-0.8374,-0.8484,-0.854,-0.8826,-0.8885,-0.8885,-0.8885,-0.8885,-0.8885,-0.8885,-0.8885,-0.8817,-0.8564,-0.8482,-0.8463,-0.841,-0.8577,-0.8874,-0.9133,-0.9673,-1.0386,-1.1332,-1.1388,-1.1502,-1.2467,-1.2985,-1.342,-1.382,-1.4177,-1.4342,-1.4173,-1.4215,-1.4108,-1.3808,-1.4289,-1.4289,-1.344,-1.4128,0.0,0.0,0.0,0.0,0.0,0.0,0.0,0.0,-1.5383,0.0,-1.5739,-1.5738,-1.5748,-1.5824,-1.6706,-1.6984,-1.6657,-1.579,-1.5607,-1.5947,-1.5661,-1.5643,-1.5752,-1.6082,-1.6213,-1.6265,-1.6799,-1.7049,-1.7049,-1.7049,-1.6854,-1.6615,-0.5287,-0.5324,-0.5326,-0.5328,-0.5552,-0.5781,-0.6016,-0.6192,-0.6406,-0.6462,-0.6701,-0.6851,-0.6899,-0.6997,-0.7142,-0.7218,-0.721,-0.721,-0.721,-0.721,-0.721,-0.721,-0.721,-0.7177,-0.7051,-0.7008,-0.691,-0.6757,-0.6787,-0.6722,-0.6573,-0.6502,-0.6469,-0.6472,-0.6543,-0.6616,-0.6698,-0.682,-0.6915,-0.6989,-0.7032,-0.7202,-0.7438,-0.7438,-0.7604,-0.7881,-0.8211,-0.8374,-0.854,-0.8826,-0.8885,-0.8885,-0.8885,-0.8885,-0.8885,-0.8885,-0.8844,-0.8798,-0.855,-0.8442,-0.8446,-0.8396,-0.8577,-0.8874,-0.9282,-0.948,-0.9772,-1.0449,-1.0449,-1.0601,-1.17,-1.2499,-1.3072,-1.327,-1.3983,-1.4346,-1.3979,-1.4035,-1.4075,-1.4035,-1.4355,0.0,0.0,-1.4249,-1.4502,0.0,0.0,0.0,0.0,0.0,-1.5021,-1.5202,-1.4706,-1.4705,-1.5257,-1.5191,-1.5173,-1.5298,-1.5899,-1.6221,-1.618,-1.5582,-1.534,-1.5389,-1.5305,-1.534,-1.5411,-1.5739,-1.5913,-1.5965,-1.6521,-1.6629,-1.6539,-1.6539,-1.6332,-1.6038,-0.5516,-0.5586,-0.5584,-0.5584,-0.559,-0.5714,-0.6009,-0.6075,-0.6196,-0.6427,-0.6483,-0.66,-0.6891,-0.7008,-0.7035,-0.7201,-0.7173,-0.7218,-0.721,-0.721,-0.721,-0.721,-0.721,-0.721,-0.721,-0.7051,-0.6994,-0.6986,-0.6864,-0.6801,-0.6801,-0.6801,-0.6801,-0.6801,-0.6812,-0.6815,-0.6823,-0.6945,-0.6997,-0.7008,-0.7166,-0.721,-0.721,-0.721,-0.7379,-0.7662,-0.7878,-0.8211,-0.854,-0.8826,-0.8885,-0.8885,-0.8885,-0.8885,-0.8885,-0.8885,-0.8828,-0.8676,-0.8523,-0.8377,-0.8337,-0.8375,-0.8581,-0.8924,-0.9426,-0.9579,-0.9579,-0.9579,-0.9579,-0.9916,-1.0881,-1.1687,-1.2534,-1.3543,-1.409,-1.4455,-1.4479,-1.4269,-1.4382,-1.5184,-1.5297,0.0,-1.4914,-1.4921,-1.4512,0.0,0.0,0.0,0.0,0.0,-1.5026,-1.4391,-1.3905,-1.3974,-1.4657,-1.4685,-1.4866,-1.5131,-1.5298,-1.5389,-1.5389,-1.5173,-1.5173,-1.5347,-1.5131,-1.5173,-1.5369,-1.5667,-1.5834,-1.5863,-1.6177,-1.6161,-1.5947,-1.5947,-1.563,-1.5238,-0.5552,-0.557,-0.5584,-0.5584,-0.5702,-0.5809,-0.5868,-0.5929,-0.5975,-0.6033,-0.6276,-0.6426,-0.641,-0.6819,-0.7123,-0.7043,-0.7176,-0.7252,-0.7215,-0.721,-0.721,-0.721,-0.721,-0.721,-0.721,-0.7182,-0.7128,-0.6986,-0.6864,-0.6801,-0.6801,-0.6801,-0.6801,-0.6806,-0.6902,-0.6942,-0.695,-0.7119,-0.7169,-0.7172,-0.7199,-0.721,-0.721,-0.721,-0.7379,-0.7662,-0.7878,-0.8211,-0.854,-0.8826,-0.8885,-0.8885,-0.8885,-0.8885,-0.8885,-0.8885,-0.8828,-0.8676,-0.8523,-0.8377,-0.8286,-0.8129,-0.8287,-0.863,-0.9183,-0.9286,-0.9331,-0.9579,-0.9579,-0.9677,-0.9916,-1.0795,-1.1722,-1.2498,-1.3232,-1.3862,-1.4418,-1.4269,-1.4082,-1.4019,-1.4262,-1.4195,-1.3674,-1.4035,-1.4405,0.0,0.0,-1.4794,-1.5053,-1.4861,-1.4509,-1.4125,-1.4117,-1.4151,-1.4179,-1.4712,-1.5131,-1.534,-1.5215,-1.5173,-1.5173,-1.4915,-1.4824,-1.4866,-1.4824,-1.4824,-1.4873,-1.4944,-1.4979,-1.5007,-1.5361,-1.5438,-1.5402,-1.5402,-1.5222,-1.4959,-0.4682,-0.4802,-0.5043,-0.5648,-0.581,-0.5843,-0.5843,-0.5886,-0.5916,-0.5916,-0.6039,-0.62,-0.6267,-0.6626,-0.6827,-0.6845,-0.7151,-0.7307,-0.7241,-0.724,-0.721,-0.721,-0.721,-0.721,-0.721,-0.721,-0.718,-0.7117,-0.6994,-0.6964,-0.6964,-0.6964,-0.6964,-0.6967,-0.7032,-0.7117,-0.7122,-0.7182,-0.721,-0.721,-0.721,-0.721,-0.721,-0.721,-0.7435,-0.7826,-0.7934,-0.8266,-0.8712,-0.8826,-0.8885,-0.8885,-0.8885,-0.8885,-0.8868,-0.8855,-0.8726,-0.8574,-0.8425,-0.8279,-0.8143,-0.8158,-0.8283,-0.8531,-0.9084,-0.9187,-0.9282,-0.9529,-0.9579,-0.9579,-0.9579,-1.0498,-1.1473,-1.2321,-1.2991,-1.3705,-1.461,-1.4355,-1.4028,-1.3868,-1.3988,-1.3908,-1.3413,-1.3701,-1.3961,-1.4148,-1.4289,0.0,-1.4583,-1.4422,-1.4218,-1.4055,-1.3995,-1.3988,-1.4042,-1.4622,-1.5041,-1.5264,-1.5257,-1.5173,-1.509,-1.4824,-1.4692,-1.4692,-1.4608,-1.4608,-1.4692,-1.4692,-1.4692,-1.4706,-1.488,-1.49,-1.4815,-1.4815,-1.4694,-1.4545,-0.3629,-0.3875,-0.4307,-0.5669,-0.5916,-0.5916,-0.5916,-0.5916,-0.5916,-0.5916,-0.5916,-0.5978,-0.628,-0.6342,-0.6492,-0.6651,-0.6993,-0.7203,-0.7225,-0.7239,-0.7229,-0.7213,-0.721,-0.721,-0.721,-0.721,-0.721,-0.721,-0.721,-0.721,-0.721,-0.721,-0.721,-0.721,-0.721,-0.721,-0.721,-0.721,-0.721,-0.721,-0.721,-0.721,-0.721,-0.721,-0.7487,-0.7937,-0.7937,-0.8325,-0.8826,-0.8826,-0.8881,-0.8885,-0.8885,-0.8868,-0.8817,-0.872,-0.8567,-0.8425,-0.8354,-0.8157,-0.8038,-0.8283,-0.8382,-0.8531,-0.9034,-0.9183,-0.9282,-0.9529,-0.9579,-0.9579,-0.9579,-1.0355,-1.1418,-1.2816,-1.3108,-1.3692,-1.512,-1.464,-1.4088,-1.4088,-1.4088,-1.3988,-1.3693,-1.3666,-1.3567,-1.336,-1.3533,-1.3666,-1.3666,-1.3948,-1.4088,-1.4088,-1.38,-1.3828,-1.4124,-1.4489,-1.4783,-1.5041,-1.5173,-1.5173,-1.4999,-1.4741,-1.4615,-1.4615,-1.4447,-1.444,-1.4615,-1.4615,-1.4615,-1.4615,-1.4615,-1.4531,-1.4356,-1.4356,-1.4243,-1.4124,-0.3629,-0.3875,-0.4307,-0.5669,-0.5916,-0.5916,-0.5916,-0.5916,-0.5916,-0.5916,-0.5916,-0.5916,-0.5978,-0.6221,-0.6399,-0.6444,-0.664,-0.6793,-0.6896,-0.7147,-0.726,-0.7215,-0.721,-0.721,-0.721,-0.721,-0.721,-0.721,-0.721,-0.721,-0.721,-0.721,-0.721,-0.721,-0.721,-0.721,-0.721,-0.721,-0.721,-0.721,-0.721,-0.721,-0.721,-0.721,-0.7379,-0.766,-0.766,-0.8045,-0.8543,-0.8543,-0.8712,-0.8885,-0.8885,-0.8849,-0.8716,-0.8564,-0.8414,-0.835,-0.8327,-0.8157,-0.7988,-0.8038,-0.8233,-0.8482,-0.8779,-0.9031,-0.9282,-0.9529,-0.9579,-0.9579,-0.9579,-0.9723,-1.0869,-1.4051,-1.3183,-1.3228,-1.6427,-1.5283,-1.4088,-1.4088,-1.4088,-1.4068,-1.4021,-1.4015,-1.4001,-1.3955,-1.3995,-1.4015,-1.4015,-1.4062,-1.4088,-1.4088,-1.4041,-1.4119,-1.4356,-1.444,-1.4566,-1.4741,-1.4608,-1.4524,-1.4482,-1.4286,-1.4208,-1.4208,-1.4166,-1.4166,-1.4208,-1.4208,-1.4208,-1.4208,-1.4208,-1.4166,-1.4166,-1.4166,-1.4124,-1.4088,-0.1539,-0.1785,-0.2216,-0.357,-0.3817,-0.4002,-0.474,-0.4802,-0.5111,-0.5794,-0.5916,-0.5916,-0.5916,-0.6039,-0.616,-0.616,-0.6548,-0.676,-0.6723,-0.6949,-0.7085,-0.7255,-0.7245,-0.721,-0.721,-0.721,-0.721,-0.721,-0.721,-0.721,-0.721,-0.721,-0.721,-0.721,-0.721,-0.721,-0.721,-0.721,-0.721,-0.721,-0.721,-0.721,-0.721,-0.721,-0.7379,-0.7607,-0.7771,-0.81,-0.854,-0.8654,-0.8826,-0.8885,-0.8885,-0.8832,-0.8679,-0.8526,-0.8323,-0.8147,-0.8147,-0.8096,-0.7988,-0.7988,-0.8187,-0.8482,-0.8726,-0.9031,-0.9282,-0.9529,-0.9579,-0.9579,-0.9579,-0.9579,-1.027,-1.2425,-1.2272,-1.264,-1.4697,-1.4466,-1.4088,-1.4088,-1.4088,-1.4088,-1.4088,-1.4088,-1.4088,-1.4088,-1.4088,-1.4088,-1.4088,-1.4088,-1.4088,-1.4088,-1.4088,-1.4124,-1.4243,-1.4363,-1.444,-1.4524,-1.4566,-1.4482,-1.4398,-1.4321,-1.4201,-1.4088,-1.4088,-1.4088,-1.4088,-1.4088,-1.4088,-1.4088,-1.4088,-1.4088,-1.4088,-1.4088,-1.4088,-1.4088,0.0247,0.0,-0.0431,-0.1785,-0.1969,-0.2338,-0.3322,-0.3445,-0.3939,-0.5235,-0.5421,-0.5546,-0.5855,-0.5916,-0.5916,-0.5916,-0.6346,-0.6682,-0.6661,-0.6696,-0.6909,-0.728,-0.722,-0.721,-0.721,-0.721,-0.721,-0.721,-0.721,-0.721,-0.721,-0.721,-0.721,-0.721,-0.721,-0.721,-0.721,-0.721,-0.721,-0.721,-0.721,-0.721,-0.721,-0.721,-0.7324,-0.7549,-0.7826,-0.81,-0.8429,-0.8712,-0.8826,-0.8875,-0.8841,-0.8781,-0.8628,-0.8476,-0.8245,-0.7988,-0.7988,-0.7988,-0.7988,-0.7988,-0.8187,-0.8482,-0.8726,-0.9031,-0.9282,-0.9529,-0.9579,-0.9579,-0.9579,-0.9579,-0.9978,-1.1227,-1.1517,-1.1997,-1.314,-1.3598,-1.3779,-1.3779,-1.3962,-1.4088,-1.4088,-1.4088,-1.4088,-1.4088,-1.4088,-1.4088,-1.4088,-1.4088,-1.4088,-1.4088,-1.4088,-1.4088,-1.4088,-1.4243,-1.4321,-1.4321,-1.4489,-1.4489,-1.4321,-1.4321,-1.4243,-1.4088,-1.4088,-1.4088,-1.4088,-1.4088,-1.4088,-1.4088,-1.4088,-1.4088,-1.4088,-1.4088,-1.4088,-1.4088,0.0247,0.0,-0.0431,-0.1785,-0.1969,-0.2031,-0.2154,-0.2154,-0.2584,-0.3876,-0.406,-0.4493,-0.5794,-0.5916,-0.5916,-0.5916,-0.5919,-0.6096,-0.6392,-0.6508,-0.6756,-0.7285,-0.722,-0.721,-0.721,-0.721,-0.721,-0.721,-0.721,-0.721,-0.721,-0.721,-0.721,-0.721,-0.721,-0.721,-0.721,-0.721,-0.721,-0.721,-0.721,-0.721,-0.721,-0.721,-0.721,-0.7265,-0.7549,-0.7826,-0.81,-0.8429,-0.8712,-0.8858,-0.8771,-0.8621,-0.8472,-0.833,-0.817,-0.7988,-0.7988,-0.7988,-0.7988,-0.7988,-0.8187,-0.8482,-0.8726,-0.9031,-0.9282,-0.9529,-0.9579,-0.9579,-0.9579,-0.9579,-1.0335,-1.2549,-1.1618,-1.1392,-1.3635,-1.3273,-1.279,-1.279,-1.3568,-1.4088,-1.4088,-1.4088,-1.4088,-1.4088,-1.4088,-1.4088,-1.4088,-1.4088,-1.4088,-1.4088,-1.4088,-1.4088,-1.4088,-1.413,-1.413,-1.413,-1.413,-1.413,-1.413,-1.413,-1.413,-1.4088,-1.4088,-1.4088,-1.4088,-1.4088,-1.4088,-1.4088,-1.4088,-1.4088,-1.4088,-1.4088,-1.4088,-1.4088,0.1358,0.1234,0.1111,0.0555,0.0493,0.0185,-0.0616,-0.0739,-0.1231,-0.2523,-0.2707,-0.32,-0.4493,-0.4677,-0.4988,-0.5855,-0.6099,-0.6257,-0.6315,-0.6482,-0.6736,-0.7233,-0.7235,-0.721,-0.721,-0.721,-0.721,-0.721,-0.721,-0.721,-0.721,-0.721,-0.721,-0.721,-0.721,-0.721,-0.721,-0.721,-0.721,-0.721,-0.721,-0.721,-0.721,-0.721,-0.721,-0.7265,-0.7712,-0.7934,-0.81,-0.8602,-0.8826,-0.8858,-0.8757,-0.8604,-0.8435,-0.8197,-0.8035,-0.7988,-0.7988,-0.7988,-0.7988,-0.7988,-0.8187,-0.8432,-0.8531,-0.8882,-0.9183,-0.9126,-0.9229,-0.9331,-0.9331,-0.9331,-0.9644,-1.0479,-1.0544,-1.0723,-1.1384,-1.1661,-1.1843,-1.1843,-1.2143,-1.2357,-1.2357,-1.2875,-1.3222,-1.3222,-1.3779,-1.4088,-1.4088,-1.4088,-1.4088,-1.4088,-1.4088,-1.4088,-1.4088,-1.4088,-1.4088,-1.4088,-1.4088,-1.4088,-1.4088,-1.4088,-1.4088,-1.4088,-1.4088,-1.4088,-1.4088,-1.4088,-1.4088,-1.4088,-1.4088,-1.4088,-1.4088,-1.4088,-1.4088,-1.4088,0.216,0.2099,0.1977,0.1977,0.1977,0.1667,0.074,0.0617,0.0123,-0.117,-0.1354,-0.1847,-0.3137,-0.3322,-0.3815,-0.5174,-0.5479,-0.5748,-0.6144,-0.6316,-0.6625,-0.6998,-0.7043,-0.7099,-0.721,-0.721,-0.721,-0.721,-0.721,-0.721,-0.721,-0.721,-0.721,-0.721,-0.721,-0.721,-0.721,-0.721,-0.721,-0.721,-0.721,-0.721,-0.721,-0.721,-0.721,-0.7265,-0.7712,-0.7934,-0.81,-0.8602,-0.8796,-0.8842,-0.8686,-0.8503,-0.8303,-0.8049,-0.7988,-0.7988,-0.7988,-0.7988,-0.7988,-0.7988,-0.8137,-0.8287,-0.8382,-0.8684,-0.8931,-0.8825,-0.8928,-0.908,-0.908,-0.9133,-0.9188,-0.9088,-0.969,-1.0033,-0.9705,-1.045,-1.1038,-1.096,-1.1212,-1.1359,-1.1332,-1.1886,-1.2272,-1.2272,-1.2875,-1.3222,-1.3222,-1.3222,-1.3222,-1.3222,-1.3525,-1.3659,-1.3659,-1.3955,-1.4088,-1.4088,-1.4088,-1.4088,-1.4088,-1.4088,-1.4088,-1.4088,-1.4088,-1.4088,-1.4088,-1.4088,-1.4088,-1.4088,-1.4088,-1.3913,-1.3659,-1.3659,-1.3659,-1.3659,0.2529,0.2222,0.1977,0.1977,0.1977,0.1977,0.1977,0.1977,0.1543,0.0185,0.0,-0.0493,-0.1847,-0.1969,-0.2523,-0.3753,-0.3875,-0.4462,-0.5724,-0.5901,-0.6209,-0.6662,-0.6715,-0.6879,-0.721,-0.721,-0.721,-0.721,-0.721,-0.721,-0.721,-0.721,-0.721,-0.721,-0.721,-0.721,-0.721,-0.721,-0.721,-0.721,-0.721,-0.721,-0.721,-0.721,-0.721,-0.721,-0.7493,-0.7771,-0.8045,-0.8374,-0.8613,-0.8682,-0.853,-0.8275,-0.7988,-0.7988,-0.7988,-0.7988,-0.7988,-0.7988,-0.7988,-0.7988,-0.7988,-0.8088,-0.8333,-0.8382,-0.8482,-0.8726,-0.8775,-0.8775,-0.8775,-0.9031,-0.9178,-0.9003,-0.9212,-0.9343,-0.912,-0.9926,-1.0393,-1.0227,-1.0999,-1.1486,-1.13,-1.1278,-1.1278,-1.1278,-1.1284,-1.1284,-1.1284,-1.1284,-1.1284,-1.1284,-1.2186,-1.2705,-1.2705,-1.3616,-1.4088,-1.4088,-1.4088,-1.4088,-1.4088,-1.4088,-1.4088,-1.4088,-1.4088,-1.4088,-1.4088,-1.4088,-1.4088,-1.4088,-1.4088,-1.3525,-1.2705,-1.2705,-1.2705,-1.2705,0.2529,0.2222,0.1977,0.1977,0.1977,0.1977,0.1977,0.1977,0.1853,0.1481,0.1419,0.0863,-0.0431,-0.0616,-0.1108,-0.2461,-0.3353,-0.4314,-0.554,-0.5597,-0.5743,-0.6047,-0.6272,-0.6439,-0.655,-0.6768,-0.6824,-0.6824,-0.7099,-0.721,-0.721,-0.721,-0.721,-0.721,-0.721,-0.721,-0.721,-0.721,-0.721,-0.721,-0.721,-0.721,-0.721,-0.721,-0.721,-0.721,-0.7493,-0.7662,-0.7759,-0.8214,-0.8371,-0.8401,-0.8362,-0.8197,-0.7988,-0.7988,-0.7988,-0.7988,-0.7988,-0.7988,-0.7988,-0.7988,-0.7988,-0.8038,-0.8088,-0.8283,-0.8382,-0.8283,-0.8382,-0.8531,-0.8531,-0.873,-0.8924,-0.8999,-0.9212,-0.9343,-0.912,-0.9325,-0.9439,-0.9244,-0.9444,-0.9593,-0.9406,-0.9946,-1.0332,-1.0332,-1.0939,-1.1284,-1.1284,-1.1284,-1.1284,-1.1284,-1.158,-1.1714,-1.1714,-1.3307,-1.4088,-1.4088,-1.4088,-1.4088,-1.4088,-1.4088,-1.3737,-1.3137,-1.3137,-1.2747,-1.2143,-1.2143,-1.2143,-1.2143,-1.2143,-1.1972,-1.1714,-1.1714,-1.1714,-1.1714,0.2714,0.2406,0.216,0.2038,0.1977,0.1977,0.1977,0.1977,0.1977,0.1977,0.1977,0.1667,0.0863,0.0802,0.0247,-0.1109,-0.2355,-0.3363,-0.4021,-0.4012,-0.4032,-0.4196,-0.4421,-0.5094,-0.6274,-0.61,-0.6209,-0.6715,-0.6543,-0.6707,-0.721,-0.721,-0.721,-0.721,-0.721,-0.721,-0.721,-0.721,-0.721,-0.721,-0.721,-0.721,-0.721,-0.721,-0.721,-0.721,-0.7379,-0.7493,-0.7642,-0.7841,-0.8044,-0.8124,-0.8153,-0.8113,-0.7988,-0.7988,-0.7988,-0.7988,-0.7988,-0.7988,-0.7988,-0.7988,-0.7988,-0.7988,-0.7988,-0.8137,-0.8187,-0.8038,-0.8137,-0.8237,-0.8237,-0.8482,-0.8647,-0.8747,-0.8972,-0.9131,-0.898,-0.9068,-0.91,-0.8916,-0.8924,-0.8861,-0.8686,-0.9125,-0.9388,-0.9388,-0.9903,-1.025,-1.025,-1.025,-1.025,-1.025,-1.0549,-1.0766,-1.0766,-1.2229,-1.3009,-1.3009,-1.3009,-1.3009,-1.3009,-1.3009,-1.2662,-1.2143,-1.2143,-1.1843,-1.1284,-1.1284,-1.1284,-1.1284,-1.1284,-1.1063,-1.0766,-1.0766,-1.0766,-1.0766,0.3085,0.2714,0.2406,0.2038,0.1977,0.1977,0.1977,0.1977,0.1977,0.1977,0.1977,0.1977,0.1977,0.1977,0.1482,0.0308,-0.0959,-0.1752,-0.1892,-0.1807,-0.1791,-0.1791,-0.1791,-0.3078,-0.5824,-0.5091,-0.5256,-0.632,-0.5594,-0.5817,-0.6874,-0.6874,-0.6874,-0.6874,-0.6988,-0.7043,-0.7043,-0.7154,-0.721,-0.721,-0.721,-0.721,-0.721,-0.721,-0.721,-0.721,-0.721,-0.7374,-0.7514,-0.7425,-0.7635,-0.7909,-0.7982,-0.7988,-0.7988,-0.7988,-0.7988,-0.7988,-0.7988,-0.7988,-0.7988,-0.7988,-0.7988,-0.7988,-0.7988,-0.7988,-0.7988,-0.7988,-0.7988,-0.7988,-0.7988,-0.8237,-0.8382,-0.8382,-0.8627,-0.8825,-0.8825,-0.9031,-0.9121,-0.8995,-0.9013,-0.8977,-0.8791,-0.867,-0.8612,-0.8612,-0.8612,-0.8612,-0.8612,-0.8612,-0.8612,-0.8612,-0.9384,-0.9772,-0.9772,-1.0636,-1.1154,-1.1284,-1.1284,-1.1284,-1.1284,-1.1284,-1.1235,-1.1154,-1.1154,-1.1111,-1.1068,-1.1068,-1.1068,-1.1068,-1.1068,-1.0549,-0.9772,-0.9772,-0.9772,-0.9772,0.3085,0.2714,0.2406,0.2038,0.1977,0.1977,0.1977,0.1977,0.1977,0.1977,0.1977,0.1977,0.1977,0.1977,0.1853,0.1605,0.042,-0.0755,-0.1749,-0.1795,-0.1791,-0.1791,-0.1791,-0.2127,-0.2742,-0.3021,-0.3297,-0.3578,-0.3858,-0.4139,-0.436,-0.436,-0.436,-0.4418,-0.5369,-0.5817,-0.5873,-0.6818,-0.721,-0.721,-0.721,-0.721,-0.721,-0.721,-0.721,-0.721,-0.721,-0.7155,-0.7151,-0.7352,-0.7524,-0.7685,-0.7952,-0.7988,-0.7988,-0.7988,-0.7988,-0.7988,-0.7988,-0.7988,-0.7988,-0.7988,-0.7988,-0.7988,-0.7988,-0.7988,-0.7988,-0.7988,-0.7988,-0.7988,-0.7988,-0.8237,-0.8382,-0.8382,-0.8627,-0.8825,-0.8825,-0.8825,-0.8818,-0.8709,-0.8536,-0.8463,-0.8477,-0.8532,-0.8612,-0.8612,-0.8612,-0.8612,-0.8612,-0.8612,-0.8612,-0.8612,-0.8784,-0.8867,-0.8867,-0.9087,-0.9907,-1.1284,-1.1284,-1.1284,-1.1284,-1.1284,-1.089,-1.0202,-1.0202,-0.9816,-0.9174,-0.9174,-0.9174,-0.9174,-0.9174,-0.9043,-0.8867,-0.8867,-0.8867,-0.8867,0.3271,0.3085,0.2838,0.2346,0.2222,0.216,0.2038,0.1977,0.1977,0.1977,0.1977,0.1977,0.1977,0.1977,0.1965,0.1936,0.1368,0.0639,-0.0056,-0.0056,-0.0056,-0.0056,-0.0056,-0.0056,-0.0056,-0.056,-0.1342,-0.2459,-0.2349,-0.2685,-0.3356,-0.3356,-0.3467,-0.3636,-0.425,-0.4531,-0.4643,-0.5815,-0.5982,-0.5534,-0.6093,-0.5982,-0.5477,-0.5477,-0.5813,-0.6311,-0.6258,-0.647,-0.6843,-0.7285,-0.7405,-0.749,-0.7889,-0.7988,-0.7988,-0.7988,-0.7988,-0.7988,-0.7988,-0.7988,-0.7988,-0.7988,-0.7988,-0.7988,-0.7988,-0.7988,-0.7988,-0.7988,-0.7988,-0.7988,-0.7988,-0.8137,-0.8209,-0.8136,-0.822,-0.8293,-0.8222,-0.8356,-0.8372,-0.8343,-0.8236,-0.8207,-0.8177,-0.8219,-0.8296,-0.8384,-0.834,-0.8344,-0.8568,-0.8476,-0.8472,-0.8612,-0.8612,-0.8612,-0.8612,-0.8612,-0.9087,-0.999,-0.999,-0.999,-0.999,-0.999,-0.9733,-0.9301,-0.9301,-0.9043,-0.8612,-0.8612,-0.8612,-0.8612,-0.8612,-0.8612,-0.8612,-0.8612,-0.8612,-0.8612,0.358,0.3517,0.3332,0.2714,0.259,0.2468,0.216,0.2099,0.2038,0.2038,0.1977,0.1977,0.1977,0.1977,0.1952,0.1891,0.1886,0.186,0.1799,0.1795,0.1795,0.1795,0.1795,0.1795,0.1795,0.1514,0.0392,-0.1621,-0.0951,-0.1231,-0.2405,-0.2461,-0.2628,-0.2909,-0.3189,-0.3301,-0.3357,-0.4587,-0.4531,-0.3692,-0.4698,-0.4475,-0.358,-0.358,-0.4244,-0.506,-0.4988,-0.5437,-0.6149,-0.6592,-0.6822,-0.7036,-0.7487,-0.7839,-0.7988,-0.7988,-0.7988,-0.7988,-0.7988,-0.7988,-0.7988,-0.7988,-0.7988,-0.7988,-0.7988,-0.7988,-0.7988,-0.7988,-0.7988,-0.7988,-0.7988,-0.7968,-0.7911,-0.7831,-0.779,-0.7733,-0.7614,-0.7785,-0.7926,-0.7926,-0.7972,-0.7993,-0.7827,-0.7856,-0.7984,-0.8157,-0.7984,-0.8076,-0.8476,-0.8248,-0.8248,-0.8476,-0.852,-0.852,-0.848,-0.8568,-0.8568,-0.852,-0.8568,-0.8612,-0.8612,-0.8612,-0.8612,-0.8612,-0.8612,-0.8612,-0.8612,-0.8612,-0.8612,-0.8612,-0.8612,-0.8612,-0.8612,-0.8612,-0.8612,-0.8612,0.358,0.3517,0.3394,0.3023,0.2961,0.2837,0.2467,0.2406,0.2345,0.2038,0.1977,0.1977,0.1977,0.1977,0.1952,0.1891,0.1886,0.186,0.1799,0.1795,0.1795,0.1795,0.1795,0.1795,0.1795,0.1739,0.1458,0.084,0.0729,0.0561,0.0336,0.0056,-0.0112,-0.0224,-0.1456,-0.2015,-0.2127,-0.3356,-0.3748,-0.3636,-0.3804,-0.3748,-0.358,-0.358,-0.3714,-0.3829,-0.382,-0.3837,-0.3867,-0.4058,-0.4883,-0.5874,-0.6179,-0.7083,-0.7988,-0.7988,-0.7988,-0.7988,-0.7988,-0.7988,-0.7988,-0.7988,-0.7988,-0.7988,-0.7988,-0.7988,-0.7988,-0.7988,-0.7988,-0.7988,-0.7988,-0.788,-0.7834,-0.7814,-0.7709,-0.7621,-0.7604,-0.7647,-0.7647,-0.7647,-0.7692,-0.7715,-0.7565,-0.7768,-0.79,-0.7944,-0.7896,-0.7944,-0.7988,-0.7944,-0.7944,-0.7988,-0.816,-0.816,-0.7988,-0.8388,-0.8476,-0.8245,-0.8476,-0.8612,-0.8612,-0.8612,-0.8612,-0.8612,-0.8612,-0.8612,-0.8612,-0.8612,-0.8612,-0.8612,-0.8612,-0.8612,-0.8612,-0.8612,-0.8612,-0.8612,0.3765,0.3703,0.3642,0.3332,0.3271,0.3146,0.2837,0.2775,0.2715,0.2592,0.2406,0.2283,0.2283,0.2099,0.1952,0.1891,0.1886,0.186,0.1799,0.1795,0.1795,0.1795,0.1795,0.1795,0.1795,0.1795,0.1739,0.157,0.1458,0.129,0.1121,0.0841,0.0561,0.0393,-0.0448,-0.0784,-0.0896,-0.2071,-0.2183,-0.1623,-0.2351,-0.2183,-0.1566,-0.1608,-0.2033,-0.2665,-0.3253,-0.3384,-0.3307,-0.353,-0.3971,-0.4522,-0.482,-0.5372,-0.5974,-0.5974,-0.6077,-0.6229,-0.6229,-0.6634,-0.7086,-0.7086,-0.754,-0.7988,-0.7988,-0.7988,-0.7988,-0.7988,-0.7988,-0.7988,-0.7988,-0.7867,-0.7784,-0.7706,-0.7567,-0.7441,-0.7356,-0.7343,-0.7343,-0.7343,-0.7327,-0.7348,-0.7282,-0.7363,-0.7499,-0.768,-0.7544,-0.7588,-0.7896,-0.7768,-0.7724,-0.79,-0.7984,-0.7984,-0.79,-0.812,-0.8208,-0.8201,-0.8336,-0.8472,-0.8612,-0.8612,-0.8612,-0.8612,-0.8612,-0.8612,-0.8612,-0.8612,-0.8612,-0.8612,-0.8612,-0.8612,-0.8612,-0.8612,-0.8612,-0.8612]}]]